[[{"header":{"parameterUnit":"m.s-1","parameterCategory":1,"la1":31.0,"la2":29.5877,"lo1":-88.7671,"lo2":-86.6584,"dy":0.0162,"dx":0.0185,"nx":115,"ny":88,"refTime":"2024-07-15T00:00:00:Z","depth":0,"parameterNumber":2,"parameterNumberName":"U-component_of_WINDS"},"data":[0.0,0.0,0.0,0.0,0.0,0.0,0.0,0.0,0.0,0.0,0.0,0.0,0.0,0.0,0.0,0.0,0.0,0.0,0.0,0.0,0.0,0.0,0.0,0.0,0.0,0.0,0.0,0.0,0.0,0.0,0.0,0.0,0.0,0.0,0.0,0.0,0.0,0.0,0.0,0.0,0.0,0.0,0.0,0.0,0.0,0.0,0.0,0.0,0.0,0.0,0.0,0.0,0.0,0.0,0.0,0.0,0.0,0.0,0.0,0.0,0.0,0.0,0.0,0.0,0.0,0.0,0.0,0.0,0.0,0.0,0.0,0.0,0.0,0.0,0.0,0.0,0.0,0.0,0.0,0.0,0.0,0.0,0.0,0.0,0.0,0.0,0.0,0.0,0.0,0.0,0.0,0.0,0.0,0.0,0.0,0.0,0.0,0.0,0.0,0.0,0.0,0.0,0.0,0.0,0.0,0.0,0.0,0.0,0.0,0.0,0.0,0.0,0.0,0.0,0.0,0.0,0.0,0.0,0.0,0.0,0.0,0.0,0.0,0.0,0.0,0.0,0.0,0.0,0.0,0.0,0.0,0.0,0.0,0.0,0.0,0.0,0.0,0.0,0.0,0.0,0.0,0.0,0.0,0.0,0.0,0.0,0.0,0.0,0.0,0.0,0.0,0.0,0.0,0.0,0.0,0.0,0.0,0.0,0.0,0.0,0.0,0.0,0.0,0.0,0.0,0.0,0.0,0.0,0.0,0.0,0.0,0.0,0.0,0.0,0.0,0.0,0.0,0.0,0.0,0.0,0.0,0.0,0.0,0.0,0.0,0.0,0.0,0.0,0.0,0.0,0.0,0.0,0.0,0.0,0.0,0.0,0.0,0.0,0.0,0.0,0.0,0.0,0.0,0.0,0.0,0.0,0.0,0.0,0.0,0.0,0.0,0.0,0.0,0.0,0.0,0.0,0.0,0.0,0.0,0.0,0.0,0.0,0.0,0.0,0.0,0.0,0.0,0.0,0.0,0.0,0.0,0.0,0.0,0.0,0.0,0.0,0.0,0.0,0.0,0.0,0.0,0.0,0.0,0.0,0.0,0.0,0.0,0.0,0.0,0.0,0.0,0.0,0.0,0.0,0.0,0.0,0.0,0.0,0.0,0.0,0.0,0.0,0.0,0.0,0.0,0.0,0.0,0.0,0.0,0.0,0.0,0.0,0.0,0.0,0.0,0.0,0.0,0.0,0.0,0.0,0.0,0.0,0.0,0.0,0.0,0.0,0.0,0.0,0.0,0.0,0.0,0.0,0.0,0.0,0.0,0.0,0.0,0.0,0.0,0.0,0.0,0.0,0.0,0.0,0.0,0.0,0.0,0.0,0.0,0.0,0.0,0.0,0.0,0.0,0.0,0.0,0.0,0.0,0.0,0.0,0.0,0.0,0.0,0.0,0.0,0.0,0.0,0.0,0.0,0.0,0.0,0.0,0.0,0.0,0.0,0.0,0.0,0.0,0.0,0.0,0.0,0.0,0.0,0.0,0.0,0.0,0.0,0.0,0.0,0.0,0.0,0.0,0.0,0.0,0.0,0.0,0.0,0.0,0.0,0.0,0.0,0.0,0.0,0.0,0.0,0.0,0.0,0.0,0.0,0.0,0.0,0.0,0.0,0.0,0.0,0.0,0.0,0.0,0.0,0.0,0.0,0.0,0.0,0.0,0.0,0.0,0.0,0.0,0.0,0.0,0.0,0.0,0.0,0.0,0.0,0.0,0.0,0.0,0.0,0.0,0.0,0.0,0.0,0.0,0.0,0.0,0.0,0.0,0.0,0.0,0.0,0.0,0.0,0.0,0.0,0.0,0.0,0.0,0.0,0.0,0.0,0.0,0.0,0.0,0.0,0.0,0.0,0.0,0.0,0.0,0.0,0.0,0.0,0.0,0.0,0.0,0.0,0.0,0.0,0.0,0.0,0.0,0.0,0.0,0.0,0.0,0.0,0.0,0.0,0.0,0.0,0.0,0.0,0.0,0.0,0.0,0.0,0.0,0.0,0.0,0.0,0.0,0.0,0.0,0.0,0.0,0.0,0.0,0.0,0.0,0.0,0.0,0.0,0.0,0.0,0.0,0.0,0.0,0.0,0.0,0.0,0.0,0.0,0.0,0.0,0.0,0.0,0.0,0.0,0.0,0.0,0.0,0.0,0.0,0.0,0.0,0.0,0.0,0.0,0.0,0.0,0.0,0.0,0.0,0.0,0.0,0.0,0.0,0.0,0.0,0.0,0.0,0.0,0.0,0.0,0.0,0.0,0.0,0.0,0.0,0.0,0.0,0.0,0.0,0.0,0.0,0.0,0.0,0.0,0.0,0.0,0.0,0.0,0.0,0.0,0.0,0.0,0.0,0.0,0.0,0.0,0.0,0.0,0.0,0.0,0.0,0.0,0.0,0.0,0.0,0.0,0.0,0.0,0.0,0.0,0.0,0.0,0.0,0.0,0.0,0.0,0.0,0.0,0.0,0.0,0.0,0.0,0.0,0.0,0.0,0.0,0.0,0.0,0.0,0.0,0.0,0.0,0.0,0.0,0.0,0.0,0.0,0.0,0.0,0.0,0.0,0.0,0.0,0.0,0.0,0.0,0.0,0.0,0.0,0.0,0.0,0.0,0.0,0.0,0.0,0.0,0.0,0.0,0.0,0.0,0.0,0.0,0.0,0.0,0.0,0.0,0.0,0.0,0.0,0.0,0.0,0.0,0.0,0.0,0.0,0.0,0.0,0.0,0.0,0.0,0.0,0.0,0.0,0.0,0.0,0.0,0.0,0.0,0.0,0.0,0.0,0.0,0.0,0.0,0.0,0.0,0.0,0.0,0.0,0.0,0.0,0.0,0.0,0.0,0.0,0.0,0.0,0.0,0.0,0.0,0.0,0.0,0.0,0.0,0.0,0.0,0.0,0.0,0.0,0.0,0.0,0.0,0.0,0.0,0.0,0.0,0.0,0.0,0.0,0.0,0.0,0.0,0.0,0.0,0.0,0.0,0.0,0.0,0.0,0.0,0.0,0.0,0.0,0.0,0.0,0.0,0.0,0.0,0.0,0.0,0.0,0.0,0.0,0.0,0.0,0.0,0.0,0.0,0.0,0.0,0.0,0.0,0.0,0.0,0.0,0.0,0.0,0.0,0.0,0.0,0.0,0.0,0.0,0.0,0.0,0.0,0.0,0.0,0.0,0.0,0.0,0.0,0.0,0.0,0.0,0.0,0.0,0.0,0.0,0.0,0.0,0.0,0.0,0.0,0.0,0.0,0.0,0.0,0.0,0.0,0.0,0.0,0.0,0.0,0.0,0.0,0.0,0.0,0.0,0.0,0.0,0.0,0.0,0.0,0.0,0.0,0.0,0.0,0.0,0.0,0.0,0.0,0.0,0.0,0.0,0.0,0.0,0.0,0.0,0.0,0.0,0.0,0.0,0.0,0.0,0.0,0.0,0.0,0.0,0.0,0.0,0.0,0.0,0.0,0.0,0.0,0.0,0.0,0.0,0.0,0.0,0.0,0.0,0.0,0.0,0.0,0.0,0.0,0.0,0.0,0.0,0.0,0.0,0.0,0.0,0.0,0.0,0.0,0.0,0.0,0.0,0.0,0.0,0.0,0.0,0.0,0.0,0.0,0.0,0.0,0.0,0.0,0.0,0.0,0.0,0.0,0.0,0.0,0.0,0.0,0.0,0.0,0.0,0.0,0.0,0.0,0.0,0.0,0.0,0.0,0.0,0.0,0.0,0.0,0.0,0.0,0.0,0.0,0.0,0.0,0.0,0.0,0.0,0.0,0.0,0.0,0.0,0.0,0.0,0.0,0.0,0.0,0.0,0.0,0.0,0.0,0.0,0.0,0.0,0.0,0.0,0.0,0.0,0.0,0.0,0.0,0.0,0.0,0.0,0.0,0.0,0.0,0.0,0.0,0.0,0.0,0.0,0.0,0.0,0.0,0.0,0.0,0.0,0.0,0.0,0.0,0.0,0.0,0.0,0.0,0.0,0.0,0.0,0.0,0.0,0.0,0.0,0.0,0.0,0.0,0.0,0.0,0.0,0.0,0.0,0.0,0.0,0.0,0.0,0.0,0.0,0.0,0.0,0.0,0.0,0.0,0.0,0.0,0.0,0.0,0.0,0.0,0.0,0.0,0.0,0.0,0.0,0.0,0.0,0.0,0.0,0.0,0.0,0.0,0.0,0.0,0.0,0.0,0.0,0.0,0.0,0.0,0.0,0.0,0.0,0.0,0.0,0.0,0.0,0.0,0.0,-2.8953,0.0,0.0,0.0,0.0,0.0,0.0,0.0,0.0,0.0,0.0,0.0,0.0,0.0,0.0,0.0,0.0,0.0,0.0,0.0,0.0,0.0,0.0,0.0,0.0,0.0,0.0,0.0,0.0,0.0,0.0,0.0,0.0,0.0,0.0,0.0,0.0,0.0,0.0,0.0,0.0,0.0,0.0,0.0,0.0,0.0,0.0,0.0,0.0,0.0,0.0,0.0,0.0,0.0,0.0,0.0,0.0,0.0,0.0,0.0,0.0,0.0,0.0,0.0,0.0,0.0,0.0,0.0,0.0,0.0,0.0,0.0,0.0,0.0,0.0,0.0,0.0,0.0,0.0,0.0,0.0,0.0,0.0,0.0,0.0,0.0,0.0,0.0,0.0,0.0,0.0,0.0,0.0,0.0,0.0,0.0,0.0,0.0,0.0,0.0,0.0,0.0,0.0,0.0,0.0,0.0,0.0,0.0,0.0,0.0,0.0,-2.9388,-2.9388,-2.9347,-2.9294,-2.92,0.0,0.0,0.0,0.0,0.0,0.0,0.0,0.0,0.0,0.0,0.0,0.0,0.0,0.0,0.0,0.0,0.0,0.0,0.0,0.0,0.0,0.0,0.0,0.0,0.0,0.0,0.0,0.0,0.0,0.0,0.0,0.0,0.0,0.0,0.0,0.0,0.0,0.0,0.0,0.0,0.0,0.0,0.0,0.0,0.0,0.0,0.0,0.0,0.0,0.0,0.0,0.0,0.0,0.0,0.0,0.0,0.0,0.0,0.0,0.0,0.0,0.0,0.0,0.0,0.0,0.0,0.0,0.0,0.0,0.0,0.0,0.0,0.0,0.0,0.0,0.0,0.0,0.0,0.0,0.0,0.0,0.0,0.0,0.0,0.0,0.0,0.0,0.0,0.0,0.0,0.0,0.0,0.0,0.0,0.0,0.0,0.0,0.0,0.0,0.0,0.0,0.0,0.0,0.0,0.0,0.0,0.0,0.0,0.0,0.0,0.0,0.0,-2.9612,-2.9436,-2.9186,0.0,0.0,0.0,0.0,0.0,0.0,0.0,0.0,0.0,0.0,0.0,0.0,0.0,0.0,0.0,0.0,0.0,0.0,0.0,0.0,0.0,0.0,0.0,0.0,0.0,0.0,0.0,0.0,0.0,0.0,0.0,0.0,0.0,0.0,0.0,0.0,0.0,0.0,0.0,0.0,0.0,0.0,0.0,0.0,0.0,0.0,0.0,0.0,0.0,0.0,0.0,0.0,0.0,0.0,0.0,0.0,0.0,0.0,0.0,0.0,0.0,0.0,0.0,0.0,0.0,0.0,0.0,0.0,0.0,0.0,0.0,0.0,0.0,0.0,0.0,0.0,0.0,0.0,0.0,0.0,0.0,0.0,0.0,0.0,0.0,0.0,0.0,0.0,0.0,0.0,0.0,0.0,0.0,0.0,0.0,0.0,0.0,0.0,0.0,0.0,0.0,0.0,0.0,0.0,0.0,0.0,0.0,0.0,0.0,0.0,-2.9731,-3.0456,-3.0428,0.0,-2.9222,0.0,0.0,0.0,0.0,0.0,0.0,0.0,0.0,0.0,0.0,0.0,0.0,0.0,0.0,0.0,0.0,0.0,0.0,0.0,0.0,0.0,0.0,0.0,0.0,0.0,0.0,0.0,0.0,0.0,0.0,0.0,0.0,0.0,0.0,0.0,0.0,0.0,0.0,0.0,0.0,0.0,0.0,0.0,0.0,0.0,0.0,0.0,0.0,0.0,0.0,0.0,0.0,0.0,0.0,0.0,0.0,0.0,0.0,0.0,0.0,0.0,0.0,0.0,0.0,0.0,0.0,0.0,0.0,0.0,0.0,0.0,0.0,0.0,0.0,0.0,0.0,0.0,0.0,0.0,0.0,0.0,0.0,0.0,0.0,0.0,0.0,0.0,0.0,0.0,0.0,0.0,0.0,0.0,0.0,0.0,0.0,0.0,0.0,0.0,0.0,0.0,0.0,0.0,0.0,0.0,0.0,0.0,0.0,0.0,0.0,-3.1105,-3.1292,-3.1202,-3.0279,0.0,0.0,0.0,0.0,0.0,0.0,0.0,0.0,0.0,0.0,0.0,0.0,0.0,0.0,0.0,0.0,0.0,0.0,0.0,0.0,0.0,0.0,0.0,0.0,0.0,0.0,0.0,0.0,0.0,0.0,0.0,0.0,0.0,0.0,0.0,0.0,0.0,0.0,0.0,0.0,0.0,0.0,0.0,0.0,0.0,0.0,0.0,0.0,0.0,0.0,0.0,0.0,0.0,0.0,0.0,0.0,0.0,0.0,0.0,0.0,0.0,0.0,0.0,0.0,0.0,0.0,0.0,0.0,0.0,0.0,0.0,0.0,0.0,0.0,0.0,0.0,0.0,0.0,0.0,0.0,0.0,0.0,0.0,0.0,0.0,0.0,0.0,0.0,0.0,0.0,0.0,0.0,0.0,0.0,0.0,0.0,0.0,0.0,0.0,0.0,0.0,0.0,0.0,0.0,0.0,0.0,0.0,0.0,0.0,0.0,-3.1714,-3.2187,-3.2169,-3.1795,-3.0441,-2.7948,0.0,0.0,0.0,0.0,0.0,0.0,0.0,0.0,0.0,0.0,0.0,0.0,0.0,0.0,0.0,0.0,0.0,0.0,0.0,0.0,0.0,0.0,0.0,0.0,0.0,0.0,0.0,0.0,0.0,0.0,0.0,0.0,0.0,0.0,0.0,0.0,0.0,0.0,0.0,0.0,0.0,0.0,0.0,0.0,0.0,0.0,0.0,0.0,0.0,0.0,0.0,0.0,0.0,0.0,0.0,0.0,0.0,0.0,0.0,0.0,0.0,0.0,0.0,0.0,0.0,0.0,0.0,0.0,0.0,0.0,0.0,0.0,0.0,0.0,0.0,0.0,0.0,0.0,0.0,0.0,0.0,0.0,0.0,0.0,0.0,0.0,0.0,0.0,0.0,0.0,0.0,0.0,0.0,0.0,0.0,0.0,0.0,0.0,0.0,0.0,0.0,0.0,0.0,0.0,0.0,0.0,0.0,0.0,0.0,-3.2824,-3.2638,-3.3125,-3.2119,-3.0425,0.0,0.0,0.0,0.0,0.0,0.0,0.0,0.0,0.0,0.0,0.0,0.0,0.0,0.0,0.0,0.0,0.0,0.0,0.0,0.0,0.0,0.0,0.0,0.0,0.0,0.0,0.0,0.0,0.0,0.0,0.0,0.0,0.0,0.0,0.0,0.0,0.0,0.0,0.0,0.0,0.0,0.0,0.0,0.0,0.0,0.0,0.0,0.0,0.0,0.0,0.0,0.0,0.0,0.0,0.0,0.0,0.0,0.0,0.0,0.0,0.0,0.0,0.0,0.0,0.0,0.0,0.0,0.0,0.0,0.0,0.0,0.0,0.0,0.0,0.0,0.0,0.0,0.0,0.0,0.0,0.0,0.0,0.0,0.0,0.0,0.0,0.0,0.0,0.0,0.0,0.0,0.0,0.0,0.0,0.0,0.0,0.0,0.0,0.0,0.0,0.0,0.0,0.0,0.0,0.0,0.0,0.0,0.0,0.0,-3.1439,-3.1944,-3.3057,-3.4652,-3.2737,-3.0669,0.0,0.0,0.0,0.0,0.0,0.0,0.0,0.0,0.0,0.0,0.0,0.0,0.0,0.0,0.0,0.0,0.0,0.0,0.0,0.0,0.0,0.0,0.0,0.0,0.0,0.0,0.0,0.0,0.0,0.0,0.0,0.0,0.0,0.0,0.0,0.0,0.0,0.0,0.0,0.0,0.0,0.0,0.0,0.0,0.0,0.0,0.0,0.0,0.0,0.0,0.0,0.0,0.0,0.0,0.0,0.0,0.0,0.0,0.0,0.0,0.0,0.0,0.0,0.0,0.0,0.0,0.0,0.0,0.0,0.0,0.0,0.0,0.0,0.0,0.0,0.0,0.0,0.0,0.0,0.0,0.0,0.0,0.0,0.0,0.0,0.0,0.0,0.0,0.0,0.0,0.0,0.0,0.0,0.0,0.0,0.0,0.0,0.0,0.0,0.0,0.0,0.0,0.0,0.0,0.0,0.0,0.0,0.0,0.0,-3.1823,0.0,-3.4329,0.0,-3.3173,-3.0946,0.0,0.0,0.0,0.0,0.0,0.0,0.0,0.0,0.0,0.0,0.0,0.0,0.0,0.0,0.0,0.0,0.0,0.0,0.0,0.0,0.0,0.0,0.0,0.0,0.0,0.0,0.0,0.0,0.0,0.0,0.0,0.0,0.0,0.0,0.0,0.0,0.0,0.0,0.0,0.0,0.0,0.0,0.0,0.0,0.0,0.0,0.0,0.0,0.0,0.0,0.0,0.0,0.0,0.0,0.0,0.0,0.0,0.0,0.0,0.0,0.0,0.0,0.0,0.0,0.0,0.0,0.0,0.0,0.0,0.0,0.0,0.0,0.0,0.0,0.0,0.0,0.0,0.0,0.0,0.0,0.0,0.0,0.0,0.0,0.0,0.0,0.0,0.0,0.0,0.0,0.0,0.0,0.0,0.0,0.0,0.0,0.0,0.0,0.0,0.0,0.0,0.0,0.0,0.0,0.0,0.0,0.0,0.0,-3.1994,-3.5294,-3.6554,-3.6329,-3.4878,-3.3489,-3.1206,0.0,0.0,0.0,0.0,0.0,0.0,0.0,0.0,0.0,0.0,0.0,0.0,0.0,0.0,0.0,0.0,0.0,0.0,0.0,0.0,0.0,0.0,0.0,0.0,0.0,0.0,0.0,0.0,0.0,0.0,0.0,0.0,0.0,0.0,0.0,0.0,0.0,0.0,0.0,0.0,0.0,0.0,0.0,0.0,0.0,0.0,0.0,0.0,0.0,0.0,0.0,0.0,0.0,0.0,0.0,0.0,0.0,0.0,0.0,0.0,0.0,0.0,0.0,0.0,0.0,0.0,0.0,0.0,0.0,0.0,0.0,0.0,0.0,0.0,0.0,0.0,0.0,0.0,0.0,0.0,0.0,0.0,0.0,0.0,0.0,0.0,0.0,0.0,0.0,0.0,0.0,0.0,0.0,0.0,0.0,0.0,0.0,0.0,0.0,0.0,0.0,0.0,0.0,0.0,0.0,0.0,0.0,0.0,0.0,-3.4558,-3.4725,-3.5305,-3.6235,-3.3515,-3.1432,0.0,0.0,0.0,0.0,0.0,0.0,0.0,0.0,0.0,0.0,0.0,0.0,0.0,0.0,0.0,0.0,0.0,0.0,0.0,0.0,0.0,0.0,0.0,0.0,0.0,0.0,0.0,0.0,0.0,0.0,0.0,0.0,0.0,0.0,0.0,0.0,0.0,0.0,0.0,0.0,0.0,0.0,0.0,0.0,0.0,0.0,0.0,0.0,0.0,0.0,0.0,0.0,0.0,0.0,0.0,0.0,0.0,0.0,0.0,0.0,0.0,0.0,0.0,0.0,0.0,0.0,0.0,0.0,0.0,0.0,0.0,0.0,0.0,0.0,0.0,0.0,0.0,0.0,0.0,0.0,0.0,0.0,0.0,0.0,0.0,0.0,0.0,0.0,0.0,0.0,0.0,0.0,0.0,0.0,0.0,0.0,0.0,0.0,0.0,0.0,0.0,0.0,0.0,0.0,0.0,0.0,0.0,0.0,0.0,-3.5615,-3.609,-3.6742,-3.7608,-3.4899,-3.2631,-3.0993,0.0,0.0,0.0,0.0,0.0,0.0,0.0,0.0,0.0,0.0,0.0,0.0,0.0,0.0,0.0,0.0,0.0,0.0,0.0,0.0,0.0,0.0,0.0,0.0,0.0,0.0,0.0,0.0,0.0,0.0,0.0,0.0,0.0,0.0,0.0,0.0,0.0,0.0,0.0,0.0,0.0,0.0,0.0,0.0,0.0,0.0,0.0,0.0,0.0,0.0,0.0,0.0,0.0,0.0,0.0,0.0,0.0,0.0,0.0,0.0,0.0,0.0,0.0,0.0,0.0,0.0,0.0,0.0,0.0,0.0,0.0,0.0,0.0,0.0,0.0,0.0,0.0,0.0,0.0,0.0,0.0,0.0,0.0,0.0,0.0,0.0,0.0,0.0,0.0,0.0,0.0,0.0,0.0,0.0,0.0,0.0,0.0,0.0,0.0,0.0,0.0,0.0,0.0,0.0,0.0,0.0,0.0,0.0,-3.8166,-4.0117,-4.0329,-3.875,-3.7293,-3.4637,0.0,0.0,0.0,0.0,0.0,0.0,0.0,0.0,0.0,0.0,0.0,0.0,0.0,0.0,0.0,0.0,0.0,0.0,0.0,0.0,0.0,0.0,0.0,0.0,0.0,0.0,0.0,0.0,0.0,0.0,0.0,0.0,0.0,0.0,0.0,0.0,0.0,0.0,0.0,0.0,0.0,0.0,0.0,0.0,0.0,0.0,0.0,0.0,0.0,0.0,0.0,0.0,0.0,0.0,0.0,0.0,0.0,0.0,0.0,0.0,0.0,0.0,0.0,0.0,0.0,0.0,0.0,0.0,0.0,0.0,0.0,0.0,0.0,0.0,0.0,0.0,0.0,0.0,0.0,0.0,0.0,0.0,0.0,0.0,0.0,0.0,0.0,0.0,0.0,0.0,0.0,0.0,0.0,0.0,0.0,0.0,0.0,0.0,0.0,0.0,0.0,0.0,0.0,0.0,0.0,0.0,0.0,0.0,0.0,-4.0442,-4.2039,-4.2312,-4.1151,-3.8697,-3.6145,0.0,0.0,0.0,0.0,0.0,0.0,0.0,0.0,0.0,0.0,0.0,0.0,0.0,0.0,0.0,0.0,0.0,0.0,0.0,0.0,0.0,0.0,0.0,0.0,0.0,0.0,0.0,0.0,0.0,0.0,0.0,0.0,0.0,0.0,0.0,0.0,0.0,0.0,0.0,0.0,0.0,0.0,0.0,0.0,0.0,0.0,0.0,0.0,0.0,0.0,0.0,0.0,0.0,0.0,0.0,0.0,0.0,0.0,0.0,0.0,0.0,0.0,0.0,0.0,0.0,0.0,0.0,0.0,0.0,0.0,0.0,0.0,0.0,0.0,0.0,0.0,0.0,0.0,0.0,0.0,0.0,0.0,0.0,0.0,0.0,0.0,0.0,0.0,0.0,0.0,0.0,0.0,0.0,0.0,0.0,0.0,0.0,0.0,0.0,0.0,0.0,0.0,0.0,0.0,0.0,0.0,0.0,0.0,-3.9125,-4.0845,-4.327,-4.4046,-4.2983,-3.99,-3.7092,0.0,0.0,0.0,0.0,0.0,0.0,0.0,0.0,0.0,0.0,0.0,0.0,0.0,0.0,0.0,0.0,0.0,0.0,0.0,0.0,0.0,0.0,0.0,0.0,0.0,0.0,0.0,0.0,0.0,0.0,0.0,0.0,0.0,0.0,0.0,0.0,0.0,0.0,0.0,0.0,0.0,0.0,0.0,0.0,0.0,0.0,0.0,0.0,0.0,0.0,0.0,0.0,0.0,0.0,0.0,0.0,0.0,0.0,0.0,0.0,0.0,0.0,0.0,0.0,0.0,0.0,0.0,0.0,0.0,0.0,0.0,0.0,0.0,0.0,0.0,0.0,0.0,0.0,0.0,0.0,0.0,0.0,0.0,0.0,0.0,0.0,0.0,0.0,0.0,0.0,0.0,0.0,0.0,0.0,0.0,0.0,0.0,0.0,0.0,0.0,0.0,0.0,0.0,0.0,0.0,0.0,0.0,0.0,-4.0537,-4.0367,-4.395,-4.5364,-4.4222,-4.0904,-3.7724,0.0,0.0,0.0,0.0,0.0,0.0,0.0,0.0,0.0,0.0,0.0,0.0,0.0,0.0,0.0,0.0,0.0,0.0,0.0,0.0,0.0,0.0,0.0,0.0,0.0,0.0,0.0,0.0,0.0,0.0,0.0,0.0,0.0,0.0,0.0,0.0,0.0,0.0,0.0,0.0,0.0,0.0,0.0,0.0,0.0,0.0,0.0,0.0,0.0,0.0,0.0,0.0,0.0,0.0,0.0,0.0,0.0,0.0,0.0,0.0,0.0,0.0,0.0,0.0,0.0,0.0,0.0,0.0,0.0,0.0,0.0,0.0,0.0,0.0,0.0,0.0,0.0,0.0,0.0,0.0,0.0,0.0,0.0,0.0,0.0,0.0,0.0,0.0,0.0,0.0,0.0,0.0,0.0,0.0,0.0,0.0,0.0,0.0,0.0,0.0,0.0,0.0,0.0,0.0,0.0,0.0,0.0,0.0,-4.1532,-4.1783,-4.3856,-4.4885,-4.467,-4.1287,-3.8421,0.0,0.0,0.0,0.0,0.0,0.0,0.0,0.0,0.0,0.0,0.0,0.0,0.0,0.0,0.0,0.0,0.0,0.0,0.0,0.0,0.0,0.0,0.0,0.0,0.0,0.0,0.0,0.0,0.0,0.0,0.0,0.0,0.0,0.0,0.0,0.0,0.0,0.0,0.0,0.0,0.0,0.0,0.0,0.0,0.0,0.0,0.0,0.0,-3.9692,0.0,0.0,0.0,0.0,0.0,0.0,0.0,0.0,0.0,0.0,0.0,0.0,0.0,0.0,0.0,0.0,0.0,0.0,0.0,0.0,0.0,0.0,0.0,0.0,0.0,0.0,0.0,0.0,0.0,0.0,0.0,0.0,0.0,0.0,0.0,0.0,0.0,0.0,0.0,0.0,0.0,0.0,0.0,0.0,0.0,0.0,0.0,0.0,0.0,0.0,0.0,0.0,0.0,0.0,0.0,0.0,0.0,0.0,0.0,-4.1857,-4.217,-4.3794,-4.4538,-4.4148,-4.1562,-3.8999,0.0,0.0,0.0,0.0,0.0,0.0,0.0,0.0,0.0,0.0,0.0,0.0,0.0,0.0,0.0,0.0,0.0,0.0,0.0,0.0,0.0,0.0,0.0,0.0,0.0,0.0,0.0,0.0,0.0,0.0,0.0,0.0,0.0,0.0,0.0,0.0,0.0,0.0,0.0,0.0,0.0,0.0,0.0,0.0,0.0,0.0,0.0,0.0,0.0,0.0,0.0,0.0,0.0,0.0,0.0,0.0,0.0,0.0,0.0,0.0,0.0,0.0,0.0,0.0,0.0,0.0,0.0,0.0,0.0,0.0,0.0,0.0,0.0,0.0,0.0,0.0,0.0,0.0,0.0,0.0,0.0,0.0,0.0,0.0,0.0,0.0,0.0,0.0,0.0,0.0,0.0,0.0,0.0,0.0,0.0,0.0,0.0,0.0,0.0,0.0,0.0,0.0,0.0,0.0,0.0,0.0,0.0,-4.0602,-4.1958,-4.2655,-4.3879,-4.4213,-4.358,-4.1765,-3.9398,-3.6498,0.0,0.0,0.0,0.0,0.0,0.0,0.0,0.0,0.0,0.0,0.0,0.0,0.0,0.0,0.0,0.0,0.0,0.0,0.0,0.0,0.0,0.0,0.0,0.0,0.0,0.0,0.0,0.0,0.0,0.0,0.0,0.0,0.0,0.0,0.0,0.0,0.0,0.0,-3.6882,-3.8956,0.0,0.0,0.0,0.0,0.0,0.0,0.0,0.0,-4.3754,0.0,0.0,0.0,0.0,0.0,0.0,0.0,0.0,0.0,0.0,0.0,0.0,0.0,0.0,0.0,0.0,0.0,0.0,0.0,0.0,0.0,0.0,0.0,0.0,0.0,0.0,0.0,0.0,0.0,0.0,0.0,0.0,0.0,0.0,0.0,0.0,0.0,0.0,0.0,0.0,0.0,0.0,0.0,0.0,0.0,0.0,0.0,0.0,0.0,0.0,0.0,0.0,0.0,0.0,0.0,0.0,-4.1987,-4.1502,-4.245,-4.5009,-4.4439,-4.3912,-4.3494,-4.1886,-3.9314,-3.5762,0.0,0.0,0.0,0.0,0.0,0.0,0.0,0.0,0.0,0.0,0.0,0.0,0.0,0.0,0.0,0.0,0.0,0.0,0.0,0.0,0.0,0.0,0.0,0.0,0.0,0.0,0.0,0.0,0.0,0.0,0.0,0.0,0.0,0.0,0.0,0.0,0.0,0.0,0.0,-3.9781,-4.1092,0.0,0.0,0.0,0.0,0.0,0.0,0.0,0.0,-4.5425,0.0,0.0,0.0,0.0,0.0,0.0,0.0,0.0,0.0,0.0,0.0,0.0,0.0,0.0,0.0,0.0,0.0,0.0,0.0,0.0,0.0,0.0,0.0,0.0,0.0,0.0,0.0,0.0,0.0,0.0,0.0,0.0,0.0,0.0,0.0,0.0,0.0,0.0,0.0,0.0,0.0,0.0,0.0,0.0,0.0,0.0,0.0,0.0,0.0,0.0,0.0,0.0,0.0,0.0,0.0,-4.135,-4.2104,-4.3245,-4.4941,-4.4345,-4.3654,-4.289,-4.1332,-3.869,0.0,0.0,0.0,0.0,0.0,0.0,0.0,0.0,0.0,0.0,0.0,0.0,0.0,0.0,0.0,0.0,0.0,0.0,0.0,0.0,0.0,0.0,0.0,0.0,0.0,0.0,0.0,0.0,0.0,0.0,0.0,0.0,0.0,0.0,0.0,0.0,0.0,0.0,0.0,0.0,-4.1515,-4.2928,-4.4423,0.0,0.0,0.0,0.0,0.0,0.0,-4.5865,-4.6084,0.0,0.0,0.0,0.0,0.0,0.0,0.0,0.0,0.0,0.0,0.0,0.0,0.0,0.0,0.0,0.0,0.0,0.0,0.0,0.0,0.0,0.0,0.0,0.0,0.0,0.0,0.0,0.0,0.0,0.0,0.0,0.0,0.0,0.0,0.0,0.0,0.0,0.0,0.0,0.0,0.0,0.0,0.0,0.0,0.0,0.0,0.0,0.0,0.0,0.0,0.0,0.0,0.0,0.0,0.0,-4.0158,-4.2067,-4.336,-4.4013,-4.3636,-4.2971,-4.2064,-4.0341,-3.776,0.0,0.0,0.0,0.0,0.0,0.0,0.0,0.0,0.0,0.0,0.0,0.0,0.0,0.0,0.0,0.0,0.0,0.0,0.0,0.0,0.0,0.0,0.0,0.0,0.0,0.0,0.0,0.0,0.0,0.0,0.0,0.0,0.0,0.0,0.0,0.0,0.0,0.0,0.0,0.0,0.0,-4.4882,-4.5655,-4.5835,0.0,0.0,0.0,0.0,-4.614,-4.636,0.0,0.0,0.0,0.0,0.0,0.0,0.0,0.0,0.0,0.0,0.0,0.0,0.0,0.0,0.0,0.0,0.0,0.0,0.0,0.0,0.0,0.0,0.0,0.0,0.0,0.0,0.0,0.0,0.0,0.0,0.0,0.0,0.0,0.0,0.0,0.0,0.0,0.0,0.0,0.0,0.0,0.0,0.0,0.0,0.0,0.0,0.0,0.0,0.0,0.0,0.0,0.0,0.0,0.0,0.0,0.0,-3.984,-4.0657,-4.1681,-4.2865,-4.1976,-4.1383,-4.1205,-3.8982,-3.6666,0.0,0.0,0.0,0.0,0.0,0.0,0.0,0.0,0.0,0.0,0.0,0.0,0.0,0.0,0.0,0.0,0.0,0.0,0.0,0.0,0.0,0.0,0.0,0.0,0.0,0.0,0.0,0.0,0.0,0.0,0.0,0.0,0.0,0.0,0.0,0.0,0.0,0.0,0.0,0.0,0.0,-4.6019,-4.7556,-4.6692,-4.5865,0.0,0.0,-4.6947,-4.6947,-4.8099,0.0,0.0,0.0,0.0,0.0,0.0,0.0,0.0,0.0,0.0,0.0,0.0,0.0,0.0,0.0,0.0,0.0,0.0,0.0,0.0,0.0,0.0,0.0,0.0,0.0,0.0,0.0,0.0,0.0,0.0,0.0,0.0,0.0,0.0,0.0,0.0,0.0,0.0,0.0,0.0,0.0,0.0,0.0,0.0,0.0,0.0,0.0,0.0,0.0,0.0,0.0,0.0,0.0,0.0,0.0,-3.6882,-3.9113,-4.0609,-4.2057,-4.3385,-4.2373,-4.1637,-4.1393,-3.8237,-3.5677,0.0,0.0,0.0,0.0,0.0,0.0,0.0,0.0,0.0,0.0,0.0,0.0,0.0,0.0,0.0,0.0,0.0,0.0,0.0,0.0,0.0,0.0,0.0,0.0,0.0,0.0,0.0,0.0,0.0,0.0,0.0,0.0,0.0,0.0,0.0,0.0,0.0,0.0,0.0,0.0,0.0,0.0,-4.6967,-4.6812,0.0,0.0,0.0,-4.7443,-4.6562,0.0,0.0,0.0,0.0,0.0,0.0,0.0,0.0,0.0,0.0,0.0,0.0,0.0,0.0,0.0,0.0,0.0,0.0,0.0,0.0,0.0,0.0,0.0,0.0,0.0,0.0,0.0,0.0,0.0,0.0,0.0,0.0,0.0,0.0,0.0,0.0,0.0,0.0,0.0,0.0,0.0,0.0,0.0,0.0,0.0,0.0,0.0,0.0,0.0,0.0,0.0,0.0,0.0,0.0,0.0,0.0,0.0,-3.7822,-4.0221,-4.1978,-4.2912,-4.2159,-4.1495,-4.0981,-3.7825,0.0,0.0,0.0,0.0,0.0,0.0,0.0,0.0,0.0,0.0,0.0,0.0,0.0,0.0,0.0,0.0,0.0,0.0,0.0,0.0,0.0,0.0,0.0,0.0,0.0,0.0,0.0,-2.7827,0.0,0.0,0.0,0.0,0.0,0.0,0.0,0.0,0.0,0.0,0.0,0.0,0.0,0.0,-4.5945,-4.6628,-4.6946,-4.7168,0.0,0.0,-4.7352,-4.6361,-4.7875,-4.8377,0.0,0.0,0.0,0.0,0.0,0.0,0.0,0.0,0.0,0.0,0.0,0.0,0.0,0.0,0.0,0.0,0.0,0.0,0.0,0.0,0.0,0.0,0.0,0.0,0.0,0.0,0.0,0.0,0.0,0.0,0.0,0.0,0.0,0.0,0.0,0.0,0.0,0.0,0.0,0.0,0.0,0.0,0.0,0.0,0.0,0.0,0.0,0.0,0.0,0.0,0.0,0.0,0.0,0.0,0.0,-3.5727,-3.8765,-4.0337,-4.0202,-4.01,-3.9867,-3.944,-3.779,-3.549,0.0,0.0,0.0,0.0,0.0,0.0,0.0,0.0,0.0,0.0,0.0,0.0,0.0,0.0,0.0,0.0,0.0,0.0,0.0,0.0,0.0,0.0,0.0,0.0,0.0,0.0,0.0,0.0,0.0,0.0,0.0,0.0,0.0,0.0,0.0,0.0,0.0,0.0,0.0,0.0,0.0,-4.7446,-4.7519,-4.7278,-4.7351,0.0,0.0,-4.6287,-4.6929,-4.8239,-4.8375,-4.5986,0.0,0.0,0.0,0.0,0.0,0.0,0.0,0.0,0.0,0.0,0.0,0.0,0.0,0.0,0.0,0.0,0.0,0.0,0.0,0.0,0.0,0.0,0.0,0.0,0.0,0.0,0.0,0.0,0.0,0.0,0.0,0.0,0.0,0.0,0.0,0.0,0.0,0.0,0.0,0.0,0.0,0.0,0.0,0.0,0.0,0.0,0.0,0.0,0.0,0.0,0.0,0.0,0.0,-3.4987,-3.5367,-3.8135,-3.9797,-4.019,-3.9351,-3.8755,-3.8571,-3.6185,-3.4004,0.0,0.0,0.0,0.0,0.0,0.0,0.0,0.0,0.0,0.0,0.0,0.0,0.0,0.0,0.0,0.0,0.0,0.0,0.0,0.0,0.0,0.0,0.0,0.0,0.0,0.0,0.0,0.0,-2.9971,-3.1132,-3.186,0.0,0.0,0.0,0.0,0.0,0.0,0.0,0.0,0.0,0.0,-4.6154,-4.7149,-4.715,0.0,0.0,-4.837,-4.7874,-4.7673,-4.8502,-4.8309,-4.5907,-4.4991,0.0,0.0,0.0,0.0,0.0,0.0,0.0,0.0,0.0,0.0,0.0,0.0,0.0,0.0,0.0,0.0,0.0,0.0,0.0,0.0,0.0,0.0,0.0,0.0,0.0,0.0,0.0,0.0,0.0,0.0,0.0,0.0,0.0,0.0,0.0,0.0,0.0,0.0,0.0,0.0,0.0,0.0,0.0,0.0,0.0,0.0,0.0,0.0,0.0,0.0,0.0,0.0,-3.434,-3.4868,-3.7456,-3.9132,-3.9802,-3.8647,-3.7829,-3.7402,-3.515,-3.3265,0.0,0.0,0.0,0.0,0.0,0.0,0.0,0.0,0.0,0.0,0.0,0.0,0.0,0.0,0.0,0.0,0.0,0.0,0.0,0.0,0.0,0.0,0.0,0.0,0.0,0.0,0.0,0.0,-3.076,-3.1998,-3.2905,0.0,0.0,0.0,0.0,0.0,0.0,0.0,0.0,0.0,0.0,-4.5645,-4.6505,-4.6595,-4.705,-4.842,-4.8324,-4.8101,-4.801,-4.8421,-4.8156,-4.6484,0.0,0.0,0.0,0.0,0.0,0.0,0.0,0.0,0.0,0.0,0.0,0.0,0.0,0.0,0.0,0.0,0.0,0.0,0.0,0.0,0.0,0.0,0.0,0.0,0.0,0.0,0.0,0.0,0.0,0.0,-2.9017,0.0,0.0,0.0,0.0,0.0,0.0,0.0,0.0,0.0,0.0,0.0,0.0,0.0,0.0,0.0,0.0,0.0,0.0,0.0,0.0,0.0,0.0,-3.382,-3.3862,-3.6646,-3.8153,-3.8224,-3.7809,-3.704,-3.5944,-3.508,-3.3737,-3.1818,0.0,0.0,0.0,0.0,0.0,0.0,0.0,0.0,0.0,0.0,0.0,0.0,0.0,0.0,0.0,0.0,0.0,0.0,0.0,0.0,0.0,0.0,0.0,0.0,0.0,0.0,-2.9575,-3.0649,-3.2041,0.0,0.0,0.0,0.0,0.0,0.0,0.0,0.0,0.0,0.0,-4.5276,-4.6478,-4.575,-4.5659,-4.5986,-4.6825,-4.6278,-4.626,-4.7791,-4.7963,-4.7902,0.0,0.0,0.0,0.0,0.0,0.0,0.0,0.0,0.0,0.0,0.0,0.0,0.0,0.0,0.0,0.0,0.0,0.0,0.0,0.0,0.0,0.0,0.0,0.0,0.0,0.0,0.0,-3.0546,-2.9968,0.0,0.0,0.0,0.0,0.0,0.0,0.0,0.0,0.0,0.0,0.0,-3.3887,-3.4382,0.0,0.0,0.0,0.0,0.0,0.0,0.0,0.0,0.0,0.0,0.0,0.0,-3.3455,-3.3568,-3.577,-3.6844,-3.6576,-3.5456,-3.4568,-3.3914,-3.3166,-3.2,-3.0317,0.0,0.0,0.0,0.0,0.0,0.0,0.0,0.0,0.0,0.0,0.0,0.0,0.0,0.0,0.0,0.0,0.0,0.0,0.0,0.0,0.0,0.0,0.0,0.0,0.0,-3.0854,0.0,0.0,0.0,0.0,0.0,0.0,0.0,0.0,0.0,0.0,0.0,-4.3231,-4.3944,-4.471,-4.5293,-4.5567,-4.5564,-4.6198,0.0,0.0,0.0,0.0,0.0,0.0,0.0,0.0,0.0,0.0,0.0,0.0,0.0,0.0,-4.7083,-4.5236,-4.5307,-4.5363,-4.4331,0.0,0.0,0.0,0.0,0.0,0.0,0.0,0.0,0.0,0.0,0.0,0.0,0.0,0.0,-3.2545,0.0,-3.1384,0.0,0.0,0.0,0.0,0.0,0.0,0.0,0.0,-3.3913,-3.4524,-3.4348,-3.4821,-3.5034,0.0,-3.5338,-3.4503,0.0,0.0,0.0,0.0,0.0,0.0,0.0,0.0,-3.2961,-3.3183,-3.49,-3.5686,-3.5357,-3.4017,-3.3047,-3.2526,-3.18,-3.0817,-2.9558,-2.8647,-2.7842,0.0,0.0,0.0,0.0,0.0,0.0,0.0,0.0,0.0,0.0,0.0,0.0,0.0,0.0,0.0,0.0,0.0,0.0,0.0,0.0,0.0,0.0,0.0,-3.1581,0.0,0.0,0.0,0.0,0.0,0.0,0.0,0.0,0.0,-4.1467,-4.2831,-4.4145,-4.5417,-4.5307,-4.5216,-4.5471,0.0,0.0,0.0,0.0,0.0,0.0,0.0,-4.7446,-4.7699,-4.7554,-4.7916,-4.9474,-4.9945,-5.0112,-5.0112,0.0,0.0,-4.8079,-4.7971,-4.788,-4.7083,-4.712,-4.6721,-4.4892,-4.4928,-4.4983,0.0,0.0,0.0,0.0,0.0,0.0,0.0,0.0,-3.4862,-3.5073,0.0,-3.3398,0.0,0.0,0.0,0.0,0.0,0.0,0.0,0.0,-3.4537,-3.5198,-3.4132,-3.4115,-3.4491,-3.5206,-3.5294,-3.5241,-3.5116,-3.5112,0.0,0.0,0.0,0.0,0.0,0.0,-3.2334,-3.2797,-3.4023,-3.4654,-3.4618,-3.3477,-3.2524,-3.1817,-3.1076,-3.0299,-2.9489,-2.8407,-2.7573,-2.7088,-2.6657,0.0,0.0,0.0,0.0,0.0,0.0,0.0,0.0,0.0,0.0,0.0,0.0,0.0,0.0,0.0,0.0,0.0,0.0,0.0,0.0,-3.2119,0.0,0.0,0.0,0.0,0.0,0.0,0.0,0.0,0.0,0.0,-4.294,-4.3795,-4.5083,-4.7334,0.0,0.0,0.0,0.0,-4.5001,-4.4367,-4.4856,-4.5671,-4.6504,-4.788,-4.9094,-4.9854,0.0,0.0,-5.1267,-5.0673,-5.0238,-5.022,-5.0796,-5.1054,-5.0234,-4.9492,-4.8782,-4.8043,-4.7301,-4.6377,-4.5635,-4.5562,-4.5472,-3.8841,0.0,0.0,0.0,0.0,-3.6204,-3.6067,-3.5908,-3.6589,-3.6202,-3.504,-3.4607,0.0,0.0,0.0,0.0,0.0,0.0,-3.2547,-3.3362,-3.4189,-3.4775,-3.5276,-3.5294,-3.5514,-3.5976,-3.6327,-3.6441,-3.6404,-3.6701,-3.5004,-3.1488,0.0,0.0,0.0,0.0,-3.2239,-3.2403,-3.305,-3.3422,-3.3405,-3.2582,-3.2007,-3.18,-3.0787,-2.9907,-2.9174,-2.8268,-2.7331,-2.6381,-2.6453,0.0,0.0,0.0,0.0,0.0,0.0,0.0,0.0,0.0,0.0,0.0,0.0,0.0,0.0,0.0,0.0,0.0,0.0,0.0,-3.0612,-3.1798,-3.2835,0.0,0.0,0.0,0.0,0.0,0.0,0.0,0.0,0.0,-4.343,-4.422,-4.4962,0.0,0.0,-4.4494,-4.3679,-4.4077,-4.4765,-4.5671,0.0,0.0,0.0,-4.8134,-4.8312,-4.913,-5.0379,-5.1307,-5.1307,-5.1574,-5.181,-5.1774,-5.152,-5.1194,-5.1013,-5.0778,-5.0488,-5.0234,-4.9166,-4.8185,-4.7895,-4.7446,-4.6993,-4.0355,-3.9674,-3.8321,-3.7622,-3.7456,-3.7518,-3.7207,-3.6726,-3.7414,-3.7112,-3.606,-3.54,-3.4513,-3.3402,-3.1873,0.0,0.0,0.0,-3.2308,-3.3124,-3.3261,-3.3635,-3.4204,-3.422,-3.4488,-3.4941,-3.5257,-3.5531,-3.5789,-3.6062,-3.4693,-3.1787,0.0,0.0,-2.9955,-3.1125,-3.1847,-3.2056,-3.2307,-3.261,-3.2886,-3.2179,-3.1662,-3.1351,-3.0395,-2.9446,-2.8555,-2.7617,-2.6784,-2.6082,-2.6101,-2.6031,0.0,0.0,0.0,0.0,0.0,0.0,0.0,0.0,0.0,0.0,0.0,-2.8747,-2.8177,0.0,0.0,0.0,-3.0724,-3.1237,-3.1809,-3.3051,0.0,0.0,0.0,0.0,0.0,0.0,0.0,-3.946,-4.1072,-4.2582,-4.3785,-4.432,-4.5009,-4.6259,-4.5441,-4.4638,-4.4366,0.0,-4.5291,-4.5943,-4.6305,-4.6848,-4.779,-4.8098,-4.8456,-4.9238,-5.0162,-5.0818,-5.0832,-5.1253,-5.152,-5.1484,-5.1162,-5.0836,-5.0836,-5.0578,-5.0361,-5.0325,-4.9329,-4.8456,-4.842,-4.8004,-4.7699,-4.0852,-4.0437,-3.8398,-3.7577,-3.7658,-3.8006,-3.765,-3.6904,-3.7593,-3.7739,-3.7309,-3.5883,-3.4978,-3.4409,-3.1984,0.0,-3.1818,-3.2126,-3.2091,-3.1801,-3.2126,-3.2109,-3.1801,-3.1817,-3.2145,-3.2835,-3.28,-3.3266,-3.4096,-3.4061,-3.3337,-3.206,-3.3213,-3.2737,-3.0715,-3.0906,-3.1289,-3.1697,-3.1765,-3.2162,-3.2869,-3.2231,-3.1507,-3.0713,-2.9903,-2.8939,-2.7825,-2.6699,-2.6087,-2.6034,-2.5682,-2.5591,-2.5906,0.0,0.0,0.0,0.0,0.0,0.0,0.0,0.0,0.0,0.0,0.0,0.0,0.0,0.0,0.0,-3.3313,0.0,-3.4219,-3.5228,0.0,0.0,0.0,-3.7574,-3.9089,-3.9868,-4.0544,-4.1221,0.0,0.0,-4.3984,0.0,-4.5066,-4.7548,-4.6567,-4.5801,-4.623,-4.6256,-4.6171,-4.5482,-4.6085,-4.6574,-4.6866,-4.7932,-4.9094,-4.9854,-5.0112,-5.0148,-5.0166,-5.0184,-5.0148,-5.022,-5.0075,-4.9981,-5.0021,-4.9383,-4.8782,-4.8749,-4.8224,-4.7717,-4.7606,-4.7551,-4.75,-3.9203,-3.8909,-3.8198,-3.8209,-3.8648,-3.8024,-3.747,-3.7104,-3.7752,-3.7279,-3.5978,-3.5609,-3.4655,-3.3282,-3.2667,-3.2162,-3.18,-3.1874,-3.1874,-3.1801,-3.1874,-3.1874,-3.18,-3.18,-3.1886,-3.2059,-3.2059,-3.2766,-3.4027,-3.3473,-3.33,-3.3509,-3.2728,-3.148,-2.9886,-3.0456,-3.0854,-3.0973,-3.1507,-3.2145,-3.2869,-3.2731,-3.2024,-3.0748,-2.9674,-2.8694,-2.7825,-2.6683,-2.5944,-2.567,-2.5834,-2.5817,-2.5631,-2.5349,0.0,0.0,0.0,0.0,0.0,0.0,0.0,0.0,0.0,-2.9959,-2.8319,0.0,-3.1242,0.0,-3.3223,-3.4627,-3.5205,-3.6034,0.0,0.0,-3.8464,-3.93,-4.1297,-4.1677,-4.1847,-4.2016,-4.2692,-4.3244,-4.3549,-4.3593,-4.4168,-4.5736,-4.5439,-4.4918,-4.4486,-4.5272,-4.5831,-4.5731,-4.6585,-4.7388,-4.737,-4.8221,-4.9108,-4.9945,-5.0093,-5.0112,-5.0112,-5.0112,-5.0112,-5.0075,-4.9582,-4.9238,-4.9126,-4.855,-4.7769,-4.7283,-4.7409,-4.7518,-4.692,-4.6794,-4.6631,-3.7867,-3.6969,-3.6818,-3.6787,-3.6844,-3.6988,-3.6523,-3.5683,-3.6014,-3.5526,-3.4453,-3.4376,-3.4002,-3.3406,-3.2714,-3.2369,-3.2265,-3.1955,-3.18,-3.18,-3.18,-3.18,-3.18,-3.18,-3.18,-3.18,-3.2127,-3.2541,-3.3078,-3.33,-3.3317,-3.3076,-3.2541,-3.1541,-3.0093,-3.0127,-3.0162,-3.0179,-3.1231,-3.2317,-3.3352,-3.2766,-3.1696,-3.0196,-2.8766,-2.7384,-2.6101,-2.5462,-2.4953,-2.458,-2.4777,-2.4865,-2.4778,-2.4377,-2.4665,0.0,0.0,0.0,0.0,0.0,0.0,0.0,0.0,0.0,0.0,0.0,-3.2511,0.0,-3.4709,-3.6045,-3.6129,-3.7415,-3.8734,-3.9868,-4.0578,-4.1593,-4.3149,-4.3328,-4.3328,-4.3345,-4.3386,-4.3403,-4.3403,-4.3088,-4.3139,-4.3877,-4.3838,-4.3954,-4.4512,-4.4983,-4.5279,-4.553,-4.6158,-4.6631,-4.6631,-4.7319,-4.7971,-4.8405,-4.8804,-4.9021,-4.9021,-4.8731,-4.8496,-4.8442,-4.7844,-4.7301,-4.7283,-4.6975,-4.6468,-4.6196,-4.6323,-4.6432,-4.6069,-4.5979,-4.5798,-3.6764,-3.5256,-3.5204,-3.4759,-3.4121,-3.5525,-3.5118,-3.349,-3.349,-3.3283,-3.2944,-3.2827,-3.3181,-3.3734,-3.2403,-3.2145,-3.2714,-3.2076,-3.18,-3.18,-3.18,-3.1748,-3.1662,-3.1662,-3.1662,-3.1697,-3.2317,-3.2386,-3.199,-3.3197,-3.311,-3.1869,-3.2352,-3.1921,-3.0575,-2.9851,-2.9558,-2.9679,-3.1076,-3.2438,-3.3751,-3.2386,-3.0869,-2.9265,-2.764,-2.5915,-2.4066,-2.3901,-2.3769,-2.3644,-2.3643,-2.3796,-2.4215,-2.3658,-2.4172,0.0,-2.6108,0.0,0.0,0.0,0.0,0.0,0.0,0.0,0.0,-3.3677,-3.415,-3.4861,-3.6823,-3.7821,-3.7286,-3.9056,-4.0544,-4.1271,-4.2506,-4.3589,-4.4316,-4.4361,-4.4327,-4.4327,-4.369,-4.3267,-4.3206,-4.2675,-4.2303,-4.2424,-4.2315,-4.2894,-4.4623,-4.4716,-4.4686,-4.5114,-4.5251,-4.549,-4.5508,-4.5961,-4.6395,-4.645,-4.6957,-4.7373,-4.7391,-4.6848,-4.6377,-4.6341,-4.5924,-4.5436,-4.5309,-4.5363,-4.5309,-4.5182,-4.5182,-4.52,-4.5146,-4.5146,-4.511,-3.605,-3.5488,-3.5288,-3.4776,-3.4116,-3.4402,-3.3551,-3.193,-3.193,-3.1784,-3.1533,-3.202,-3.2242,-3.2215,-3.1921,-3.1869,-3.2007,-3.1852,-3.18,-3.18,-3.18,-3.1472,-3.0938,-3.0903,-3.0904,-3.092,-3.1041,-3.1662,-3.2697,-3.2386,-3.2076,-3.1783,-3.1334,-3.0644,-2.9782,0.0,0.0,0.0,-3.1351,-3.1938,-3.2196,-3.137,-2.9903,-2.7816,-2.7127,0.0,-2.4464,-2.3885,-2.3964,-2.4727,-2.4777,0.0,0.0,0.0,0.0,0.0,0.0,0.0,0.0,0.0,0.0,0.0,-3.0255,-3.1249,-3.3246,-3.5081,-3.6474,-3.7212,-3.8193,-3.8971,-3.9436,-4.0375,-4.1288,-4.1999,-4.2337,-4.2811,-4.3504,-4.3115,-4.2726,-4.2726,-4.2591,-4.2506,-4.2489,-4.2371,-4.2269,-4.2185,-4.1779,-4.1767,-4.2514,-4.3413,-4.4084,-4.4578,-4.4885,-4.5234,-4.5291,-4.5379,-4.5526,-4.5544,-4.5599,-4.5798,-4.5834,-4.5707,-4.5526,-4.5508,-4.5399,-4.5254,-4.5254,-4.5291,-4.4965,-4.444,-4.4295,-4.4331,-4.4331,-4.4331,-4.4132,-3.5261,0.0,-3.459,-3.3957,0.0,-3.2873,-3.2115,-3.0973,-3.1815,-3.2056,-3.1859,-3.2022,-3.2037,-3.1912,-3.1458,-3.1248,-3.1249,-3.0851,-3.0662,-3.0662,-3.0662,-3.0472,-3.011,-3.011,-3.0317,-3.0714,-3.0714,-3.1283,-3.2283,-3.199,-3.18,-3.18,-3.142,-3.1024,-3.0644,-3.0627,-3.0834,-3.1231,-3.161,-3.2162,-3.2871,-3.1817,-3.0524,-2.9023,0.0,0.0,0.0,0.0,0.0,0.0,0.0,0.0,0.0,0.0,0.0,-2.6617,-2.7237,-2.8015,-2.9002,-2.9489,-3.0098,-3.0969,-3.2255,-3.3597,-3.4979,-3.7151,-3.8589,-3.8962,-3.9326,-3.969,-4.0079,-4.0747,-4.1356,-4.1711,-4.2083,-4.2455,-4.276,-4.254,-4.2303,-4.2252,-4.1982,-4.1762,-4.1745,-4.1433,-4.1247,-4.1213,-4.0925,-4.0849,-4.1333,-4.2073,-4.2837,-4.3269,-4.356,-4.376,-4.3836,-4.4357,-4.4693,-4.4729,-4.5037,-4.5273,-4.5291,-4.4965,-4.4711,-4.4675,-4.4403,-4.4114,-4.4077,-4.3806,-4.3516,-4.3407,-4.2864,-4.2538,-4.2828,-4.3226,-4.3389,-3.4413,-3.3247,-3.3677,-3.3085,-3.1827,-3.1811,-3.1406,-3.086,0.0,0.0,0.0,-3.2248,-3.2161,-3.2056,-3.1288,-3.087,-3.0662,-3.0006,-2.9644,-2.9506,-2.9506,-2.9437,-2.9317,-2.9437,-2.9851,-3.0472,-3.0645,-3.1094,-3.1783,-3.18,-3.18,-3.18,-3.18,-3.18,-3.18,-3.18,-3.18,-3.1783,-3.1662,-3.2214,-3.3404,-3.211,-3.1041,-3.03,-2.8152,-2.6571,-2.5622,-2.4661,-2.4381,-2.496,-2.4158,-2.4031,-2.4682,-2.4423,-2.4815,-2.6053,-2.6983,-2.8248,-2.9951,-3.0424,-3.1135,-3.2287,-3.4253,-3.5859,-3.6914,-3.8792,-3.9977,-4.0096,-4.0113,-4.0096,-4.0113,-4.0612,-4.1068,-4.1204,-4.1627,-4.1914,-4.2049,-4.1991,-4.183,-4.183,-4.1339,-4.1001,-4.0984,-4.0519,-4.0113,-4.0113,-4.0197,-4.0271,-4.0731,-4.1272,-4.1771,-4.2129,-4.2371,-4.2308,-4.2384,-4.3154,-4.3841,-4.3934,-4.4403,-4.4802,-4.4603,-4.4132,-4.3679,-4.3335,-4.2882,-4.2538,-4.2429,-4.2013,-4.1741,-4.2321,-4.147,-4.0691,-4.1343,-4.2013,-4.2393,-3.3403,-3.3208,-3.3102,-3.2936,-3.2723,-3.2723,-3.2636,-3.2493,-3.2003,-3.1679,-3.1535,-3.2222,-3.237,-3.209,-3.1951,-3.1462,-3.0714,-3.0593,-3.0162,0.0,-2.9506,-2.9161,-2.861,-2.9213,-2.9558,-2.973,-3.0386,-3.1058,-3.1731,-3.18,-3.18,-3.18,-3.18,-3.18,-3.18,-3.18,-3.18,-3.1783,-3.1179,-3.0938,-3.1145,-3.03,-2.9489,-2.8731,-2.8135,-2.7063,-2.5672,-2.5246,-2.5063,-2.5078,-2.4944,-2.5243,-2.6063,-2.647,-2.7141,-2.8101,-2.8742,-2.9203,-2.9481,-2.9571,-3.006,-3.1154,-3.3306,-3.552,-3.7567,-3.8599,-3.9436,-4.0011,-4.0079,-4.0113,-4.0113,-4.0214,-4.0527,-4.1035,-4.0713,-4.0671,-4.1255,-4.0874,-4.0519,-4.0519,-4.0333,-4.0299,-4.0316,-4.0163,-4.0045,-4.0096,-4.0113,-4.0254,-4.0631,-4.1208,-4.1481,-4.1652,-4.1931,-4.2157,-4.2274,-4.2649,-4.308,-4.3082,-4.3172,-4.3099,-4.2483,-4.2266,-4.1922,-4.1216,-4.1107,-4.0999,-4.0963,-4.0764,-4.0782,-4.0963,-4.0601,-4.0438,-4.0619,-4.08,-4.0854,-3.3324,-3.3175,-3.2977,-3.265,-3.2222,-3.1778,-3.1847,-3.2222,-3.1836,-3.1862,-3.219,-3.2479,-3.2258,-3.1686,-3.1114,-3.0386,-2.9538,-2.9074,-2.8661,-2.8316,-2.8299,-2.8127,-2.7902,-2.8558,-2.911,-2.9506,-2.9851,-3.0662,-3.1662,-3.1403,-3.1403,-3.1765,-3.18,-3.18,-3.18,-3.18,-3.18,-3.18,-3.1455,-3.1318,-3.1301,-3.0938,-3.0593,-3.0231,-2.9712,-2.911,-2.8391,-2.7657,-2.7289,-2.7379,-2.6846,-2.6763,-2.729,-2.7421,-2.768,-2.8101,-2.8594,-2.8833,-2.8849,-2.9335,-2.9979,-3.0859,-3.24,-3.4066,-3.591,-3.7855,-3.914,-3.9486,-3.9859,-4.0113,-4.0113,-4.0113,-4.0248,-4.0561,-4.0299,-4.0248,-4.0502,-4.035,-4.0113,-4.0113,-4.0113,-4.0113,-4.0113,-3.9757,-3.9706,-3.9994,-4.0113,-4.0043,-3.9873,-4.0027,-4.0522,-4.1305,-4.1678,-4.1909,-4.2157,-4.2595,-4.2681,-4.2339,-4.2248,-4.1904,-4.1216,-4.1053,-4.089,-4.0601,-4.0474,-4.0492,-4.0456,-4.0148,-4.0111,-4.0365,-3.9713,-3.9478,-3.9713,-3.9586,-3.955,-3.3327,-3.3096,-3.2782,-3.2168,-3.1403,-3.0779,-3.0868,-3.1403,-3.1421,-3.1778,-3.2297,-3.2366,-3.2019,-3.1336,-3.0336,-2.9439,-2.8595,-2.81,-2.7674,-2.7332,-2.7454,-2.754,-2.7627,-2.8299,-2.9023,-2.973,-2.9937,-3.0644,-3.161,-3.1232,-3.1127,-3.1524,-3.1714,-3.1714,-3.1577,-3.1714,-3.18,-3.18,-3.18,-3.18,-3.18,-3.18,-3.18,-3.1765,-3.114,-3.0725,-3.0501,-2.9593,-2.9047,-2.8893,-2.8131,-2.7724,-2.781,-2.7776,-2.7718,-2.7735,-2.8154,-2.842,-2.846,-2.9175,-2.9903,-3.0464,-3.1663,-3.2875,-3.4139,-3.6793,-3.8497,-3.8606,-3.9283,-3.9774,-3.9639,-3.9943,-4.0045,-3.9893,-4.0011,-4.0113,-4.0113,-4.0113,-4.0113,-4.0113,-4.0113,-4.0113,-3.9977,-3.9469,-3.9157,-3.9469,-3.974,-3.9571,-3.892,-3.8853,-3.9587,-4.0433,-4.1069,-4.1458,-4.1943,-4.2418,-4.2309,-4.1588,-4.1405,-4.0973,-4.0364,-4.0022,-3.995,-3.9842,-3.977,-3.9733,-3.9841,-3.9532,-3.9369,-3.9641,-3.8844,-3.8118,-3.8301,-3.8047,-3.8192,-3.2945,-3.2807,-3.2132,-3.135,-3.0621,-3.0511,-3.0496,-3.0621,-3.0618,-3.0639,-3.096,-3.1459,-3.1651,-3.1298,-3.0561,-2.9628,-2.8747,-2.9273,-2.8739,-2.7538,-2.7989,-2.8299,-2.8334,-2.9058,-2.9799,-3.0575,-3.1196,-3.1558,-3.1783,-3.1714,-3.1369,-3.0956,-3.1455,-3.1472,-3.0972,-3.1472,-3.18,-3.18,-3.18,-3.18,-3.18,-3.18,-3.18,-3.18,-3.1323,-3.0738,-3.0165,-2.9557,-2.8827,-2.7883,-2.7737,-2.7453,-2.7154,-2.7563,-2.7818,-2.7666,-2.8225,-2.8525,-2.8444,-2.8873,-2.922,-2.9409,-3.1379,-3.2663,-3.2984,-3.5402,-3.6998,-3.7218,-3.8285,-3.8802,-3.8311,-3.9242,-3.9706,-3.9191,-3.9622,-4.0113,-4.0011,-4.0113,-4.0113,-4.0113,-3.996,-4.0096,-4.0011,-3.9469,-3.8768,-3.8278,-3.8751,-3.8836,-3.8193,-3.843,-3.8765,-3.9088,-3.973,-4.0674,-4.1321,-4.1934,-4.1528,-4.0692,-4.0479,-3.9939,-3.9124,-3.8549,-3.8325,-3.8367,-3.8115,-3.8062,-3.8236,-3.8319,-3.8282,-3.8246,-3.7667,-3.6959,-3.6381,-3.6238,-3.6834,-3.3008,-3.2811,-3.2028,-3.0975,-2.9869,-2.9355,-2.9658,-3.046,-3.0478,-3.1011,-3.1831,-3.1778,-3.1393,-3.0818,-2.9963,-2.9576,-2.9609,-2.9374,-2.8863,-2.8216,-2.8877,-2.8933,-2.8557,-2.9661,-3.0403,-3.0731,-3.1438,-3.18,-3.18,-3.18,-3.1627,-3.1403,-3.168,-3.1645,-3.1386,-3.1645,-3.18,-3.18,-3.18,-3.18,-3.18,-3.18,-3.18,-3.1763,-3.1334,-3.0985,-3.0639,-3.0236,-2.9675,-2.8957,-2.8882,-2.8677,-2.8232,-2.8393,-2.845,-2.8389,-2.8497,-2.8573,-2.8541,-2.8897,-2.9113,-2.9113,-3.0908,-3.2061,-3.2149,-3.413,-3.5441,-3.5656,-3.7212,-3.821,-3.7973,-3.8447,-3.8684,-3.843,-3.8633,-3.8819,-3.8802,-3.8819,-3.8937,-3.9334,-3.9056,-3.9174,-3.9791,-3.9469,-3.8531,-3.7652,-3.7872,-3.8041,-3.7415,-3.7523,-3.7733,-3.7959,-3.8404,-3.9072,-4.0007,-4.0334,-3.9847,-3.8919,-3.8749,-3.8586,-3.741,-3.7339,-3.7284,-3.6879,-3.6645,-3.6451,-3.6394,-3.6462,-3.6459,-3.6575,-3.6671,-3.6164,-3.584,-3.5786,-3.6182,-3.2957,-3.2451,-3.1508,-3.0297,-2.9034,-2.8445,-2.8962,-3.0104,-3.019,-3.0975,-3.2114,-3.1403,-3.0993,-3.0695,-2.9683,-2.9393,-2.9597,-2.9402,-2.8947,-2.8633,-2.9595,-2.9689,-2.8986,-3.011,-3.0836,-3.1076,-3.1541,-3.18,-3.18,-3.18,-3.1696,-3.1558,-3.1696,-3.1679,-3.1524,-3.1679,-3.18,-3.18,-3.18,-3.18,-3.1781,-3.1671,-3.1598,-3.1578,-3.1162,-3.0868,-3.0744,-3.0318,-2.9968,-2.9633,-2.9611,-2.947,-2.9137,-2.899,-2.8943,-2.8881,-2.8748,-2.866,-2.866,-2.8889,-2.9082,-2.9298,-3.0782,-3.1803,-3.2247,-3.3676,-3.4704,-3.4962,-3.6315,-3.7239,-3.7256,-3.7652,-3.7821,-3.7652,-3.7753,-3.7905,-3.7956,-3.7898,-3.8159,-3.8548,-3.8311,-3.8159,-3.8894,-3.864,-3.7845,-3.6806,-3.711,-3.733,-3.6721,-3.666,-3.6916,-3.6984,-3.6994,-3.7651,-3.8888,-3.9139,-3.8327,-3.7358,-3.721,-3.6771,-3.5551,-3.5826,-3.6138,-3.5607,-3.5422,-3.541,-3.5492,-3.5295,-3.516,-3.5369,-3.546,-3.5351,-3.4969,-3.5113,-3.5206,-3.2619,-3.1612,-3.0136,-2.9123,-2.8267,-2.8267,-2.8727,-2.969,-2.953,-2.9958,-3.0689,-3.0065,-3.035,-3.1474,-3.0139,-2.898,-2.8475,-2.9685,-2.9367,-2.821,-3.0125,-3.0639,-2.9811,-3.0541,-3.1185,-3.1628,-3.1731,-3.18,-3.18,-3.18,-3.1438,-3.0869,-3.1472,-3.1455,-3.1059,-3.1525,-3.18,-3.18,-3.18,-3.18,-3.1727,-3.1372,-3.1162,-3.1103,-3.0744,-3.0351,-2.9924,-2.9448,-2.9167,-2.916,-2.9167,-2.9137,-2.9114,-2.9091,-2.9013,-2.892,-2.8834,-2.8794,-2.8794,-2.8803,-2.8975,-2.9507,-3.0959,-3.2317,-3.2702,-3.4264,-3.5312,-3.5554,-3.5729,-3.5915,-3.6034,-3.6998,-3.7438,-3.6981,-3.7449,-3.7753,-3.7838,-3.7652,-3.7889,-3.7956,-3.7922,-3.7686,-3.7151,-3.6931,-3.6654,-3.6146,-3.6366,-3.6535,-3.5943,-3.6248,-3.6293,-3.5819,-3.5807,-3.6437,-3.8465,-3.8154,-3.7328,-3.6377,-3.5426,-3.5062,-3.4369,-3.3917,-3.4229,-3.4366,-3.4198,-3.4297,-3.4654,-3.48,-3.4715,-3.4742,-3.4651,-3.4464,-3.419,-3.3701,-3.3882,-3.2192,-3.0921,-3.0332,-2.9658,-2.8998,-2.8976,-2.969,-3.0796,-3.0315,-3.085,-3.1865,-3.1757,-3.1653,-3.1671,-3.1118,-3.0692,-3.0436,-3.0973,-3.0196,-2.887,-3.0843,-3.1096,-2.985,-3.0872,-3.158,-3.1766,-3.18,-3.18,-3.18,-3.18,-3.1662,-3.1508,-3.1645,-3.1645,-3.1489,-3.1645,-3.18,-3.18,-3.18,-3.18,-3.1763,-3.1353,-3.0988,-3.0707,-3.0288,-2.9968,-2.9793,-2.9357,-2.9114,-2.9114,-2.9114,-2.9114,-2.9114,-2.9114,-2.9091,-2.9029,-2.8936,-2.8865,-2.8858,-2.8755,-2.8716,-2.8959,-3.0225,-3.1524,-3.2471,-3.3807,-3.5014,-3.5625,-3.5849,-3.5844,-3.5912,-3.6305,-3.6441,-3.6294,-3.639,-3.6627,-3.6542,-3.6474,-3.6614,-3.7127,-3.7533,-3.7432,-3.6491,-3.6468,-3.6451,-3.5802,-3.5859,-3.5639,-3.5148,-3.5165,-3.512,-3.4455,-3.4218,-3.4568,-3.5512,-3.5849,-3.5402,-3.461,-3.3902,-3.3656,-3.3118,-3.3288,-3.3613,-3.3213,-3.3029,-3.3014,-3.3326,-3.3599,-3.3653,-3.3759,-3.3702,-3.3885,-3.3465,-3.3411,-3.352,-3.1354,-3.0547,-3.0229,-2.9854,-2.9444,-2.9654,-3.0332,-3.126,-3.1011,-3.1635,-3.2704,-3.2632,-3.2329,-3.2045,-3.1829,-3.1706,-3.1706,-3.1689,-3.0869,-2.9693,-3.1551,-3.1616,-3.049,-3.1358,-3.1875,-3.1818,-3.18,-3.18,-3.18,-3.18,-3.18,-3.18,-3.18,-3.18,-3.18,-3.18,-3.18,-3.18,-3.18,-3.18,-3.1727,-3.1334,-3.0925,-3.0502,-3.0032,-2.9705,-2.9605,-2.9282,-2.9114,-2.9114,-2.9114,-2.9114,-2.9114,-2.9114,-2.9114,-2.9091,-2.9013,-2.8967,-2.8967,-2.8858,-2.8834,-2.9021,-3.0048,-3.1157,-3.2144,-3.3327,-3.4481,-3.533,-3.5655,-3.569,-3.5946,-3.5971,-3.5905,-3.5861,-3.5817,-3.5817,-3.5861,-3.5768,-3.5983,-3.6469,-3.691,-3.6599,-3.5751,-3.5909,-3.5705,-3.5084,-3.4982,-3.475,-3.4359,-3.4224,-3.4105,-3.363,-3.3617,-3.3704,-3.4076,-3.4238,-3.4219,-3.3525,-3.2921,-3.2565,-3.2395,-3.2645,-3.2628,-3.2158,-3.1933,-3.1852,-3.199,-3.2301,-3.2551,-3.2763,-3.3188,-3.3574,-3.3411,-3.3393,-3.3502,-3.0068,-3.0401,-2.9729,-2.953,-2.9569,-3.0136,-3.0478,-3.0779,-3.1296,-3.199,-3.2739,-3.2168,-3.2293,-3.2579,-3.2132,-3.176,-3.1829,-3.1831,-3.1299,-3.0543,-3.2052,-3.2197,-3.1145,-3.1829,-3.2073,-3.1801,-3.18,-3.18,-3.18,-3.18,-3.18,-3.18,-3.18,-3.18,-3.18,-3.18,-3.18,-3.18,-3.18,-3.18,-3.1744,-3.1334,-3.0925,-3.0497,-3.0054,-2.9589,-2.9167,-2.9121,-2.9114,-2.9114,-2.9114,-2.9114,-2.9114,-2.9114,-2.9114,-2.9114,-2.9098,-2.9075,-2.9075,-2.9052,-2.9198,-2.9563,-3.0663,-3.1287,-3.2005,-3.2925,-3.3925,-3.4736,-3.501,-3.5215,-3.5835,-3.6088,-3.6122,-3.6036,-3.5927,-3.5905,-3.5949,-3.5883,-3.5822,-3.5966,-3.6056,-3.5707,-3.5104,-3.4929,-3.4686,-3.4154,-3.3932,-3.3864,-3.3693,-3.3642,-3.3683,-3.3564,-3.3267,-3.3063,-3.2958,-3.29,-3.2863,-3.2706,-3.2221,-3.1794,-3.1661,-3.1782,-3.185,-3.1512,-3.1529,-3.1482,-3.1696,-3.2003,-3.2401,-3.2668,-3.3037,-3.3345,-3.3393,-3.3393,-3.3393,-3.0014,-3.0457,-3.0261,-3.0157,-3.019,-3.0422,-3.0796,-3.1242,-3.1064,-3.1635,-3.2686,-3.2632,-3.2668,-3.2793,-3.2614,-3.2525,-3.2525,-3.2472,-3.1749,-3.0873,-3.2012,-3.22,-3.151,-3.1882,-3.2037,-3.1837,-3.18,-3.18,-3.18,-3.18,-3.18,-3.18,-3.18,-3.18,-3.18,-3.18,-3.18,-3.18,-3.18,-3.18,-3.1746,-3.1353,-3.0925,-3.0518,-3.0054,-2.9589,-2.9144,-2.9114,-2.9114,-2.9114,-2.9114,-2.9114,-2.9114,-2.9114,-2.9114,-2.9114,-2.9114,-2.9114,-2.9091,-2.9013,-2.9036,-2.9213,-2.9548,-3.0322,-3.1411,-3.2035,-3.2916,-3.4151,-3.4768,-3.5253,-3.5476,-3.5962,-3.6126,-3.6127,-3.6101,-3.6058,-3.6084,-3.5997,-3.5715,-3.5309,-3.5228,-3.4886,-3.4284,-3.4062,-3.398,-3.3707,-3.3601,-3.3499,-3.3071,-3.2972,-3.2676,-3.2317,-3.2252,-3.2393,-3.2318,-3.2256,-3.2219,-3.2217,-3.1836,-3.1542,-3.1349,-3.123,-3.123,-3.121,-3.119,-3.1252,-3.1449,-3.1805,-3.2248,-3.2602,-3.2959,-3.3178,-3.3331,-3.3393,-3.3393,-2.997,-3.0665,-3.0625,-3.0567,-3.06,-3.1082,-3.1492,-3.1671,-3.1492,-3.199,-3.2775,-3.2882,-3.2948,-3.2977,-3.293,-3.2948,-3.2993,-3.2948,-3.2301,-3.1493,-3.217,-3.2321,-3.1786,-3.2004,-3.209,-3.1946,-3.1928,-3.1873,-3.18,-3.18,-3.18,-3.18,-3.18,-3.18,-3.18,-3.18,-3.18,-3.18,-3.18,-3.18,-3.1746,-3.1523,-3.1162,-3.0744,-3.0293,-2.9837,-2.9387,-2.9213,-2.9114,-2.9114,-2.9114,-2.9114,-2.9114,-2.9114,-2.9114,-2.9114,-2.9114,-2.9114,-2.9114,-2.9013,-2.8967,-2.9013,-2.928,-2.9895,-3.0917,-3.137,-3.2315,-3.3461,-3.4024,-3.4473,-3.4783,-3.5145,-3.5452,-3.5425,-3.5899,-3.6135,-3.6152,-3.5891,-3.5561,-3.5115,-3.4806,-3.4237,-3.3654,-3.3414,-3.3276,-3.3105,-3.3002,-3.2934,-3.2417,-3.2316,-3.1972,-3.1768,-3.1838,-3.1874,-3.1699,-3.1665,-3.1629,-3.1625,-3.157,-3.1464,-3.1385,-3.1363,-3.1363,-3.1269,-3.1232,-3.119,-3.1351,-3.1896,-3.2351,-3.2619,-3.2814,-3.3162,-3.3393,-3.3393,-3.3393,-2.9892,-3.1003,-3.0893,-3.0761,-3.0856,-3.2092,-3.2255,-3.1867,-3.2364,-3.2686,-3.2864,-3.29,-3.3008,-3.3114,-3.3008,-3.3019,-3.3087,-3.2862,-3.2715,-3.2559,-3.2706,-3.254,-3.2449,-3.2368,-3.2249,-3.2126,-3.2108,-3.2002,-3.191,-3.1855,-3.1818,-3.1855,-3.1818,-3.18,-3.18,-3.18,-3.18,-3.18,-3.18,-3.18,-3.18,-3.1781,-3.1559,-3.1083,-3.0707,-3.0309,-2.9859,-2.9448,-2.9167,-2.9114,-2.9114,-2.9114,-2.9114,-2.9114,-2.9114,-2.9114,-2.9114,-2.9114,-2.9114,-2.9091,-2.9075,-2.9144,-2.9772,-3.0497,-3.0638,-3.1252,-3.1956,-3.2747,-3.3024,-3.3317,-3.3886,-3.4234,-3.4249,-3.4318,-3.5205,-3.5778,-3.5967,-3.5446,-3.5018,-3.4832,-3.4404,-3.3731,-3.2934,-3.2814,-3.2541,-3.2235,-3.2098,-3.2116,-3.2119,-3.212,-3.1907,-3.1819,-3.1819,-3.1726,-3.1707,-3.1707,-3.1688,-3.1651,-3.1576,-3.1519,-3.1443,-3.144,-3.1421,-3.131,-3.1232,-3.121,-3.1349,-3.1805,-3.2109,-3.2231,-3.2602,-3.3147,-3.3316,-3.3253,-3.3316,-3.0329,-3.1981,-3.143,-3.1365,-3.1697,-3.2172,-3.2086,-3.174,-3.1918,-3.2347,-3.2775,-3.29,-3.2972,-3.3172,-3.3126,-3.2961,-3.2701,-3.2423,-3.2283,-3.2224,-3.2072,-3.2272,-3.2533,-3.2538,-3.242,-3.2284,-3.2249,-3.2214,-3.2161,-3.2055,-3.2019,-3.2001,-3.1892,-3.1818,-3.18,-3.1818,-3.18,-3.18,-3.18,-3.18,-3.18,-3.18,-3.156,-3.1142,-3.0968,-3.0686,-3.033,-2.9859,-2.9448,-2.9137,-2.9114,-2.9114,-2.9114,-2.9114,-2.9114,-2.9114,-2.9114,-2.9114,-2.9114,-2.9114,-2.9114,-2.916,-2.9677,-3.0123,-3.0497,-3.0985,-3.1513,-3.2068,-3.2524,-3.2955,-3.3266,-3.3716,-3.3992,-3.4111,-3.4401,-3.4674,-3.4711,-3.4507,-3.4199,-3.3611,-3.3369,-3.2869,-3.2403,-3.2163,-3.2151,-3.2107,-3.2126,-3.2179,-3.2179,-3.2144,-3.1984,-3.202,-3.2002,-3.1856,-3.1781,-3.1781,-3.1781,-3.178,-3.1707,-3.1651,-3.1538,-3.1406,-3.1368,-3.1312,-3.1232,-3.119,-3.131,-3.16,-3.1714,-3.1932,-3.2282,-3.2732,-3.2892,-3.2923,-3.3129,-3.0472,-3.2152,-3.1605,-3.1746,-3.2224,-3.2151,-3.1989,-3.1784,-3.1377,-3.1635,-3.2275,-3.2418,-3.2686,-3.3154,-3.2847,-3.2817,-3.2806,-3.231,-3.2065,-3.2039,-3.1831,-3.2105,-3.2577,-3.2721,-3.2622,-3.2437,-3.242,-3.2369,-3.2283,-3.2214,-3.2179,-3.2144,-3.2019,-3.1946,-3.1928,-3.1837,-3.18,-3.18,-3.18,-3.18,-3.18,-3.18,-3.1542,-3.1142,-3.0928,-3.0584,-2.9989,-2.9832,-2.9655,-2.9425,-2.9236,-2.9114,-2.9114,-2.9114,-2.9114,-2.9114,-2.9114,-2.9114,-2.9114,-2.9114,-2.9114,-2.919,-2.9544,-2.9881,-3.0267,-3.0727,-3.1259,-3.1515,-3.2101,-3.2367,-3.2507,-3.2888,-3.3076,-3.3059,-3.3128,-3.3386,-3.3975,-3.38,-3.3421,-3.299,-3.2628,-3.2317,-3.1834,-3.18,-3.1893,-3.2019,-3.2037,-3.2144,-3.2231,-3.2179,-3.2109,-3.2091,-3.202,-3.1856,-3.18,-3.18,-3.18,-3.18,-3.1781,-3.1726,-3.1651,-3.1483,-3.1426,-3.1368,-3.1252,-3.123,-3.1329,-3.1447,-3.1657,-3.1878,-3.2092,-3.2282,-3.2485,-3.2715,-3.2908,-3.0474,-3.179,-3.1538,-3.1814,-3.2284,-3.2119,-3.1906,-3.173,-3.0954,-3.0954,-3.1517,-3.1627,-3.2092,-3.2958,-3.2284,-3.2399,-3.3031,-3.195,-3.1827,-3.1779,-3.1882,-3.2277,-3.2813,-3.2868,-3.2787,-3.2655,-3.2639,-3.2538,-3.2437,-3.2369,-3.2335,-3.2301,-3.2214,-3.2126,-3.209,-3.1965,-3.1856,-3.1838,-3.1856,-3.1837,-3.1818,-3.18,-3.1598,-3.1278,-3.0885,-3.0377,-2.9837,-2.9677,-2.975,-2.9772,-2.9403,-2.9213,-2.916,-2.9114,-2.9114,-2.9114,-2.9114,-2.9114,-2.9114,-2.9114,-2.9114,-2.9183,-2.9522,-2.9837,-3.0097,-3.0686,-3.1162,-3.1334,-3.1596,-3.1849,-3.1921,-3.1886,-3.199,-3.2076,-3.1955,-3.2543,-3.3358,-3.3233,-3.28,-3.2766,-3.2179,-3.1886,-3.18,-3.18,-3.1819,-3.2091,-3.2109,-3.2197,-3.2249,-3.2214,-3.2109,-3.202,-3.1929,-3.1837,-3.18,-3.18,-3.18,-3.18,-3.18,-3.1763,-3.1744,-3.1615,-3.1557,-3.1462,-3.1385,-3.1308,-3.1252,-3.1428,-3.1582,-3.1638,-3.1749,-3.1985,-3.2231,-3.2485,-3.27,-3.0601,-3.1971,-3.1227,-3.124,-3.1648,-3.1539,-3.1329,-3.1041,-3.065,-3.0581,-3.0945,-3.0973,-3.1329,-3.1869,-3.161,-3.1427,-3.1218,-3.0789,-3.0555,-3.0978,-3.2215,-3.2632,-3.29,-3.29,-3.2884,-3.2818,-3.2818,-3.2786,-3.2737,-3.2606,-3.2539,-3.2522,-3.237,-3.2249,-3.2231,-3.2179,-3.2126,-3.2055,-3.2036,-3.1911,-3.1818,-3.18,-3.1727,-3.1542,-3.1142,-3.0888,-3.0567,-3.0118,-2.9832,-2.975,-2.9683,-2.9499,-2.919,-2.9114,-2.9114,-2.9114,-2.9114,-2.9114,-2.9114,-2.9114,-2.9114,-2.916,-2.9493,-2.9946,-3.0351,-3.0707,-3.1218,-3.1523,-3.1763,-3.1763,-3.18,-3.18,-3.1818,-3.1837,-3.1855,-3.205,-3.2509,-3.2347,-3.2166,-3.2097,-3.1993,-3.1818,-3.1837,-3.1874,-3.1948,-3.2126,-3.2231,-3.23,-3.2249,-3.2197,-3.2091,-3.1966,-3.1893,-3.18,-3.18,-3.18,-3.18,-3.18,-3.18,-3.18,-3.1763,-3.1709,-3.1615,-3.1557,-3.15,-3.1423,-3.131,-3.1293,-3.1468,-3.1447,-3.1447,-3.1656,-3.1913,-3.2214,-3.2553,-3.0424,-3.1454,-3.1002,-3.1171,-3.1622,-3.1144,-3.0747,-3.0363,-2.9796,-2.9775,-3.0094,-3.0148,-3.0481,-3.0975,-3.0777,-3.0536,-3.0609,-3.0496,-3.0689,-3.1193,-3.2025,-3.2507,-3.2882,-3.29,-3.29,-3.29,-3.29,-3.29,-3.285,-3.2786,-3.2737,-3.2721,-3.2539,-3.2454,-3.2386,-3.2283,-3.2161,-3.2073,-3.2018,-3.1893,-3.1818,-3.18,-3.1653,-3.1447,-3.1064,-3.0808,-3.0707,-3.0605,-3.0187,-2.9968,-2.9989,-2.981,-2.9236,-2.9114,-2.9114,-2.9114,-2.9114,-2.9114,-2.9114,-2.9114,-2.9114,-2.9114,-2.9373,-2.9544,-2.9881,-3.023,-3.0686,-3.1083,-3.1334,-3.1542,-3.1763,-3.18,-3.1855,-3.2002,-3.202,-3.2162,-3.2403,-3.2249,-3.2109,-3.2197,-3.2318,-3.23,-3.2283,-3.2162,-3.2109,-3.2266,-3.2232,-3.2266,-3.202,-3.1966,-3.2002,-3.1911,-3.1856,-3.1801,-3.18,-3.18,-3.18,-3.18,-3.18,-3.18,-3.1781,-3.1727,-3.1673,-3.1615,-3.1576,-3.15,-3.1406,-3.1387,-3.1387,-3.1426,-3.1464,-3.1483,-3.1635,-3.1985,-3.2352,-2.9983,-3.0724,-3.0647,-3.1068,-3.1495,-3.0646,-3.0118,-2.9831,-2.899,-2.9016,-2.9259,-2.9321,-2.9701,-3.0018,-2.98,-3.0021,-3.036,-3.0824,-3.0923,-3.1273,-3.1882,-3.24,-3.2811,-3.29,-3.29,-3.29,-3.29,-3.29,-3.29,-3.29,-3.285,-3.285,-3.2737,-3.2622,-3.2539,-3.2335,-3.2161,-3.209,-3.1965,-3.1873,-3.1818,-3.18,-3.1634,-3.1334,-3.0945,-3.0662,-3.0662,-3.0645,-3.0584,-2.9886,-3.023,-3.0032,-2.9544,-2.9121,-2.9114,-2.9114,-2.9114,-2.9183,-2.9266,-2.9243,-2.9243,-2.9198,-2.9236,-2.9259,-2.9387,-2.9722,-3.0187,-3.0707,-3.1142,-3.16,-3.1838,-3.1929,-3.2073,-3.2249,-3.2335,-3.2469,-3.2732,-3.2602,-3.2619,-3.2668,-3.2617,-3.2602,-3.2619,-3.2553,-3.2453,-3.2369,-3.2301,-3.2179,-3.1929,-3.1818,-3.1856,-3.1874,-3.1819,-3.18,-3.18,-3.18,-3.18,-3.18,-3.18,-3.18,-3.18,-3.1781,-3.1727,-3.1671,-3.1596,-3.154,-3.1502,-3.1483,-3.1483,-3.15,-3.1481,-3.15,-3.1634,-3.1803,-3.2127,-2.911,-2.9889,-2.9899,-2.9945,-2.9971,-2.9642,-2.9479,-2.9326,-2.8995,-2.8876,-2.8974,-2.8937,-2.9027,-2.9094,-2.9046,-2.8996,-2.9336,-3.0054,-3.0659,-3.1064,-3.19,-3.2775,-3.2829,-3.29,-3.29,-3.29,-3.29,-3.29,-3.29,-3.29,-3.29,-3.29,-3.2868,-3.277,-3.2655,-3.2505,-3.2335,-3.2144,-3.2037,-3.1964,-3.1837,-3.18,-3.1764,-3.156,-3.1218,-3.0905,-3.0621,-3.0563,-3.0335,-2.9903,-3.0267,-3.0372,-3.0097,-2.9522,-2.9236,-2.916,-2.9137,-2.9213,-2.947,-2.9633,-2.9655,-2.9677,-2.9633,-2.9655,-2.9677,-2.9788,-3.0166,-3.0891,-3.1565,-3.2091,-3.2197,-3.2197,-3.2386,-3.2553,-3.2569,-3.2602,-3.3032,-3.3139,-3.3016,-3.2968,-3.2905,-3.2874,-3.2939,-3.2892,-3.27,-3.2503,-3.2335,-3.2144,-3.1892,-3.18,-3.1818,-3.1818,-3.1818,-3.18,-3.18,-3.18,-3.18,-3.18,-3.18,-3.18,-3.18,-3.18,-3.1763,-3.1709,-3.169,-3.1671,-3.1634,-3.1596,-3.1578,-3.1576,-3.1538,-3.15,-3.1634,-3.1802,-3.1985,-2.9307,-2.9683,-2.9701,-2.9692,-2.9626,-2.9521,-2.9373,-2.9241,-2.9119,-2.9003,-2.891,-2.8863,-2.8821,-2.8797,-2.8815,-2.8694,-2.8907,-2.9898,-3.0457,-3.0868,-3.2097,-3.29,-3.2916,-3.2916,-3.29,-3.29,-3.29,-3.29,-3.29,-3.29,-3.29,-3.29,-3.29,-3.2852,-3.2755,-3.2639,-3.2454,-3.2232,-3.2126,-3.2001,-3.1837,-3.1818,-3.1818,-3.1727,-3.1617,-3.1372,-3.1237,-3.1179,-3.0965,-3.0625,-3.067,-3.0683,-3.0456,-3.014,-2.9722,-2.9515,-2.9282,-2.9213,-2.9493,-2.9633,-2.9772,-2.9772,-2.9815,-2.9793,-2.9793,-2.9859,-3.023,-3.1027,-3.1787,-3.2301,-3.2283,-3.2453,-3.2716,-3.2937,-3.2892,-3.3047,-3.3375,-3.3508,-3.3422,-3.3273,-3.3346,-3.3361,-3.3361,-3.3229,-3.2954,-3.2684,-3.242,-3.2109,-3.1837,-3.18,-3.18,-3.18,-3.18,-3.18,-3.18,-3.18,-3.18,-3.18,-3.18,-3.18,-3.18,-3.18,-3.18,-3.1781,-3.1764,-3.1746,-3.1746,-3.169,-3.1688,-3.1651,-3.1651,-3.167,-3.1707,-3.1819,-3.1966,-2.9569,-2.9701,-2.9701,-2.9701,-2.9673,-2.9636,-2.9531,-2.9365,-2.9312,-2.9174,-2.8991,-2.8957,-2.8892,-2.8839,-2.8803,-2.8724,-2.8675,-2.9968,-3.0557,-3.0995,-3.224,-3.2977,-3.3024,-3.2995,-3.2977,-3.2993,-3.2916,-3.2916,-3.29,-3.29,-3.29,-3.29,-3.29,-3.285,-3.2786,-3.2672,-3.2471,-3.2318,-3.2197,-3.2037,-3.1947,-3.1911,-3.1874,-3.1856,-3.1856,-3.1783,-3.1523,-3.1634,-3.143,-3.1181,-3.1123,-3.1103,-3.0825,-3.0683,-3.0456,-3.0059,-2.9617,-2.9454,-2.9639,-2.9865,-3.0187,-3.0208,-3.0102,-3.0038,-3.0011,-3.0166,-3.0418,-3.1086,-3.1914,-3.242,-3.2504,-3.2716,-3.3047,-3.3273,-3.3364,-3.3426,-3.3638,-3.3753,-3.3739,-3.3707,-3.3807,-3.3766,-3.3652,-3.3258,-3.2908,-3.2668,-3.2403,-3.2073,-3.1837,-3.18,-3.18,-3.18,-3.18,-3.18,-3.18,-3.18,-3.18,-3.18,-3.18,-3.18,-3.18,-3.18,-3.18,-3.18,-3.18,-3.1781,-3.18,-3.18,-3.1763,-3.1744,-3.1781,-3.18,-3.1781,-3.1764,-3.1875,-2.9164,-2.9701,-2.9701,-2.9701,-2.9701,-2.9692,-2.9683,-2.9636,-2.9569,-2.9433,-2.9238,-2.9115,-2.903,-2.9007,-2.8924,-2.884,-2.9215,-3.0067,-3.0824,-3.116,-3.24,-3.3208,-3.3386,-3.3268,-3.3117,-3.307,-3.2945,-3.2916,-3.29,-3.29,-3.29,-3.29,-3.29,-3.2836,-3.2721,-3.2688,-3.2522,-3.2335,-3.2283,-3.2249,-3.2232,-3.2197,-3.2144,-3.209,-3.2019,-3.1856,-3.1523,-3.1635,-3.1579,-3.1259,-3.1523,-3.1653,-3.1579,-3.122,-3.1064,-3.0865,-3.0642,-3.046,-3.0645,-3.0727,-3.0788,-3.0767,-3.0828,-3.0727,-3.0563,-3.0666,-3.0905,-3.1083,-3.2056,-3.2651,-3.2732,-3.3032,-3.3361,-3.348,-3.3526,-3.3569,-3.3739,-3.3807,-3.3807,-3.3807,-3.3807,-3.3807,-3.3766,-3.3273,-3.2844,-3.2619,-3.2369,-3.2073,-3.1838,-3.1818,-3.18,-3.18,-3.18,-3.18,-3.18,-3.18,-3.18,-3.18,-3.18,-3.18,-3.18,-3.18,-3.18,-3.18,-3.18,-3.18,-3.18,-3.18,-3.18,-3.18,-3.18,-3.18,-3.18,-3.1818,-3.1819,-2.9575,-2.9683,-2.9701,-2.9701,-2.9701,-2.9701,-2.9701,-2.9692,-2.9683,-2.956,-2.9424,-2.9363,-2.95,-2.971,-2.9717,-2.9666,-2.9832,-3.0458,-3.0844,-3.126,-3.2342,-3.3114,-3.3132,-3.3086,-3.3039,-3.3039,-3.2945,-3.2916,-3.29,-3.29,-3.29,-3.29,-3.29,-3.2884,-3.2753,-3.2771,-3.2655,-3.2488,-3.2369,-3.2301,-3.2301,-3.2301,-3.2266,-3.2197,-3.2161,-3.193,-3.1784,-3.169,-3.1727,-3.1523,-3.1744,-3.18,-3.1764,-3.1598,-3.1504,-3.1485,-3.1334,-3.1083,-3.0808,-3.1004,-3.1103,-3.1103,-3.1103,-3.0985,-3.0905,-3.1004,-3.1276,-3.1504,-3.2092,-3.2553,-3.2844,-3.3108,-3.3437,-3.3625,-3.3638,-3.368,-3.3753,-3.378,-3.3807,-3.3807,-3.3807,-3.3793,-3.3766,-3.3465,-3.3047,-3.2732,-3.2486,-3.2214,-3.1966,-3.1818,-3.18,-3.18,-3.18,-3.18,-3.18,-3.18,-3.18,-3.18,-3.18,-3.18,-3.18,-3.18,-3.18,-3.18,-3.18,-3.18,-3.18,-3.18,-3.18,-3.18,-3.18,-3.18,-3.18,-3.18,-3.1818,-3.0004,-2.9775,-2.9917,-2.9889,-2.972,-2.9917,-2.9889,-2.9701,-2.9701,-2.9636,-2.9615,-2.9725,-3.0139,-3.0474,-3.0398,-3.0293,-3.0369,-3.0784,-3.0965,-3.1501,-3.2325,-3.313,-3.325,-3.3193,-3.3088,-3.2979,-3.2932,-3.2916,-3.29,-3.29,-3.29,-3.29,-3.29,-3.29,-3.29,-3.2884,-3.2786,-3.2688,-3.2573,-3.2488,-3.2471,-3.2489,-3.2455,-3.2387,-3.2284,-3.2179,-3.2126,-3.202,-3.1929,-3.1929,-3.1947,-3.1983,-3.1948,-3.193,-3.1929,-3.1893,-3.1802,-3.1617,-3.1317,-3.1261,-3.1259,-3.1259,-3.1259,-3.1334,-3.1278,-3.1278,-3.1432,-3.1875,-3.2249,-3.2619,-3.289,-3.3243,-3.3541,-3.3739,-3.378,-3.3807,-3.3807,-3.3807,-3.3793,-3.3766,-3.3753,-3.3739,-3.3666,-3.3564,-3.3273,-3.2892,-3.2602,-3.2317,-3.2073,-3.1818,-3.18,-3.18,-3.18,-3.18,-3.18,-3.18,-3.18,-3.18,-3.18,-3.18,-3.18,-3.18,-3.18,-3.18,-3.1714,-3.18,-3.18,-3.18,-3.18,-3.18,-3.18,-3.18,-3.18,-3.18,-3.18,-3.0124,-2.9939,-3.0537,-3.0377,-2.9795,-3.0499,-3.0377,-2.9814,-2.9758,-2.9748,-2.9784,-3.0302,-3.0658,-3.0716,-3.075,-3.0672,-3.0665,-3.1199,-3.1409,-3.2035,-3.3049,-3.3579,-3.3625,-3.3502,-3.3386,-3.3175,-3.3086,-3.3011,-3.2914,-3.2961,-3.293,-3.29,-3.2916,-3.2916,-3.29,-3.29,-3.29,-3.2836,-3.2786,-3.2786,-3.2786,-3.2786,-3.2721,-3.2606,-3.2556,-3.2471,-3.2301,-3.2231,-3.2197,-3.2197,-3.2179,-3.2179,-3.2162,-3.2162,-3.2179,-3.2161,-3.2091,-3.1932,-3.1756,-3.1641,-3.1709,-3.1727,-3.1709,-3.1653,-3.1617,-3.1709,-3.1929,-3.2179,-3.242,-3.2813,-3.3169,-3.3522,-3.3638,-3.3766,-3.3807,-3.3807,-3.3807,-3.3807,-3.3793,-3.3753,-3.3694,-3.368,-3.348,-3.3346,-3.3214,-3.2827,-3.2318,-3.2037,-3.1984,-3.18,-3.18,-3.18,-3.18,-3.18,-3.18,-3.18,-3.18,-3.18,-3.18,-3.18,-3.18,-3.1783,-3.1541,-3.1489,-3.1386,-3.1593,-3.1731,-3.1558,-3.1507,-3.1714,-3.18,-3.18,-3.18,-3.18,-3.18,-3.024,-3.0194,-3.0766,-3.08,-3.0462,-3.0762,-3.0724,-3.0471,-3.0424,-3.0405,-3.0328,-3.1094,-3.1711,-3.1857,-3.1507,-3.1348,-3.1351,-3.1389,-3.1573,-3.2047,-3.2897,-3.3597,-3.3689,-3.3675,-3.353,-3.343,-3.3342,-3.3327,-3.3327,-3.3178,-3.3101,-3.307,-3.2993,-3.2916,-3.29,-3.29,-3.29,-3.29,-3.29,-3.29,-3.29,-3.29,-3.2868,-3.2786,-3.2639,-3.2571,-3.2471,-3.2352,-3.2318,-3.2301,-3.2318,-3.2335,-3.2335,-3.2335,-3.2335,-3.2283,-3.2231,-3.2021,-3.1776,-3.1741,-3.1818,-3.18,-3.18,-3.1818,-3.1837,-3.1818,-3.1966,-3.2214,-3.2453,-3.2813,-3.3262,-3.3422,-3.3508,-3.3707,-3.382,-3.382,-3.382,-3.3834,-3.382,-3.3775,-3.3707,-3.3652,-3.3375,-3.3093,-3.2952,-3.2763,-3.2231,-3.18,-3.18,-3.18,-3.18,-3.18,-3.18,-3.18,-3.18,-3.18,-3.18,-3.1783,-3.1783,-3.1662,-3.1558,-3.1196,-3.1007,-3.0989,-3.0903,-3.0886,-3.0938,-3.1058,-3.1282,-3.1645,-3.1783,-3.18,-3.18,-3.18,-3.18,-3.0122,-3.034,-3.0713,-3.0774,-3.0631,-3.0828,-3.0743,-3.0555,-3.048,-3.0517,-3.0544,-3.144,-3.2042,-3.2199,-3.2091,-3.1797,-3.1727,-3.1705,-3.1812,-3.2392,-3.3176,-3.3661,-3.3716,-3.3689,-3.3671,-3.3633,-3.3605,-3.3577,-3.3549,-3.3383,-3.3339,-3.3283,-3.3178,-3.3086,-3.29,-3.29,-3.29,-3.29,-3.29,-3.29,-3.29,-3.29,-3.29,-3.2866,-3.2753,-3.2721,-3.2672,-3.2606,-3.2539,-3.2539,-3.2522,-3.2488,-3.2488,-3.2471,-3.2471,-3.2384,-3.2156,-3.1787,-3.1561,-3.1463,-3.174,-3.1932,-3.2001,-3.1983,-3.1947,-3.1965,-3.2161,-3.2472,-3.257,-3.2781,-3.3368,-3.3522,-3.3634,-3.3842,-3.3881,-3.3881,-3.3887,-3.3887,-3.3855,-3.3829,-3.3716,-3.3546,-3.3273,-3.2937,-3.2586,-3.2436,-3.2109,-3.18,-3.18,-3.18,-3.18,-3.18,-3.18,-3.18,-3.18,-3.18,-3.1783,-3.1662,-3.1593,-3.1369,-3.118,-3.0783,-3.042,-3.0317,-3.0213,-3.0075,-3.0265,-3.0575,-3.111,-3.1679,-3.1748,-3.18,-3.18,-3.18,-3.18,-2.9704,-3.0267,-3.0327,-3.02,-3.0105,-3.0659,-3.0518,-3.0049,-2.9955,-2.9955,-3.0225,-3.1437,-3.1723,-3.1462,-3.1923,-3.202,-3.1913,-3.1905,-3.2187,-3.2894,-3.3568,-3.3949,-3.3965,-3.3881,-3.3829,-3.3643,-3.3671,-3.3712,-3.3661,-3.3583,-3.3587,-3.3516,-3.3415,-3.3268,-3.293,-3.29,-3.29,-3.29,-3.29,-3.29,-3.29,-3.29,-3.29,-3.29,-3.285,-3.2852,-3.282,-3.2802,-3.2753,-3.277,-3.277,-3.277,-3.2786,-3.2786,-3.2766,-3.2642,-3.1911,-3.1606,-3.1609,-3.136,-3.1458,-3.1899,-3.1917,-3.2057,-3.2196,-3.2283,-3.2404,-3.2688,-3.2941,-3.3217,-3.3536,-3.3775,-3.3855,-3.3908,-3.3934,-3.3947,-3.3921,-3.3939,-3.3908,-3.3868,-3.3657,-3.3443,-3.3151,-3.2811,-3.2318,-3.2055,-3.1874,-3.18,-3.1818,-3.18,-3.18,-3.18,-3.18,-3.18,-3.18,-3.18,-3.1748,-3.161,-3.149,-3.1318,-3.0817,-3.0265,-2.9955,-2.9713,-2.9644,-2.9627,-2.9886,-3.0196,-3.0972,-3.1714,-3.1765,-3.18,-3.18,-3.18,-3.18,-2.9428,-2.9675,-3.0103,-3.0253,-3.0265,-3.0782,-3.0862,-3.0637,-3.0575,-3.0781,-3.1389,-3.2443,-3.2767,-3.2588,-3.2473,-3.2456,-3.2057,-3.2568,-3.2955,-3.3076,-3.3856,-3.4061,-3.4111,-3.4074,-3.4036,-3.4011,-3.3998,-3.3972,-3.4011,-3.3868,-3.3712,-3.3633,-3.353,-3.3265,-3.3147,-3.3086,-3.3055,-3.2914,-3.29,-3.29,-3.2916,-3.2932,-3.2932,-3.2932,-3.293,-3.293,-3.2945,-3.2961,-3.2963,-3.293,-3.2914,-3.2898,-3.2916,-3.29,-3.2668,-3.2329,-3.1629,-3.1436,-3.107,-3.0677,-3.0663,-3.1217,-3.1701,-3.1911,-3.2195,-3.2283,-3.2505,-3.2832,-3.3142,-3.3394,-3.3611,-3.3842,-3.3947,-3.3959,-3.3985,-3.3985,-3.3972,-3.3985,-3.3972,-3.3908,-3.3757,-3.3408,-3.3081,-3.2749,-3.2283,-3.2091,-3.1983,-3.1874,-3.1856,-3.1819,-3.1801,-3.18,-3.18,-3.18,-3.18,-3.1818,-3.18,-3.1714,-3.1576,-3.1421,-3.0782,-2.9886,-2.9386,-2.9092,-2.9127,-2.9213,-2.9782,-3.0403,-3.1162,-3.1714,-3.1731,-3.1765,-3.18,-3.18,-3.18,-2.8593,-2.8919,-2.9641,-2.9957,-3.0048,-3.0538,-3.0731,-3.0798,-3.1156,-3.1572,-3.1879,-3.2766,-3.3074,-3.2989,-3.3069,-3.3044,-3.2448,-3.2847,-3.3429,-3.3445,-3.3936,-3.4153,-3.4197,-3.4216,-3.4179,-3.4216,-3.4216,-3.4185,-3.4161,-3.4061,-3.3947,-3.3829,-3.362,-3.3578,-3.3498,-3.3397,-3.3298,-3.3208,-3.3208,-3.3193,-3.3178,-3.3178,-3.318,-3.3162,-3.3162,-3.3162,-3.3147,-3.3135,-3.3104,-3.3039,-3.2993,-3.2961,-3.293,-3.2827,-3.2614,-3.2239,-3.1472,-3.0969,-3.0038,-2.9638,-2.9822,-3.0669,-3.1153,-3.1775,-3.2325,-3.2634,-3.289,-3.316,-3.3306,-3.348,-3.3707,-3.3934,-3.4023,-3.4049,-3.4023,-3.4023,-3.3985,-3.3985,-3.4011,-3.3947,-3.3788,-3.3412,-3.2993,-3.2636,-3.2266,-3.2179,-3.2126,-3.202,-3.1947,-3.1929,-3.1911,-3.1911,-3.191,-3.1928,-3.1892,-3.1855,-3.1837,-3.18,-3.1542,-3.125,-3.0351,-2.9403,-2.8937,-2.873,-2.9334,-2.9851,-3.011,-3.0644,-3.118,-3.1525,-3.1627,-3.1679,-3.1783,-3.1837,-3.1855,-2.7311,-2.8074,-2.8928,-2.9379,-2.9482,-3.0222,-3.033,-3.0227,-3.1743,-3.192,-3.1231,-3.2939,-3.3183,-3.2564,-3.3039,-3.3278,-3.3227,-3.3269,-3.3691,-3.4055,-3.4267,-3.4257,-3.4233,-3.4209,-3.4209,-3.4228,-3.4216,-3.4216,-3.4216,-3.4099,-3.4086,-3.4111,-3.3998,-3.3876,-3.3757,-3.3707,-3.3587,-3.3502,-3.3386,-3.3401,-3.3415,-3.3459,-3.343,-3.343,-3.3459,-3.3459,-3.3491,-3.3491,-3.3386,-3.3294,-3.3205,-3.3099,-3.3008,-3.2932,-3.2932,-3.2465,-3.1354,-3.0058,-2.9263,-2.899,-2.9065,-3.0016,-3.1215,-3.196,-3.2478,-3.2832,-3.31,-3.3415,-3.3625,-3.3707,-3.3842,-3.3967,-3.4136,-3.4111,-3.4086,-3.4049,-3.3985,-3.3985,-3.4023,-3.3947,-3.3802,-3.3455,-3.2912,-3.2538,-3.2335,-3.2266,-3.2214,-3.2197,-3.2126,-3.2162,-3.2126,-3.2091,-3.2091,-3.2073,-3.2036,-3.1946,-3.1928,-3.191,-3.1184,-3.0734,-2.9799,-2.9351,-2.9195,-2.9385,-3.0041,-3.049,-3.0783,-3.0852,-3.0939,-3.1232,-3.1666,-3.1734,-3.1838,-3.1929,-3.1947,-2.7343,-2.8144,-2.9004,-2.9694,-3.0384,-3.1658,-3.2044,-3.1862,-3.2841,-3.2968,-3.2733,-3.3776,-3.3753,-3.3146,-3.3848,-3.3781,-3.3719,-3.3799,-3.4121,-3.4341,-3.4413,-3.434,-3.4305,-3.4274,-3.4257,-3.4221,-3.4209,-3.4216,-3.4179,-3.4099,-3.4011,-3.3991,-3.4049,-3.3954,-3.3972,-3.3972,-3.3815,-3.3671,-3.353,-3.3559,-3.3559,-3.353,-3.3545,-3.3601,-3.3643,-3.3657,-3.3661,-3.3661,-3.3559,-3.3516,-3.3488,-3.343,-3.3415,-3.3368,-3.3259,-3.2389,-3.1052,-2.9764,-2.9493,-2.904,-2.8986,-2.949,-3.0496,-3.1463,-3.2075,-3.2666,-3.31,-3.3538,-3.3829,-3.3895,-3.3947,-3.4061,-3.4148,-3.4136,-3.4124,-3.4099,-3.4036,-3.4036,-3.4061,-3.3921,-3.3762,-3.335,-3.2832,-3.2589,-3.2403,-3.2335,-3.2318,-3.2335,-3.2318,-3.2318,-3.2283,-3.2231,-3.2161,-3.2108,-3.209,-3.2019,-3.2019,-3.1915,-3.1202,-3.0699,-3.0404,-3.0041,-2.9781,-3.0006,-3.063,-3.1096,-3.1456,-3.1458,-3.1428,-3.1583,-3.1931,-3.1894,-3.1912,-3.2073,-3.2126,-2.7373,-2.8188,-2.9039,-3.0055,-3.1234,-3.2527,-3.3038,-3.3196,-3.3947,-3.4094,-3.3724,-3.4443,-3.4538,-3.4216,-3.4538,-3.4499,-3.4067,-3.4432,-3.4676,-3.458,-3.4601,-3.4569,-3.4505,-3.4435,-3.4367,-3.4316,-3.4233,-3.4233,-3.4173,-3.4111,-3.4036,-3.4067,-3.4011,-3.4011,-3.4049,-3.4099,-3.4049,-3.3863,-3.3743,-3.3703,-3.3675,-3.3666,-3.3748,-3.3793,-3.3802,-3.3834,-3.3834,-3.382,-3.3807,-3.3739,-3.3726,-3.3657,-3.3615,-3.3555,-3.3208,-3.2415,-3.1701,-3.0904,-3.057,-3.0241,-2.9831,-2.9741,-3.0176,-3.1011,-3.1875,-3.252,-3.3164,-3.3718,-3.388,-3.4036,-3.4074,-3.413,-3.4136,-3.4161,-3.4148,-3.4148,-3.4136,-3.4111,-3.4011,-3.3868,-3.3564,-3.3187,-3.2864,-3.2638,-3.2556,-3.2589,-3.2622,-3.2622,-3.2505,-3.2403,-3.2335,-3.2249,-3.2161,-3.209,-3.2108,-3.2108,-3.2037,-3.1844,-3.1305,-3.0906,-3.0837,-3.0768,-3.0525,-3.0733,-3.1185,-3.1515,-3.1756,-3.1986,-3.2039,-3.2161,-3.2214,-3.2283,-3.2318,-3.2402,-3.2437,-2.7487,-2.8333,-2.9146,-3.0369,-3.1805,-3.2701,-3.3412,-3.4097,-3.4898,-3.488,-3.4289,-3.4773,-3.5026,-3.485,-3.4984,-3.498,-3.4736,-3.4914,-3.4925,-3.4822,-3.4878,-3.4851,-3.4745,-3.4714,-3.4601,-3.4435,-3.4328,-3.4305,-3.424,-3.4161,-3.4148,-3.4216,-3.4191,-3.4161,-3.4161,-3.4173,-3.4148,-3.4099,-3.4061,-3.4074,-3.4093,-3.4161,-3.4204,-3.4179,-3.4179,-3.4179,-3.4191,-3.4148,-3.4111,-3.3985,-3.3913,-3.3829,-3.3766,-3.368,-3.3223,-3.2811,-3.2349,-3.195,-3.1538,-3.1207,-3.0911,-3.0708,-3.0724,-3.1299,-3.2014,-3.2026,-3.2507,-3.3636,-3.3944,-3.3994,-3.4037,-3.4123,-3.4173,-3.4173,-3.4161,-3.4148,-3.4136,-3.4086,-3.3928,-3.377,-3.3508,-3.3126,-3.2752,-3.2539,-3.2621,-3.2786,-3.2802,-3.2786,-3.2705,-3.2521,-3.2454,-3.2369,-3.2318,-3.2266,-3.2232,-3.2197,-3.2002,-3.1739,-3.141,-3.1235,-3.1218,-3.1237,-3.1255,-3.129,-3.1324,-3.1673,-3.1952,-3.2074,-3.2214,-3.2369,-3.2471,-3.2653,-3.2749,-3.2827,-3.2827,-2.8398,-2.924,-3.0053,-3.0649,-3.1142,-3.2502,-3.3146,-3.3483,-3.4994,-3.5245,-3.4905,-3.4988,-3.5065,-3.5031,-3.5135,-3.5125,-3.5108,-3.513,-3.5073,-3.5047,-3.5087,-3.5078,-3.495,-3.4934,-3.4841,-3.4744,-3.4609,-3.442,-3.43,-3.4252,-3.4228,-3.4216,-3.4216,-3.4216,-3.4216,-3.4216,-3.4216,-3.4216,-3.4216,-3.4216,-3.4197,-3.4086,-3.4042,-3.4155,-3.4216,-3.4216,-3.4216,-3.4216,-3.4173,-3.4117,-3.4117,-3.408,-3.4074,-3.4049,-3.3956,-3.3685,-3.3042,-3.2618,-3.2354,-3.1918,-3.1384,-3.131,-3.135,-3.1866,-3.2001,-3.1507,-3.1857,-3.3175,-3.3918,-3.3956,-3.4011,-3.4104,-3.4179,-3.4185,-3.4191,-3.4179,-3.4167,-3.4036,-3.3889,-3.3662,-3.3455,-3.3111,-3.2736,-3.2639,-3.2719,-3.2752,-3.2736,-3.2736,-3.2736,-3.262,-3.2687,-3.2621,-3.2556,-3.2489,-3.2455,-3.237,-3.2249,-3.2197,-3.2004,-3.183,-3.1618,-3.169,-3.1742,-3.1394,-3.1376,-3.183,-3.2074,-3.1952,-3.2109,-3.2503,-3.2782,-3.3001,-3.3199,-3.3332,-3.3302,-2.8161,-2.8994,-2.9783,-3.0124,-3.0418,-3.1863,-3.2565,-3.2817,-3.3984,-3.4419,-3.4429,-3.4915,-3.5165,-3.4992,-3.5172,-3.528,-3.5273,-3.535,-3.5321,-3.5273,-3.5288,-3.5288,-3.5243,-3.5173,-3.5047,-3.4952,-3.4813,-3.463,-3.4386,-3.4381,-3.4381,-3.4233,-3.4209,-3.4228,-3.4228,-3.4216,-3.4209,-3.4216,-3.4228,-3.4228,-3.4228,-3.4111,-3.4074,-3.4185,-3.4216,-3.4216,-3.4216,-3.4216,-3.4197,-3.4197,-3.4185,-3.4185,-3.4173,-3.4161,-3.4204,-3.3919,-3.3451,-3.2995,-3.2921,-3.2416,-3.1696,-3.1653,-3.1621,-3.1992,-3.2004,-3.1671,-3.2302,-3.3473,-3.3956,-3.4048,-3.4104,-3.4197,-3.4197,-3.4185,-3.4204,-3.4204,-3.4191,-3.4136,-3.3889,-3.3625,-3.3426,-3.3265,-3.2928,-3.2771,-3.2866,-3.3006,-3.2941,-3.3019,-3.2957,-3.283,-3.2862,-3.2896,-3.2832,-3.2782,-3.2747,-3.2668,-3.2555,-3.2538,-3.2538,-3.2299,-3.2074,-3.2213,-3.2213,-3.1864,-3.1793,-3.2174,-3.2296,-3.2142,-3.2498,-3.3006,-3.3202,-3.3361,-3.3564,-3.3716,-3.3689,-2.7812,-2.8436,-2.9023,-2.9333,-2.9647,-3.1066,-3.1837,-3.2098,-3.2812,-3.3176,-3.3425,-3.4823,-3.4935,-3.4916,-3.5104,-3.532,-3.5476,-3.5534,-3.5521,-3.5515,-3.5583,-3.5515,-3.5457,-3.5417,-3.5216,-3.5064,-3.4935,-3.4733,-3.4506,-3.4484,-3.4404,-3.4257,-3.4221,-3.4252,-3.4221,-3.4221,-3.4245,-3.4257,-3.4257,-3.4233,-3.4221,-3.4209,-3.4197,-3.4197,-3.4173,-3.4173,-3.4185,-3.4173,-3.4173,-3.4216,-3.4216,-3.4216,-3.4216,-3.4216,-3.4216,-3.4018,-3.3702,-3.3622,-3.3616,-3.2818,-3.2298,-3.2005,-3.1886,-3.1838,-3.1894,-3.2321,-3.2953,-3.3454,-3.3937,-3.4086,-3.4123,-3.4216,-3.4216,-3.4216,-3.4216,-3.4216,-3.4216,-3.4204,-3.3934,-3.3643,-3.3488,-3.3342,-3.3132,-3.2948,-3.3039,-3.3175,-3.3309,-3.343,-3.3444,-3.3235,-3.316,-3.3175,-3.316,-3.3108,-3.3087,-3.3014,-3.2925,-3.2798,-3.2766,-3.2621,-3.2471,-3.2403,-3.235,-3.2323,-3.2354,-3.2411,-3.2509,-3.2458,-3.2914,-3.336,-3.3426,-3.3504,-3.3757,-3.3876,-3.3941,-2.9156,-2.9199,-2.8693,-2.8814,-2.9551,-3.0514,-3.1313,-3.2043,-3.2768,-3.3165,-3.3301,-3.4008,-3.4487,-3.4394,-3.451,-3.4883,-3.5626,-3.5679,-3.5684,-3.5673,-3.5673,-3.5662,-3.5626,-3.5553,-3.5309,-3.5154,-3.5005,-3.4784,-3.4649,-3.4531,-3.4439,-3.434,-3.434,-3.4351,-3.4351,-3.4351,-3.434,-3.4328,-3.434,-3.4328,-3.4305,-3.4281,-3.4228,-3.4148,-3.403,-3.4099,-3.4111,-3.4018,-3.4086,-3.4167,-3.4216,-3.4216,-3.4216,-3.4216,-3.4216,-3.4048,-3.3733,-3.3714,-3.3454,-3.2667,-3.2072,-3.237,-3.2258,-3.2128,-3.2321,-3.2778,-3.3317,-3.3714,-3.4011,-3.39,-3.3937,-3.4141,-3.4216,-3.4216,-3.4216,-3.4216,-3.4216,-3.4161,-3.4023,-3.3775,-3.3601,-3.3371,-3.3101,-3.3086,-3.3283,-3.3412,-3.3536,-3.3638,-3.362,-3.3526,-3.339,-3.3419,-3.3433,-3.3488,-3.3484,-3.3437,-3.3353,-3.3172,-3.3003,-3.2846,-3.2653,-3.2386,-3.2332,-3.2453,-3.2336,-3.2258,-3.2389,-3.2824,-3.2988,-3.335,-3.3451,-3.3588,-3.3863,-3.4036,-3.4061]},{"header":{"parameterUnit":"m.s-1","parameterCategory":1,"la1":31.0,"la2":29.5877,"lo1":-88.7671,"lo2":-86.6584,"dy":0.0162,"dx":0.0185,"nx":115,"ny":88,"refTime":"2024-07-15T00:00:00:Z","depth":0,"parameterNumber":3,"parameterNumberName":"V-component_of_WINDS"},"data":[0.0,0.0,0.0,0.0,0.0,0.0,0.0,0.0,0.0,0.0,0.0,0.0,0.0,0.0,0.0,0.0,0.0,0.0,0.0,0.0,0.0,0.0,0.0,0.0,0.0,0.0,0.0,0.0,0.0,0.0,0.0,0.0,0.0,0.0,0.0,0.0,0.0,0.0,0.0,0.0,0.0,0.0,0.0,0.0,0.0,0.0,0.0,0.0,0.0,0.0,0.0,0.0,0.0,0.0,0.0,0.0,0.0,0.0,0.0,0.0,0.0,0.0,0.0,0.0,0.0,0.0,0.0,0.0,0.0,0.0,0.0,0.0,0.0,0.0,0.0,0.0,0.0,0.0,0.0,0.0,0.0,0.0,0.0,0.0,0.0,0.0,0.0,0.0,0.0,0.0,0.0,0.0,0.0,0.0,0.0,0.0,0.0,0.0,0.0,0.0,0.0,0.0,0.0,0.0,0.0,0.0,0.0,0.0,0.0,0.0,0.0,0.0,0.0,0.0,0.0,0.0,0.0,0.0,0.0,0.0,0.0,0.0,0.0,0.0,0.0,0.0,0.0,0.0,0.0,0.0,0.0,0.0,0.0,0.0,0.0,0.0,0.0,0.0,0.0,0.0,0.0,0.0,0.0,0.0,0.0,0.0,0.0,0.0,0.0,0.0,0.0,0.0,0.0,0.0,0.0,0.0,0.0,0.0,0.0,0.0,0.0,0.0,0.0,0.0,0.0,0.0,0.0,0.0,0.0,0.0,0.0,0.0,0.0,0.0,0.0,0.0,0.0,0.0,0.0,0.0,0.0,0.0,0.0,0.0,0.0,0.0,0.0,0.0,0.0,0.0,0.0,0.0,0.0,0.0,0.0,0.0,0.0,0.0,0.0,0.0,0.0,0.0,0.0,0.0,0.0,0.0,0.0,0.0,0.0,0.0,0.0,0.0,0.0,0.0,0.0,0.0,0.0,0.0,0.0,0.0,0.0,0.0,0.0,0.0,0.0,0.0,0.0,0.0,0.0,0.0,0.0,0.0,0.0,0.0,0.0,0.0,0.0,0.0,0.0,0.0,0.0,0.0,0.0,0.0,0.0,0.0,0.0,0.0,0.0,0.0,0.0,0.0,0.0,0.0,0.0,0.0,0.0,0.0,0.0,0.0,0.0,0.0,0.0,0.0,0.0,0.0,0.0,0.0,0.0,0.0,0.0,0.0,0.0,0.0,0.0,0.0,0.0,0.0,0.0,0.0,0.0,0.0,0.0,0.0,0.0,0.0,0.0,0.0,0.0,0.0,0.0,0.0,0.0,0.0,0.0,0.0,0.0,0.0,0.0,0.0,0.0,0.0,0.0,0.0,0.0,0.0,0.0,0.0,0.0,0.0,0.0,0.0,0.0,0.0,0.0,0.0,0.0,0.0,0.0,0.0,0.0,0.0,0.0,0.0,0.0,0.0,0.0,0.0,0.0,0.0,0.0,0.0,0.0,0.0,0.0,0.0,0.0,0.0,0.0,0.0,0.0,0.0,0.0,0.0,0.0,0.0,0.0,0.0,0.0,0.0,0.0,0.0,0.0,0.0,0.0,0.0,0.0,0.0,0.0,0.0,0.0,0.0,0.0,0.0,0.0,0.0,0.0,0.0,0.0,0.0,0.0,0.0,0.0,0.0,0.0,0.0,0.0,0.0,0.0,0.0,0.0,0.0,0.0,0.0,0.0,0.0,0.0,0.0,0.0,0.0,0.0,0.0,0.0,0.0,0.0,0.0,0.0,0.0,0.0,0.0,0.0,0.0,0.0,0.0,0.0,0.0,0.0,0.0,0.0,0.0,0.0,0.0,0.0,0.0,0.0,0.0,0.0,0.0,0.0,0.0,0.0,0.0,0.0,0.0,0.0,0.0,0.0,0.0,0.0,0.0,0.0,0.0,0.0,0.0,0.0,0.0,0.0,0.0,0.0,0.0,0.0,0.0,0.0,0.0,0.0,0.0,0.0,0.0,0.0,0.0,0.0,0.0,0.0,0.0,0.0,0.0,0.0,0.0,0.0,0.0,0.0,0.0,0.0,0.0,0.0,0.0,0.0,0.0,0.0,0.0,0.0,0.0,0.0,0.0,0.0,0.0,0.0,0.0,0.0,0.0,0.0,0.0,0.0,0.0,0.0,0.0,0.0,0.0,0.0,0.0,0.0,0.0,0.0,0.0,0.0,0.0,0.0,0.0,0.0,0.0,0.0,0.0,0.0,0.0,0.0,0.0,0.0,0.0,0.0,0.0,0.0,0.0,0.0,0.0,0.0,0.0,0.0,0.0,0.0,0.0,0.0,0.0,0.0,0.0,0.0,0.0,0.0,0.0,0.0,0.0,0.0,0.0,0.0,0.0,0.0,0.0,0.0,0.0,0.0,0.0,0.0,0.0,0.0,0.0,0.0,0.0,0.0,0.0,0.0,0.0,0.0,0.0,0.0,0.0,0.0,0.0,0.0,0.0,0.0,0.0,0.0,0.0,0.0,0.0,0.0,0.0,0.0,0.0,0.0,0.0,0.0,0.0,0.0,0.0,0.0,0.0,0.0,0.0,0.0,0.0,0.0,0.0,0.0,0.0,0.0,0.0,0.0,0.0,0.0,0.0,0.0,0.0,0.0,0.0,0.0,0.0,0.0,0.0,0.0,0.0,0.0,0.0,0.0,0.0,0.0,0.0,0.0,0.0,0.0,0.0,0.0,0.0,0.0,0.0,0.0,0.0,0.0,0.0,0.0,0.0,0.0,0.0,0.0,0.0,0.0,0.0,0.0,0.0,0.0,0.0,0.0,0.0,0.0,0.0,0.0,0.0,0.0,0.0,0.0,0.0,0.0,0.0,0.0,0.0,0.0,0.0,0.0,0.0,0.0,0.0,0.0,0.0,0.0,0.0,0.0,0.0,0.0,0.0,0.0,0.0,0.0,0.0,0.0,0.0,0.0,0.0,0.0,0.0,0.0,0.0,0.0,0.0,0.0,0.0,0.0,0.0,0.0,0.0,0.0,0.0,0.0,0.0,0.0,0.0,0.0,0.0,0.0,0.0,0.0,0.0,0.0,0.0,0.0,0.0,0.0,0.0,0.0,0.0,0.0,0.0,0.0,0.0,0.0,0.0,0.0,0.0,0.0,0.0,0.0,0.0,0.0,0.0,0.0,0.0,0.0,0.0,0.0,0.0,0.0,0.0,0.0,0.0,0.0,0.0,0.0,0.0,0.0,0.0,0.0,0.0,0.0,0.0,0.0,0.0,0.0,0.0,0.0,0.0,0.0,0.0,0.0,0.0,0.0,0.0,0.0,0.0,0.0,0.0,0.0,0.0,0.0,0.0,0.0,0.0,0.0,0.0,0.0,0.0,0.0,0.0,0.0,0.0,0.0,0.0,0.0,0.0,0.0,0.0,0.0,0.0,0.0,0.0,0.0,0.0,0.0,0.0,0.0,0.0,0.0,0.0,0.0,0.0,0.0,0.0,0.0,0.0,0.0,0.0,0.0,0.0,0.0,0.0,0.0,0.0,0.0,0.0,0.0,0.0,0.0,0.0,0.0,0.0,0.0,0.0,0.0,0.0,0.0,0.0,0.0,0.0,0.0,0.0,0.0,0.0,0.0,0.0,0.0,0.0,0.0,0.0,0.0,0.0,0.0,0.0,0.0,0.0,0.0,0.0,0.0,0.0,0.0,0.0,0.0,0.0,0.0,0.0,0.0,0.0,0.0,0.0,0.0,0.0,0.0,0.0,0.0,0.0,0.0,0.0,0.0,0.0,0.0,0.0,0.0,0.0,0.0,0.0,0.0,0.0,0.0,0.0,0.0,0.0,0.0,0.0,0.0,0.0,0.0,0.0,0.0,0.0,0.0,0.0,0.0,0.0,0.0,0.0,0.0,0.0,0.0,0.0,0.0,0.0,0.0,0.0,0.0,0.0,0.0,0.0,0.0,0.0,0.0,0.0,0.0,0.0,0.0,0.0,0.0,0.0,0.0,0.0,0.0,0.0,0.0,0.0,0.0,0.0,0.0,0.0,0.0,0.0,0.0,0.0,0.0,0.0,0.0,0.0,0.0,0.0,0.0,0.0,0.0,0.0,0.0,0.0,0.0,0.0,0.0,0.0,0.0,0.0,0.0,0.0,0.0,0.0,0.0,0.0,0.0,0.0,0.0,0.0,0.0,0.0,0.0,0.0,0.0,0.0,0.0,0.0,0.0,0.0,0.0,0.0,0.0,0.0,0.0,0.0,0.0,0.0,0.0,0.0,0.0,0.0,0.0,0.0,0.0,0.0,-1.004,0.0,0.0,0.0,0.0,0.0,0.0,0.0,0.0,0.0,0.0,0.0,0.0,0.0,0.0,0.0,0.0,0.0,0.0,0.0,0.0,0.0,0.0,0.0,0.0,0.0,0.0,0.0,0.0,0.0,0.0,0.0,0.0,0.0,0.0,0.0,0.0,0.0,0.0,0.0,0.0,0.0,0.0,0.0,0.0,0.0,0.0,0.0,0.0,0.0,0.0,0.0,0.0,0.0,0.0,0.0,0.0,0.0,0.0,0.0,0.0,0.0,0.0,0.0,0.0,0.0,0.0,0.0,0.0,0.0,0.0,0.0,0.0,0.0,0.0,0.0,0.0,0.0,0.0,0.0,0.0,0.0,0.0,0.0,0.0,0.0,0.0,0.0,0.0,0.0,0.0,0.0,0.0,0.0,0.0,0.0,0.0,0.0,0.0,0.0,0.0,0.0,0.0,0.0,0.0,0.0,0.0,0.0,0.0,0.0,0.0,-0.9478,-0.9478,-0.9606,-0.9766,-0.9983,0.0,0.0,0.0,0.0,0.0,0.0,0.0,0.0,0.0,0.0,0.0,0.0,0.0,0.0,0.0,0.0,0.0,0.0,0.0,0.0,0.0,0.0,0.0,0.0,0.0,0.0,0.0,0.0,0.0,0.0,0.0,0.0,0.0,0.0,0.0,0.0,0.0,0.0,0.0,0.0,0.0,0.0,0.0,0.0,0.0,0.0,0.0,0.0,0.0,0.0,0.0,0.0,0.0,0.0,0.0,0.0,0.0,0.0,0.0,0.0,0.0,0.0,0.0,0.0,0.0,0.0,0.0,0.0,0.0,0.0,0.0,0.0,0.0,0.0,0.0,0.0,0.0,0.0,0.0,0.0,0.0,0.0,0.0,0.0,0.0,0.0,0.0,0.0,0.0,0.0,0.0,0.0,0.0,0.0,0.0,0.0,0.0,0.0,0.0,0.0,0.0,0.0,0.0,0.0,0.0,0.0,0.0,0.0,0.0,0.0,0.0,0.0,-0.98,-0.9956,-1.0085,0.0,0.0,0.0,0.0,0.0,0.0,0.0,0.0,0.0,0.0,0.0,0.0,0.0,0.0,0.0,0.0,0.0,0.0,0.0,0.0,0.0,0.0,0.0,0.0,0.0,0.0,0.0,0.0,0.0,0.0,0.0,0.0,0.0,0.0,0.0,0.0,0.0,0.0,0.0,0.0,0.0,0.0,0.0,0.0,0.0,0.0,0.0,0.0,0.0,0.0,0.0,0.0,0.0,0.0,0.0,0.0,0.0,0.0,0.0,0.0,0.0,0.0,0.0,0.0,0.0,0.0,0.0,0.0,0.0,0.0,0.0,0.0,0.0,0.0,0.0,0.0,0.0,0.0,0.0,0.0,0.0,0.0,0.0,0.0,0.0,0.0,0.0,0.0,0.0,0.0,0.0,0.0,0.0,0.0,0.0,0.0,0.0,0.0,0.0,0.0,0.0,0.0,0.0,0.0,0.0,0.0,0.0,0.0,0.0,0.0,-0.9624,-0.9859,-1.007,0.0,-1.0276,0.0,0.0,0.0,0.0,0.0,0.0,0.0,0.0,0.0,0.0,0.0,0.0,0.0,0.0,0.0,0.0,0.0,0.0,0.0,0.0,0.0,0.0,0.0,0.0,0.0,0.0,0.0,0.0,0.0,0.0,0.0,0.0,0.0,0.0,0.0,0.0,0.0,0.0,0.0,0.0,0.0,0.0,0.0,0.0,0.0,0.0,0.0,0.0,0.0,0.0,0.0,0.0,0.0,0.0,0.0,0.0,0.0,0.0,0.0,0.0,0.0,0.0,0.0,0.0,0.0,0.0,0.0,0.0,0.0,0.0,0.0,0.0,0.0,0.0,0.0,0.0,0.0,0.0,0.0,0.0,0.0,0.0,0.0,0.0,0.0,0.0,0.0,0.0,0.0,0.0,0.0,0.0,0.0,0.0,0.0,0.0,0.0,0.0,0.0,0.0,0.0,0.0,0.0,0.0,0.0,0.0,0.0,0.0,0.0,0.0,-0.9621,-1.013,-1.0402,-1.0389,0.0,0.0,0.0,0.0,0.0,0.0,0.0,0.0,0.0,0.0,0.0,0.0,0.0,0.0,0.0,0.0,0.0,0.0,0.0,0.0,0.0,0.0,0.0,0.0,0.0,0.0,0.0,0.0,0.0,0.0,0.0,0.0,0.0,0.0,0.0,0.0,0.0,0.0,0.0,0.0,0.0,0.0,0.0,0.0,0.0,0.0,0.0,0.0,0.0,0.0,0.0,0.0,0.0,0.0,0.0,0.0,0.0,0.0,0.0,0.0,0.0,0.0,0.0,0.0,0.0,0.0,0.0,0.0,0.0,0.0,0.0,0.0,0.0,0.0,0.0,0.0,0.0,0.0,0.0,0.0,0.0,0.0,0.0,0.0,0.0,0.0,0.0,0.0,0.0,0.0,0.0,0.0,0.0,0.0,0.0,0.0,0.0,0.0,0.0,0.0,0.0,0.0,0.0,0.0,0.0,0.0,0.0,0.0,0.0,0.0,-0.8646,-0.9344,-1.0143,-1.06,-1.0519,-0.9897,0.0,0.0,0.0,0.0,0.0,0.0,0.0,0.0,0.0,0.0,0.0,0.0,0.0,0.0,0.0,0.0,0.0,0.0,0.0,0.0,0.0,0.0,0.0,0.0,0.0,0.0,0.0,0.0,0.0,0.0,0.0,0.0,0.0,0.0,0.0,0.0,0.0,0.0,0.0,0.0,0.0,0.0,0.0,0.0,0.0,0.0,0.0,0.0,0.0,0.0,0.0,0.0,0.0,0.0,0.0,0.0,0.0,0.0,0.0,0.0,0.0,0.0,0.0,0.0,0.0,0.0,0.0,0.0,0.0,0.0,0.0,0.0,0.0,0.0,0.0,0.0,0.0,0.0,0.0,0.0,0.0,0.0,0.0,0.0,0.0,0.0,0.0,0.0,0.0,0.0,0.0,0.0,0.0,0.0,0.0,0.0,0.0,0.0,0.0,0.0,0.0,0.0,0.0,0.0,0.0,0.0,0.0,0.0,0.0,-0.7767,-0.8593,-0.9891,-1.0553,-1.0625,0.0,0.0,0.0,0.0,0.0,0.0,0.0,0.0,0.0,0.0,0.0,0.0,0.0,0.0,0.0,0.0,0.0,0.0,0.0,0.0,0.0,0.0,0.0,0.0,0.0,0.0,0.0,0.0,0.0,0.0,0.0,0.0,0.0,0.0,0.0,0.0,0.0,0.0,0.0,0.0,0.0,0.0,0.0,0.0,0.0,0.0,0.0,0.0,0.0,0.0,0.0,0.0,0.0,0.0,0.0,0.0,0.0,0.0,0.0,0.0,0.0,0.0,0.0,0.0,0.0,0.0,0.0,0.0,0.0,0.0,0.0,0.0,0.0,0.0,0.0,0.0,0.0,0.0,0.0,0.0,0.0,0.0,0.0,0.0,0.0,0.0,0.0,0.0,0.0,0.0,0.0,0.0,0.0,0.0,0.0,0.0,0.0,0.0,0.0,0.0,0.0,0.0,0.0,0.0,0.0,0.0,0.0,0.0,0.0,-0.6718,-0.8076,-0.9284,-1.0306,-1.0676,-1.0635,0.0,0.0,0.0,0.0,0.0,0.0,0.0,0.0,0.0,0.0,0.0,0.0,0.0,0.0,0.0,0.0,0.0,0.0,0.0,0.0,0.0,0.0,0.0,0.0,0.0,0.0,0.0,0.0,0.0,0.0,0.0,0.0,0.0,0.0,0.0,0.0,0.0,0.0,0.0,0.0,0.0,0.0,0.0,0.0,0.0,0.0,0.0,0.0,0.0,0.0,0.0,0.0,0.0,0.0,0.0,0.0,0.0,0.0,0.0,0.0,0.0,0.0,0.0,0.0,0.0,0.0,0.0,0.0,0.0,0.0,0.0,0.0,0.0,0.0,0.0,0.0,0.0,0.0,0.0,0.0,0.0,0.0,0.0,0.0,0.0,0.0,0.0,0.0,0.0,0.0,0.0,0.0,0.0,0.0,0.0,0.0,0.0,0.0,0.0,0.0,0.0,0.0,0.0,0.0,0.0,0.0,0.0,0.0,0.0,-0.6402,0.0,-0.952,0.0,-1.0659,-1.0731,0.0,0.0,0.0,0.0,0.0,0.0,0.0,0.0,0.0,0.0,0.0,0.0,0.0,0.0,0.0,0.0,0.0,0.0,0.0,0.0,0.0,0.0,0.0,0.0,0.0,0.0,0.0,0.0,0.0,0.0,0.0,0.0,0.0,0.0,0.0,0.0,0.0,0.0,0.0,0.0,0.0,0.0,0.0,0.0,0.0,0.0,0.0,0.0,0.0,0.0,0.0,0.0,0.0,0.0,0.0,0.0,0.0,0.0,0.0,0.0,0.0,0.0,0.0,0.0,0.0,0.0,0.0,0.0,0.0,0.0,0.0,0.0,0.0,0.0,0.0,0.0,0.0,0.0,0.0,0.0,0.0,0.0,0.0,0.0,0.0,0.0,0.0,0.0,0.0,0.0,0.0,0.0,0.0,0.0,0.0,0.0,0.0,0.0,0.0,0.0,0.0,0.0,0.0,0.0,0.0,0.0,0.0,0.0,-0.5822,-0.6342,-0.8104,-0.9058,-0.898,-1.0439,-1.0936,0.0,0.0,0.0,0.0,0.0,0.0,0.0,0.0,0.0,0.0,0.0,0.0,0.0,0.0,0.0,0.0,0.0,0.0,0.0,0.0,0.0,0.0,0.0,0.0,0.0,0.0,0.0,0.0,0.0,0.0,0.0,0.0,0.0,0.0,0.0,0.0,0.0,0.0,0.0,0.0,0.0,0.0,0.0,0.0,0.0,0.0,0.0,0.0,0.0,0.0,0.0,0.0,0.0,0.0,0.0,0.0,0.0,0.0,0.0,0.0,0.0,0.0,0.0,0.0,0.0,0.0,0.0,0.0,0.0,0.0,0.0,0.0,0.0,0.0,0.0,0.0,0.0,0.0,0.0,0.0,0.0,0.0,0.0,0.0,0.0,0.0,0.0,0.0,0.0,0.0,0.0,0.0,0.0,0.0,0.0,0.0,0.0,0.0,0.0,0.0,0.0,0.0,0.0,0.0,0.0,0.0,0.0,0.0,0.0,-0.6132,-0.7778,-0.8966,-0.9582,-1.0487,-1.0938,0.0,0.0,0.0,0.0,0.0,0.0,0.0,0.0,0.0,0.0,0.0,0.0,0.0,0.0,0.0,0.0,0.0,0.0,0.0,0.0,0.0,0.0,0.0,0.0,0.0,0.0,0.0,0.0,0.0,0.0,0.0,0.0,0.0,0.0,0.0,0.0,0.0,0.0,0.0,0.0,0.0,0.0,0.0,0.0,0.0,0.0,0.0,0.0,0.0,0.0,0.0,0.0,0.0,0.0,0.0,0.0,0.0,0.0,0.0,0.0,0.0,0.0,0.0,0.0,0.0,0.0,0.0,0.0,0.0,0.0,0.0,0.0,0.0,0.0,0.0,0.0,0.0,0.0,0.0,0.0,0.0,0.0,0.0,0.0,0.0,0.0,0.0,0.0,0.0,0.0,0.0,0.0,0.0,0.0,0.0,0.0,0.0,0.0,0.0,0.0,0.0,0.0,0.0,0.0,0.0,0.0,0.0,0.0,0.0,-0.632,-0.8208,-0.9417,-0.9814,-1.0836,-1.1355,-1.1242,0.0,0.0,0.0,0.0,0.0,0.0,0.0,0.0,0.0,0.0,0.0,0.0,0.0,0.0,0.0,0.0,0.0,0.0,0.0,0.0,0.0,0.0,0.0,0.0,0.0,0.0,0.0,0.0,0.0,0.0,0.0,0.0,0.0,0.0,0.0,0.0,0.0,0.0,0.0,0.0,0.0,0.0,0.0,0.0,0.0,0.0,0.0,0.0,0.0,0.0,0.0,0.0,0.0,0.0,0.0,0.0,0.0,0.0,0.0,0.0,0.0,0.0,0.0,0.0,0.0,0.0,0.0,0.0,0.0,0.0,0.0,0.0,0.0,0.0,0.0,0.0,0.0,0.0,0.0,0.0,0.0,0.0,0.0,0.0,0.0,0.0,0.0,0.0,0.0,0.0,0.0,0.0,0.0,0.0,0.0,0.0,0.0,0.0,0.0,0.0,0.0,0.0,0.0,0.0,0.0,0.0,0.0,0.0,-0.6816,-0.9262,-1.0289,-0.9841,-1.1491,-1.2011,0.0,0.0,0.0,0.0,0.0,0.0,0.0,0.0,0.0,0.0,0.0,0.0,0.0,0.0,0.0,0.0,0.0,0.0,0.0,0.0,0.0,0.0,0.0,0.0,0.0,0.0,0.0,0.0,0.0,0.0,0.0,0.0,0.0,0.0,0.0,0.0,0.0,0.0,0.0,0.0,0.0,0.0,0.0,0.0,0.0,0.0,0.0,0.0,0.0,0.0,0.0,0.0,0.0,0.0,0.0,0.0,0.0,0.0,0.0,0.0,0.0,0.0,0.0,0.0,0.0,0.0,0.0,0.0,0.0,0.0,0.0,0.0,0.0,0.0,0.0,0.0,0.0,0.0,0.0,0.0,0.0,0.0,0.0,0.0,0.0,0.0,0.0,0.0,0.0,0.0,0.0,0.0,0.0,0.0,0.0,0.0,0.0,0.0,0.0,0.0,0.0,0.0,0.0,0.0,0.0,0.0,0.0,0.0,0.0,-0.832,-1.0044,-1.0893,-1.093,-1.2108,-1.2844,0.0,0.0,0.0,0.0,0.0,0.0,0.0,0.0,0.0,0.0,0.0,0.0,0.0,0.0,0.0,0.0,0.0,0.0,0.0,0.0,0.0,0.0,0.0,0.0,0.0,0.0,0.0,0.0,0.0,0.0,0.0,0.0,0.0,0.0,0.0,0.0,0.0,0.0,0.0,0.0,0.0,0.0,0.0,0.0,0.0,0.0,0.0,0.0,0.0,0.0,0.0,0.0,0.0,0.0,0.0,0.0,0.0,0.0,0.0,0.0,0.0,0.0,0.0,0.0,0.0,0.0,0.0,0.0,0.0,0.0,0.0,0.0,0.0,0.0,0.0,0.0,0.0,0.0,0.0,0.0,0.0,0.0,0.0,0.0,0.0,0.0,0.0,0.0,0.0,0.0,0.0,0.0,0.0,0.0,0.0,0.0,0.0,0.0,0.0,0.0,0.0,0.0,0.0,0.0,0.0,0.0,0.0,0.0,-0.7428,-0.8775,-1.0438,-1.1596,-1.2224,-1.2772,-1.3272,0.0,0.0,0.0,0.0,0.0,0.0,0.0,0.0,0.0,0.0,0.0,0.0,0.0,0.0,0.0,0.0,0.0,0.0,0.0,0.0,0.0,0.0,0.0,0.0,0.0,0.0,0.0,0.0,0.0,0.0,0.0,0.0,0.0,0.0,0.0,0.0,0.0,0.0,0.0,0.0,0.0,0.0,0.0,0.0,0.0,0.0,0.0,0.0,0.0,0.0,0.0,0.0,0.0,0.0,0.0,0.0,0.0,0.0,0.0,0.0,0.0,0.0,0.0,0.0,0.0,0.0,0.0,0.0,0.0,0.0,0.0,0.0,0.0,0.0,0.0,0.0,0.0,0.0,0.0,0.0,0.0,0.0,0.0,0.0,0.0,0.0,0.0,0.0,0.0,0.0,0.0,0.0,0.0,0.0,0.0,0.0,0.0,0.0,0.0,0.0,0.0,0.0,0.0,0.0,0.0,0.0,0.0,0.0,-0.7742,-0.8949,-1.0704,-1.2261,-1.3678,-1.3538,-1.3591,0.0,0.0,0.0,0.0,0.0,0.0,0.0,0.0,0.0,0.0,0.0,0.0,0.0,0.0,0.0,0.0,0.0,0.0,0.0,0.0,0.0,0.0,0.0,0.0,0.0,0.0,0.0,0.0,0.0,0.0,0.0,0.0,0.0,0.0,0.0,0.0,0.0,0.0,0.0,0.0,0.0,0.0,0.0,0.0,0.0,0.0,0.0,0.0,0.0,0.0,0.0,0.0,0.0,0.0,0.0,0.0,0.0,0.0,0.0,0.0,0.0,0.0,0.0,0.0,0.0,0.0,0.0,0.0,0.0,0.0,0.0,0.0,0.0,0.0,0.0,0.0,0.0,0.0,0.0,0.0,0.0,0.0,0.0,0.0,0.0,0.0,0.0,0.0,0.0,0.0,0.0,0.0,0.0,0.0,0.0,0.0,0.0,0.0,0.0,0.0,0.0,0.0,0.0,0.0,0.0,0.0,0.0,0.0,-0.8544,-1.0515,-1.124,-1.2818,-1.5327,-1.4823,-1.4797,0.0,0.0,0.0,0.0,0.0,0.0,0.0,0.0,0.0,0.0,0.0,0.0,0.0,0.0,0.0,0.0,0.0,0.0,0.0,0.0,0.0,0.0,0.0,0.0,0.0,0.0,0.0,0.0,0.0,0.0,0.0,0.0,0.0,0.0,0.0,0.0,0.0,0.0,0.0,0.0,0.0,0.0,0.0,0.0,0.0,0.0,0.0,0.0,-1.5836,0.0,0.0,0.0,0.0,0.0,0.0,0.0,0.0,0.0,0.0,0.0,0.0,0.0,0.0,0.0,0.0,0.0,0.0,0.0,0.0,0.0,0.0,0.0,0.0,0.0,0.0,0.0,0.0,0.0,0.0,0.0,0.0,0.0,0.0,0.0,0.0,0.0,0.0,0.0,0.0,0.0,0.0,0.0,0.0,0.0,0.0,0.0,0.0,0.0,0.0,0.0,0.0,0.0,0.0,0.0,0.0,0.0,0.0,0.0,-0.8993,-1.1201,-1.1632,-1.3034,-1.5579,-1.5436,-1.5411,0.0,0.0,0.0,0.0,0.0,0.0,0.0,0.0,0.0,0.0,0.0,0.0,0.0,0.0,0.0,0.0,0.0,0.0,0.0,0.0,0.0,0.0,0.0,0.0,0.0,0.0,0.0,0.0,0.0,0.0,0.0,0.0,0.0,0.0,0.0,0.0,0.0,0.0,0.0,0.0,0.0,0.0,0.0,0.0,0.0,0.0,0.0,0.0,0.0,0.0,0.0,0.0,0.0,0.0,0.0,0.0,0.0,0.0,0.0,0.0,0.0,0.0,0.0,0.0,0.0,0.0,0.0,0.0,0.0,0.0,0.0,0.0,0.0,0.0,0.0,0.0,0.0,0.0,0.0,0.0,0.0,0.0,0.0,0.0,0.0,0.0,0.0,0.0,0.0,0.0,0.0,0.0,0.0,0.0,0.0,0.0,0.0,0.0,0.0,0.0,0.0,0.0,0.0,0.0,0.0,0.0,0.0,-0.8122,-0.9446,-1.1579,-1.2066,-1.3307,-1.5486,-1.5563,-1.5569,-1.5539,0.0,0.0,0.0,0.0,0.0,0.0,0.0,0.0,0.0,0.0,0.0,0.0,0.0,0.0,0.0,0.0,0.0,0.0,0.0,0.0,0.0,0.0,0.0,0.0,0.0,0.0,0.0,0.0,0.0,0.0,0.0,0.0,0.0,0.0,0.0,0.0,0.0,0.0,-1.1629,-1.2517,0.0,0.0,0.0,0.0,0.0,0.0,0.0,0.0,-1.5925,0.0,0.0,0.0,0.0,0.0,0.0,0.0,0.0,0.0,0.0,0.0,0.0,0.0,0.0,0.0,0.0,0.0,0.0,0.0,0.0,0.0,0.0,0.0,0.0,0.0,0.0,0.0,0.0,0.0,0.0,0.0,0.0,0.0,0.0,0.0,0.0,0.0,0.0,0.0,0.0,0.0,0.0,0.0,0.0,0.0,0.0,0.0,0.0,0.0,0.0,0.0,0.0,0.0,0.0,0.0,0.0,-0.8162,-0.9153,-1.0584,-1.2376,-1.3163,-1.4268,-1.5669,-1.5349,-1.5141,-1.5272,0.0,0.0,0.0,0.0,0.0,0.0,0.0,0.0,0.0,0.0,0.0,0.0,0.0,0.0,0.0,0.0,0.0,0.0,0.0,0.0,0.0,0.0,0.0,0.0,0.0,0.0,0.0,0.0,0.0,0.0,0.0,0.0,0.0,0.0,0.0,0.0,0.0,0.0,0.0,-1.2305,-1.3401,0.0,0.0,0.0,0.0,0.0,0.0,0.0,0.0,-1.6758,0.0,0.0,0.0,0.0,0.0,0.0,0.0,0.0,0.0,0.0,0.0,0.0,0.0,0.0,0.0,0.0,0.0,0.0,0.0,0.0,0.0,0.0,0.0,0.0,0.0,0.0,0.0,0.0,0.0,0.0,0.0,0.0,0.0,0.0,0.0,0.0,0.0,0.0,0.0,0.0,0.0,0.0,0.0,0.0,0.0,0.0,0.0,0.0,0.0,0.0,0.0,0.0,0.0,0.0,0.0,-0.846,-0.9769,-1.1184,-1.2622,-1.3611,-1.4553,-1.5558,-1.5044,-1.4803,0.0,0.0,0.0,0.0,0.0,0.0,0.0,0.0,0.0,0.0,0.0,0.0,0.0,0.0,0.0,0.0,0.0,0.0,0.0,0.0,0.0,0.0,0.0,0.0,0.0,0.0,0.0,0.0,0.0,0.0,0.0,0.0,0.0,0.0,0.0,0.0,0.0,0.0,0.0,0.0,-1.21,-1.3432,-1.4273,0.0,0.0,0.0,0.0,0.0,0.0,-1.6807,-1.7116,0.0,0.0,0.0,0.0,0.0,0.0,0.0,0.0,0.0,0.0,0.0,0.0,0.0,0.0,0.0,0.0,0.0,0.0,0.0,0.0,0.0,0.0,0.0,0.0,0.0,0.0,0.0,0.0,0.0,0.0,0.0,0.0,0.0,0.0,0.0,0.0,0.0,0.0,0.0,0.0,0.0,0.0,0.0,0.0,0.0,0.0,0.0,0.0,0.0,0.0,0.0,0.0,0.0,0.0,0.0,-0.8903,-1.0342,-1.1669,-1.2881,-1.3915,-1.4744,-1.5258,-1.4683,-1.4447,0.0,0.0,0.0,0.0,0.0,0.0,0.0,0.0,0.0,0.0,0.0,0.0,0.0,0.0,0.0,0.0,0.0,0.0,0.0,0.0,0.0,0.0,0.0,0.0,0.0,0.0,0.0,0.0,0.0,0.0,0.0,0.0,0.0,0.0,0.0,0.0,0.0,0.0,0.0,0.0,0.0,-1.3455,-1.4395,-1.5782,0.0,0.0,0.0,0.0,-1.6794,-1.7103,0.0,0.0,0.0,0.0,0.0,0.0,0.0,0.0,0.0,0.0,0.0,0.0,0.0,0.0,0.0,0.0,0.0,0.0,0.0,0.0,0.0,0.0,0.0,0.0,0.0,0.0,0.0,0.0,0.0,0.0,0.0,0.0,0.0,0.0,0.0,0.0,0.0,0.0,0.0,0.0,0.0,0.0,0.0,0.0,0.0,0.0,0.0,0.0,0.0,0.0,0.0,0.0,0.0,0.0,0.0,0.0,-0.9749,-1.1037,-1.2297,-1.3567,-1.4453,-1.496,-1.5048,-1.4188,-1.4029,0.0,0.0,0.0,0.0,0.0,0.0,0.0,0.0,0.0,0.0,0.0,0.0,0.0,0.0,0.0,0.0,0.0,0.0,0.0,0.0,0.0,0.0,0.0,0.0,0.0,0.0,0.0,0.0,0.0,0.0,0.0,0.0,0.0,0.0,0.0,0.0,0.0,0.0,0.0,0.0,0.0,-1.3468,-1.3918,-1.5566,-1.6693,0.0,0.0,-1.7146,-1.7146,-1.7804,0.0,0.0,0.0,0.0,0.0,0.0,0.0,0.0,0.0,0.0,0.0,0.0,0.0,0.0,0.0,0.0,0.0,0.0,0.0,0.0,0.0,0.0,0.0,0.0,0.0,0.0,0.0,0.0,0.0,0.0,0.0,0.0,0.0,0.0,0.0,0.0,0.0,0.0,0.0,0.0,0.0,0.0,0.0,0.0,0.0,0.0,0.0,0.0,0.0,0.0,0.0,0.0,0.0,0.0,0.0,-0.8769,-0.9843,-1.1214,-1.2608,-1.3992,-1.4797,-1.5516,-1.6045,-1.4678,-1.446,0.0,0.0,0.0,0.0,0.0,0.0,0.0,0.0,0.0,0.0,0.0,0.0,0.0,0.0,0.0,0.0,0.0,0.0,0.0,0.0,0.0,0.0,0.0,0.0,0.0,0.0,0.0,0.0,0.0,0.0,0.0,0.0,0.0,0.0,0.0,0.0,0.0,0.0,0.0,0.0,0.0,0.0,-1.4584,-1.6005,0.0,0.0,0.0,-1.7326,-1.6947,0.0,0.0,0.0,0.0,0.0,0.0,0.0,0.0,0.0,0.0,0.0,0.0,0.0,0.0,0.0,0.0,0.0,0.0,0.0,0.0,0.0,0.0,0.0,0.0,0.0,0.0,0.0,0.0,0.0,0.0,0.0,0.0,0.0,0.0,0.0,0.0,0.0,0.0,0.0,0.0,0.0,0.0,0.0,0.0,0.0,0.0,0.0,0.0,0.0,0.0,0.0,0.0,0.0,0.0,0.0,0.0,0.0,-1.0223,-1.1581,-1.2934,-1.4306,-1.4877,-1.5669,-1.6557,-1.5139,0.0,0.0,0.0,0.0,0.0,0.0,0.0,0.0,0.0,0.0,0.0,0.0,0.0,0.0,0.0,0.0,0.0,0.0,0.0,0.0,0.0,0.0,0.0,0.0,0.0,0.0,0.0,-1.3874,0.0,0.0,0.0,0.0,0.0,0.0,0.0,0.0,0.0,0.0,0.0,0.0,0.0,0.0,-1.515,-1.5263,-1.6394,-1.7226,0.0,0.0,-1.7235,-1.6874,-1.7959,-1.851,0.0,0.0,0.0,0.0,0.0,0.0,0.0,0.0,0.0,0.0,0.0,0.0,0.0,0.0,0.0,0.0,0.0,0.0,0.0,0.0,0.0,0.0,0.0,0.0,0.0,0.0,0.0,0.0,0.0,0.0,0.0,0.0,0.0,0.0,0.0,0.0,0.0,0.0,0.0,0.0,0.0,0.0,0.0,0.0,0.0,0.0,0.0,0.0,0.0,0.0,0.0,0.0,0.0,0.0,0.0,-1.1393,-1.2409,-1.3448,-1.4434,-1.4546,-1.5005,-1.5835,-1.5173,-1.5064,0.0,0.0,0.0,0.0,0.0,0.0,0.0,0.0,0.0,0.0,0.0,0.0,0.0,0.0,0.0,0.0,0.0,0.0,0.0,0.0,0.0,0.0,0.0,0.0,0.0,0.0,0.0,0.0,0.0,0.0,0.0,0.0,0.0,0.0,0.0,0.0,0.0,0.0,0.0,0.0,0.0,-1.5588,-1.5555,-1.651,-1.7293,0.0,0.0,-1.6847,-1.7139,-1.8156,-1.8569,-1.7652,0.0,0.0,0.0,0.0,0.0,0.0,0.0,0.0,0.0,0.0,0.0,0.0,0.0,0.0,0.0,0.0,0.0,0.0,0.0,0.0,0.0,0.0,0.0,0.0,0.0,0.0,0.0,0.0,0.0,0.0,0.0,0.0,0.0,0.0,0.0,0.0,0.0,0.0,0.0,0.0,0.0,0.0,0.0,0.0,0.0,0.0,0.0,0.0,0.0,0.0,0.0,0.0,0.0,-1.0948,-1.1619,-1.2391,-1.3703,-1.5528,-1.5155,-1.5757,-1.7425,-1.6205,-1.5811,0.0,0.0,0.0,0.0,0.0,0.0,0.0,0.0,0.0,0.0,0.0,0.0,0.0,0.0,0.0,0.0,0.0,0.0,0.0,0.0,0.0,0.0,0.0,0.0,0.0,0.0,0.0,0.0,-1.602,-1.6249,-1.5453,0.0,0.0,0.0,0.0,0.0,0.0,0.0,0.0,0.0,0.0,-1.6174,-1.6523,-1.7103,0.0,0.0,-1.8085,-1.8018,-1.7943,-1.8618,-1.8847,-1.791,-1.7893,0.0,0.0,0.0,0.0,0.0,0.0,0.0,0.0,0.0,0.0,0.0,0.0,0.0,0.0,0.0,0.0,0.0,0.0,0.0,0.0,0.0,0.0,0.0,0.0,0.0,0.0,0.0,0.0,0.0,0.0,0.0,0.0,0.0,0.0,0.0,0.0,0.0,0.0,0.0,0.0,0.0,0.0,0.0,0.0,0.0,0.0,0.0,0.0,0.0,0.0,0.0,0.0,-1.149,-1.1879,-1.2943,-1.4291,-1.593,-1.5712,-1.6399,-1.799,-1.686,-1.6404,0.0,0.0,0.0,0.0,0.0,0.0,0.0,0.0,0.0,0.0,0.0,0.0,0.0,0.0,0.0,0.0,0.0,0.0,0.0,0.0,0.0,0.0,0.0,0.0,0.0,0.0,0.0,0.0,-1.6658,-1.6657,-1.5256,0.0,0.0,0.0,0.0,0.0,0.0,0.0,0.0,0.0,0.0,-1.6896,-1.7272,-1.7479,-1.7767,-1.8284,-1.8429,-1.8464,-1.8429,-1.883,-1.8969,-1.8311,0.0,0.0,0.0,0.0,0.0,0.0,0.0,0.0,0.0,0.0,0.0,0.0,0.0,0.0,0.0,0.0,0.0,0.0,0.0,0.0,0.0,0.0,0.0,0.0,0.0,0.0,0.0,0.0,0.0,0.0,-1.0561,0.0,0.0,0.0,0.0,0.0,0.0,0.0,0.0,0.0,0.0,0.0,0.0,0.0,0.0,0.0,0.0,0.0,0.0,0.0,0.0,0.0,0.0,-1.2268,-1.2325,-1.4297,-1.5318,-1.5298,-1.6049,-1.6685,-1.7192,-1.6826,-1.6683,-1.6874,0.0,0.0,0.0,0.0,0.0,0.0,0.0,0.0,0.0,0.0,0.0,0.0,0.0,0.0,0.0,0.0,0.0,0.0,0.0,0.0,0.0,0.0,0.0,0.0,0.0,0.0,-1.5974,-1.6901,-1.7037,0.0,0.0,0.0,0.0,0.0,0.0,0.0,0.0,0.0,0.0,-1.7267,-1.7841,-1.7504,-1.747,-1.7652,-1.7974,-1.7764,-1.7757,-1.8345,-1.8712,-1.8869,0.0,0.0,0.0,0.0,0.0,0.0,0.0,0.0,0.0,0.0,0.0,0.0,0.0,0.0,0.0,0.0,0.0,0.0,0.0,0.0,0.0,0.0,0.0,0.0,0.0,0.0,0.0,-1.0332,-1.0392,0.0,0.0,0.0,0.0,0.0,0.0,0.0,0.0,0.0,0.0,0.0,-1.3306,-1.3543,0.0,0.0,0.0,0.0,0.0,0.0,0.0,0.0,0.0,0.0,0.0,0.0,-1.3178,-1.3265,-1.4954,-1.6116,-1.6621,-1.6439,-1.6673,-1.7374,-1.7036,-1.6569,-1.612,0.0,0.0,0.0,0.0,0.0,0.0,0.0,0.0,0.0,0.0,0.0,0.0,0.0,0.0,0.0,0.0,0.0,0.0,0.0,0.0,0.0,0.0,0.0,0.0,0.0,-1.6233,0.0,0.0,0.0,0.0,0.0,0.0,0.0,0.0,0.0,0.0,0.0,-1.6271,-1.6759,-1.7107,-1.7386,-1.7491,-1.7662,-1.8024,0.0,0.0,0.0,0.0,0.0,0.0,0.0,0.0,0.0,0.0,0.0,0.0,0.0,0.0,-1.9023,-1.8277,-1.8363,-1.8328,-1.7911,0.0,0.0,0.0,0.0,0.0,0.0,0.0,0.0,0.0,0.0,0.0,0.0,0.0,0.0,-1.1246,0.0,-1.1075,0.0,0.0,0.0,0.0,0.0,0.0,0.0,0.0,-1.2637,-1.3339,-1.4403,-1.4691,-1.5233,0.0,-1.5319,-1.4336,0.0,0.0,0.0,0.0,0.0,0.0,0.0,0.0,-1.3569,-1.4,-1.5539,-1.6641,-1.7149,-1.6822,-1.6838,-1.7249,-1.6908,-1.6386,-1.5716,-1.5514,-1.5196,0.0,0.0,0.0,0.0,0.0,0.0,0.0,0.0,0.0,0.0,0.0,0.0,0.0,0.0,0.0,0.0,0.0,0.0,0.0,0.0,0.0,0.0,0.0,-1.7192,0.0,0.0,0.0,0.0,0.0,0.0,0.0,0.0,0.0,-1.6126,-1.6388,-1.689,-1.7662,-1.7676,-1.764,-1.774,0.0,0.0,0.0,0.0,0.0,0.0,0.0,-1.9169,-1.9272,-1.9213,-1.936,-1.9989,-2.0179,-2.0183,-2.0183,0.0,0.0,-1.9425,-1.9381,-1.9345,-1.9023,-1.9038,-1.8877,-1.8138,-1.8152,-1.8174,0.0,0.0,0.0,0.0,0.0,0.0,0.0,0.0,-1.2431,-1.2766,0.0,-1.2115,0.0,0.0,0.0,0.0,0.0,0.0,0.0,0.0,-1.3998,-1.4445,-1.5152,-1.5189,-1.5401,-1.5813,-1.5806,-1.5782,-1.5726,-1.3875,0.0,0.0,0.0,0.0,0.0,0.0,-1.36,-1.4645,-1.6092,-1.6809,-1.6838,-1.7242,-1.7293,-1.6917,-1.6523,-1.6153,-1.5762,-1.5909,-1.56,-1.4823,-1.5468,0.0,0.0,0.0,0.0,0.0,0.0,0.0,0.0,0.0,0.0,0.0,0.0,0.0,0.0,0.0,0.0,0.0,0.0,0.0,0.0,-1.672,0.0,0.0,0.0,0.0,0.0,0.0,0.0,0.0,0.0,0.0,-1.7077,-1.7251,-1.7872,-1.8765,0.0,0.0,0.0,0.0,-1.8182,-1.7925,-1.8123,-1.8452,-1.8789,-1.9345,-1.9835,-2.0142,0.0,0.0,-2.0713,-2.0409,-2.0234,-2.0227,-2.0523,-2.0562,-2.0296,-1.9996,-1.9771,-1.9411,-1.9111,-1.8738,-1.8438,-1.8408,-1.8372,-1.262,0.0,0.0,0.0,0.0,-1.3312,-1.3845,-1.4462,-1.5016,-1.5134,-1.4874,-1.4645,0.0,0.0,0.0,0.0,0.0,0.0,-1.4194,-1.4767,-1.4777,-1.5483,-1.6731,-1.674,-1.7273,-1.8232,-1.7522,-1.7284,-1.7315,-1.6053,-1.4858,-1.3691,0.0,0.0,0.0,0.0,-1.5205,-1.5586,-1.6704,-1.7306,-1.7297,-1.7142,-1.7018,-1.6908,-1.6934,-1.6749,-1.6338,-1.6116,-1.6019,-1.6048,-1.5816,0.0,0.0,0.0,0.0,0.0,0.0,0.0,0.0,0.0,0.0,0.0,0.0,0.0,0.0,0.0,0.0,0.0,0.0,0.0,-1.6063,-1.7445,-1.8435,0.0,0.0,0.0,0.0,0.0,0.0,0.0,0.0,0.0,-2.0136,-1.9285,-1.8739,0.0,0.0,-1.7977,-1.7647,-1.7808,-1.8086,-1.8452,0.0,0.0,0.0,-1.9447,-1.958,-1.985,-2.0355,-2.0664,-2.0664,-2.0837,-2.0933,-2.0918,-2.0815,-2.0684,-2.0611,-2.0516,-2.0398,-2.0296,-1.9864,-1.9529,-1.9412,-1.9169,-1.8986,-1.3699,-1.3758,-1.3008,-1.3,-1.3586,-1.4261,-1.4844,-1.54,-1.593,-1.6137,-1.6008,-1.5808,-1.5638,-1.5576,-1.5246,0.0,0.0,0.0,-1.5195,-1.5799,-1.551,-1.6043,-1.7147,-1.7202,-1.7667,-1.853,-1.7965,-1.7812,-1.8039,-1.7443,-1.6501,-1.529,0.0,0.0,-1.4368,-1.5223,-1.5878,-1.6289,-1.6952,-1.7339,-1.7486,-1.711,-1.6835,-1.667,-1.6632,-1.6533,-1.6362,-1.6227,-1.6213,-1.6457,-1.6389,-1.6464,0.0,0.0,0.0,0.0,0.0,0.0,0.0,0.0,0.0,0.0,0.0,-1.6181,-1.4943,0.0,0.0,0.0,-1.511,-1.5916,-1.7181,-1.8368,0.0,0.0,0.0,0.0,0.0,0.0,0.0,-2.1873,-2.2591,-2.288,-2.2309,-2.1497,-2.063,-1.9636,-1.9113,-1.8604,-1.7981,0.0,-1.8299,-1.8562,-1.8708,-1.8928,-1.9308,-1.9433,-1.9639,-1.9894,-2.0267,-2.0467,-2.0537,-2.0643,-2.0815,-2.0801,-2.0606,-2.0475,-2.0475,-2.0435,-2.0347,-2.0333,-1.993,-1.9639,-1.9625,-1.9456,-1.9272,-1.4819,-1.532,-1.4023,-1.3538,-1.366,-1.4732,-1.5259,-1.538,-1.5909,-1.6312,-1.6611,-1.6117,-1.6171,-1.6643,-1.6473,0.0,-1.6874,-1.6193,-1.6219,-1.6864,-1.6193,-1.6228,-1.6864,-1.6917,-1.7092,-1.7458,-1.744,-1.7688,-1.8081,-1.8063,-1.7679,-1.7002,-1.5886,-1.5659,-1.6203,-1.5663,-1.5857,-1.681,-1.689,-1.7101,-1.7477,-1.7138,-1.6752,-1.6331,-1.5941,-1.5876,-1.5984,-1.6201,-1.6301,-1.6386,-1.7039,-1.714,-1.6624,0.0,0.0,0.0,0.0,0.0,0.0,0.0,0.0,0.0,0.0,0.0,0.0,0.0,0.0,0.0,-1.7388,0.0,-1.8099,-1.9477,0.0,0.0,0.0,-2.1639,-2.2568,-2.3018,-2.3408,-2.3799,0.0,0.0,-2.3695,0.0,-2.3149,-2.1794,-2.0977,-2.0153,-1.9149,-1.8983,-1.883,-1.8607,-1.8678,-1.8876,-1.8935,-1.9426,-1.9835,-2.0142,-2.0183,-2.0197,-2.0205,-2.0212,-2.0197,-2.0227,-2.0168,-2.0194,-2.0146,-1.9952,-1.9771,-1.9696,-1.9484,-1.9279,-1.9294,-1.9272,-1.9191,-1.4269,-1.4887,-1.5047,-1.5389,-1.5762,-1.6042,-1.6536,-1.7203,-1.7755,-1.7931,-1.7791,-1.7657,-1.7468,-1.7279,-1.7232,-1.7101,-1.6908,-1.6726,-1.6726,-1.6864,-1.6726,-1.6726,-1.6908,-1.6908,-1.6954,-1.7046,-1.7046,-1.7422,-1.8045,-1.7798,-1.7706,-1.777,-1.6947,-1.6257,-1.5849,-1.5981,-1.619,-1.6425,-1.6752,-1.7092,-1.7477,-1.7403,-1.7027,-1.6306,-1.6364,-1.6275,-1.6024,-1.6191,-1.6528,-1.695,-1.6736,-1.6726,-1.7045,-1.7462,0.0,0.0,0.0,0.0,0.0,0.0,0.0,0.0,0.0,-1.721,-1.6104,0.0,-1.6875,0.0,-1.8701,-1.9591,-1.9918,-2.0595,0.0,0.0,-2.2207,-2.2633,-2.3783,-2.4062,-2.416,-2.4258,-2.4648,-2.4904,-2.4764,-2.4726,-2.442,-2.3555,-2.2408,-2.1425,-2.0922,-2.0334,-1.9987,-1.9825,-1.9415,-1.9206,-1.9199,-1.9544,-1.9903,-2.0179,-2.0176,-2.0183,-2.0183,-2.0183,-2.0183,-2.0168,-2.0033,-1.9894,-1.9911,-1.9616,-1.936,-1.9103,-1.9155,-1.9199,-1.8957,-1.8906,-1.884,-1.4821,-1.5171,-1.5534,-1.5805,-1.602,-1.6275,-1.6549,-1.6877,-1.7226,-1.7471,-1.765,-1.78,-1.7842,-1.7715,-1.7394,-1.7211,-1.7156,-1.6991,-1.6908,-1.6908,-1.6908,-1.6908,-1.6908,-1.6908,-1.6908,-1.6908,-1.7082,-1.7303,-1.7542,-1.7706,-1.7715,-1.7587,-1.7303,-1.6771,-1.6001,-1.6019,-1.6037,-1.6046,-1.6606,-1.7183,-1.7734,-1.7422,-1.6853,-1.6056,-1.6027,-1.589,-1.5567,-1.5679,-1.6012,-1.6579,-1.6283,-1.6148,-1.6245,-1.6911,-1.7111,0.0,0.0,0.0,0.0,0.0,0.0,0.0,0.0,0.0,0.0,0.0,-1.8254,0.0,-2.0039,-2.081,-2.0859,-2.1602,-2.2363,-2.3018,-2.3428,-2.4014,-2.4912,-2.4953,-2.4953,-2.4962,-2.5049,-2.5059,-2.5059,-2.494,-2.4656,-2.4259,-2.3555,-2.2577,-2.1231,-2.05,-1.9982,-1.9502,-1.9119,-1.884,-1.884,-1.9118,-1.9381,-1.9557,-1.9718,-1.9806,-1.9806,-1.9689,-1.9594,-1.9572,-1.933,-1.9111,-1.9103,-1.8979,-1.8774,-1.8664,-1.8716,-1.876,-1.8613,-1.8577,-1.8503,-1.5511,-1.5605,-1.5674,-1.5567,-1.5415,-1.5863,-1.5865,-1.5572,-1.5572,-1.6009,-1.674,-1.718,-1.7596,-1.7889,-1.7229,-1.7092,-1.7394,-1.7055,-1.6908,-1.6908,-1.6908,-1.6881,-1.6835,-1.6835,-1.6835,-1.681,-1.7183,-1.722,-1.7009,-1.7651,-1.7605,-1.6945,-1.7202,-1.6972,-1.6257,-1.5872,-1.5716,-1.578,-1.6523,-1.7248,-1.7898,-1.722,-1.6413,-1.5601,-1.54,-1.5151,-1.4892,-1.5008,-1.5325,-1.5836,-1.5872,-1.5713,-1.5426,-1.6336,-1.6965,0.0,-1.728,0.0,0.0,0.0,0.0,0.0,0.0,0.0,0.0,-1.9443,-1.9717,-2.0127,-2.126,-2.1836,-2.1473,-2.2549,-2.3408,-2.3828,-2.4541,-2.5166,-2.5586,-2.5547,-2.5528,-2.5528,-2.5225,-2.498,-2.5008,-2.4639,-2.4424,-2.437,-2.4246,-2.3289,-2.1225,-2.0378,-1.9779,-1.8629,-1.8397,-1.8379,-1.8386,-1.8569,-1.8745,-1.8767,-1.8972,-1.914,-1.9147,-1.8928,-1.8738,-1.8723,-1.8555,-1.8357,-1.8306,-1.8328,-1.8306,-1.8255,-1.8255,-1.8262,-1.824,-1.824,-1.8225,-1.4474,-1.5018,-1.5481,-1.5529,-1.5234,-1.5362,-1.5158,-1.4805,-1.4805,-1.516,-1.5808,-1.6315,-1.6739,-1.7084,-1.6972,-1.6945,-1.7018,-1.6936,-1.6908,-1.6908,-1.6908,-1.6734,-1.6407,-1.6431,-1.6389,-1.6441,-1.6505,-1.6835,-1.7385,-1.722,-1.7055,-1.6899,-1.6661,-1.6294,-1.5835,0.0,0.0,0.0,-1.667,-1.6982,-1.7119,-1.6636,-1.5858,-1.479,-1.5076,0.0,-1.4267,-1.507,-1.5599,-1.5639,-1.5671,0.0,0.0,0.0,0.0,0.0,0.0,0.0,0.0,0.0,0.0,0.0,-1.8586,-1.8869,-1.9291,-2.0254,-2.1005,-2.1484,-2.2051,-2.25,-2.2711,-2.331,-2.3838,-2.4248,-2.4443,-2.4717,-2.5117,-2.4893,-2.4668,-2.4668,-2.459,-2.4541,-2.4531,-2.4463,-2.4404,-2.4355,-2.4121,-2.3391,-2.2131,-2.135,-2.0674,-1.9731,-1.8822,-1.8333,-1.8299,-1.8392,-1.8394,-1.8401,-1.8423,-1.8503,-1.8518,-1.8467,-1.8394,-1.8386,-1.8343,-1.8284,-1.8284,-1.8299,-1.8167,-1.7955,-1.7896,-1.7911,-1.7911,-1.7911,-1.783,-1.4291,0.0,-1.513,-1.5208,0.0,-1.4808,-1.4636,-1.4361,-1.4541,-1.4905,-1.541,-1.6009,-1.6412,-1.6612,-1.6595,-1.6615,-1.6572,-1.6404,-1.6303,-1.6303,-1.6303,-1.6202,-1.601,-1.601,-1.612,-1.6288,-1.6288,-1.659,-1.7165,-1.7009,-1.6908,-1.6908,-1.6707,-1.6496,-1.6294,-1.6285,-1.6395,-1.6606,-1.6807,-1.7101,-1.7432,-1.6917,-1.6187,-1.5432,0.0,0.0,0.0,0.0,0.0,0.0,0.0,0.0,0.0,0.0,0.0,-2.0012,-2.0062,-2.0354,-2.1023,-2.0505,-1.9921,-1.9399,-1.9621,-1.9889,-2.0195,-2.1395,-2.2223,-2.2438,-2.2705,-2.2857,-2.3081,-2.3525,-2.3877,-2.4082,-2.4297,-2.4512,-2.4687,-2.456,-2.4424,-2.4394,-2.4238,-2.4111,-2.4102,-2.3861,-2.3754,-2.3734,-2.3569,-2.3111,-2.2151,-2.1322,-2.0432,-1.9548,-1.8941,-1.8575,-1.8495,-1.826,-1.8057,-1.8072,-1.8196,-1.8291,-1.8299,-1.8167,-1.8064,-1.805,-1.794,-1.7823,-1.7808,-1.7699,-1.7582,-1.7538,-1.7318,-1.7186,-1.7304,-1.7465,-1.753,-1.4298,-1.3899,-1.4731,-1.486,-1.4421,-1.4455,-1.4354,-1.4186,0.0,0.0,0.0,-1.5816,-1.6167,-1.6289,-1.6287,-1.6285,-1.626,-1.5955,-1.5762,-1.5689,-1.5689,-1.5652,-1.5588,-1.5652,-1.5872,-1.6202,-1.6251,-1.6489,-1.6899,-1.6908,-1.6908,-1.6908,-1.6908,-1.6908,-1.6908,-1.6908,-1.6908,-1.6899,-1.6835,-1.7128,-1.7761,-1.7073,-1.6505,-1.6111,-1.5645,-1.5148,-1.4644,-1.4891,-1.5272,-1.5673,-1.5801,-1.6171,-1.6845,-1.7623,-1.8573,-1.9722,-2.0012,-2.0665,-2.191,-2.1452,-2.0902,-2.0421,-2.0429,-2.0703,-2.1259,-2.234,-2.3023,-2.3091,-2.3101,-2.3091,-2.3101,-2.3447,-2.3711,-2.3789,-2.4033,-2.4199,-2.4277,-2.4183,-2.415,-2.415,-2.3867,-2.3672,-2.3662,-2.3335,-2.3101,-2.3101,-2.3149,-2.2784,-2.1828,-2.0916,-2.0036,-1.9366,-1.8976,-1.8781,-1.8705,-1.8151,-1.7768,-1.7695,-1.794,-1.8101,-1.8021,-1.783,-1.7647,-1.7508,-1.7326,-1.7186,-1.7143,-1.6974,-1.6917,-1.7099,-1.6755,-1.6492,-1.6756,-1.6974,-1.7128,-1.3879,-1.384,-1.4436,-1.4621,-1.4569,-1.4569,-1.4573,-1.451,-1.4458,-1.4604,-1.4957,-1.524,-1.57,-1.6307,-1.628,-1.6291,-1.6288,-1.6224,-1.6037,0.0,-1.5689,-1.5505,-1.5212,-1.5533,-1.5716,-1.5808,-1.6114,-1.6514,-1.6872,-1.6908,-1.6908,-1.6908,-1.6908,-1.6908,-1.6908,-1.6908,-1.6908,-1.6899,-1.6578,-1.645,-1.656,-1.6111,-1.568,-1.5317,-1.5635,-1.5429,-1.4636,-1.5094,-1.5434,-1.5594,-1.5625,-1.6354,-1.7871,-1.8621,-1.9764,-2.1417,-2.2154,-2.2611,-2.2827,-2.2742,-2.2091,-2.0767,-2.026,-2.0508,-2.1689,-2.2285,-2.2711,-2.3042,-2.3081,-2.3101,-2.3101,-2.3159,-2.3398,-2.3691,-2.3506,-2.3422,-2.3818,-2.3539,-2.3335,-2.3335,-2.3227,-2.3208,-2.3218,-2.313,-2.3062,-2.3091,-2.3101,-2.2775,-2.1889,-2.0827,-2.0232,-1.9923,-1.933,-1.888,-1.8711,-1.7994,-1.746,-1.7352,-1.7443,-1.7413,-1.7218,-1.713,-1.6991,-1.6652,-1.6661,-1.6565,-1.655,-1.6521,-1.6529,-1.6602,-1.6455,-1.6389,-1.6463,-1.6484,-1.6558,-1.3506,-1.3869,-1.4382,-1.4494,-1.4304,-1.4148,-1.4137,-1.4304,-1.4258,-1.4437,-1.4755,-1.5059,-1.53,-1.5454,-1.5598,-1.5566,-1.5377,-1.5337,-1.5239,-1.5056,-1.5047,-1.4955,-1.4836,-1.5184,-1.5478,-1.5689,-1.5872,-1.6303,-1.6835,-1.6697,-1.6697,-1.689,-1.6908,-1.6908,-1.6908,-1.6908,-1.6908,-1.6908,-1.6725,-1.6608,-1.6599,-1.645,-1.6266,-1.6074,-1.6132,-1.5929,-1.5535,-1.5847,-1.6397,-1.7108,-1.7185,-1.7882,-1.9287,-1.9877,-2.0482,-2.132,-2.209,-2.2578,-2.259,-2.1856,-2.1236,-2.0717,-1.9758,-1.9668,-2.0732,-2.1855,-2.2598,-2.274,-2.2955,-2.3101,-2.3101,-2.3101,-2.3179,-2.3418,-2.3208,-2.3179,-2.3325,-2.3237,-2.3101,-2.3101,-2.3101,-2.3101,-2.3101,-2.2896,-2.2867,-2.3033,-2.3101,-2.2829,-2.2216,-2.1733,-2.1094,-2.0369,-1.9824,-1.9376,-1.888,-1.7971,-1.7353,-1.7106,-1.7069,-1.6983,-1.6705,-1.6639,-1.6573,-1.6455,-1.6404,-1.6411,-1.6397,-1.6221,-1.6206,-1.636,-1.6045,-1.595,-1.6045,-1.5994,-1.5979,-1.355,-1.4006,-1.4339,-1.428,-1.3982,-1.3703,-1.3743,-1.3982,-1.3989,-1.4148,-1.4422,-1.4793,-1.4846,-1.4737,-1.4837,-1.4798,-1.4649,-1.4628,-1.4599,-1.4494,-1.4598,-1.4643,-1.4689,-1.5047,-1.5432,-1.5808,-1.5918,-1.6294,-1.6807,-1.6562,-1.6551,-1.6762,-1.6862,-1.6862,-1.6745,-1.6862,-1.6908,-1.6908,-1.6908,-1.6908,-1.6908,-1.6908,-1.6908,-1.689,-1.6776,-1.6639,-1.6561,-1.6828,-1.7453,-1.8407,-1.8576,-1.9144,-2.0205,-2.0647,-2.0887,-2.0995,-2.1701,-2.2154,-2.2135,-2.1051,-2.0456,-2.0742,-1.9689,-1.9268,-2.0009,-2.135,-2.2227,-2.2233,-2.2623,-2.2906,-2.2828,-2.3003,-2.3062,-2.2974,-2.3042,-2.3101,-2.3101,-2.3101,-2.3101,-2.3101,-2.3101,-2.3101,-2.3023,-2.273,-2.2607,-2.273,-2.2886,-2.2789,-2.2471,-2.2432,-2.1887,-2.0713,-2.0142,-1.983,-1.9115,-1.8334,-1.7742,-1.7493,-1.7575,-1.7392,-1.6978,-1.6731,-1.6548,-1.6401,-1.6372,-1.6306,-1.6198,-1.5972,-1.5906,-1.6016,-1.5694,-1.5352,-1.5474,-1.5372,-1.5431,-1.4453,-1.4478,-1.4264,-1.3958,-1.3673,-1.3584,-1.3618,-1.3673,-1.3632,-1.3681,-1.3825,-1.4048,-1.4383,-1.4636,-1.4413,-1.4371,-1.4608,-1.4996,-1.4881,-1.4565,-1.4882,-1.5047,-1.5065,-1.545,-1.5845,-1.6257,-1.6587,-1.678,-1.6899,-1.6862,-1.6679,-1.6416,-1.6725,-1.6734,-1.6468,-1.6734,-1.6908,-1.6908,-1.6908,-1.6908,-1.6908,-1.6908,-1.6908,-1.6908,-1.7497,-1.7658,-1.7284,-1.7892,-1.8365,-1.8631,-1.8709,-1.9089,-1.991,-2.0442,-2.082,-2.1085,-2.1609,-2.1987,-2.2123,-2.1463,-2.0987,-2.1026,-2.0426,-2.0114,-2.0262,-2.0905,-2.1307,-2.1434,-2.2048,-2.2402,-2.2119,-2.2656,-2.2867,-2.2627,-2.2818,-2.3101,-2.3042,-2.3101,-2.3101,-2.3101,-2.3013,-2.3091,-2.3042,-2.273,-2.2383,-2.21,-2.2373,-2.2422,-2.2051,-2.2187,-2.1876,-2.0674,-2.0026,-1.9838,-1.9709,-1.9276,-1.8707,-1.9029,-1.9253,-1.8518,-1.7624,-1.7568,-1.782,-1.6385,-1.6277,-1.6451,-1.5838,-1.5482,-1.5467,-1.5452,-1.5218,-1.4885,-1.4699,-1.4687,-1.4882,-1.431,-1.4565,-1.426,-1.3791,-1.3298,-1.3108,-1.3243,-1.3602,-1.361,-1.3807,-1.4172,-1.4148,-1.41,-1.4044,-1.3893,-1.4028,-1.4321,-1.4446,-1.4509,-1.4532,-1.4912,-1.5101,-1.5144,-1.5771,-1.6166,-1.634,-1.6716,-1.6908,-1.6908,-1.6908,-1.6817,-1.6697,-1.68,-1.6826,-1.6688,-1.6826,-1.6908,-1.6908,-1.6908,-1.6908,-1.6908,-1.6908,-1.6908,-1.6978,-1.7638,-1.7934,-1.7868,-1.8393,-1.8996,-1.9486,-1.9527,-1.9894,-2.0653,-2.0962,-2.1148,-2.1295,-2.167,-2.1925,-2.1999,-2.1431,-2.1103,-2.1103,-2.0361,-1.9937,-1.9943,-2.0255,-2.0411,-2.0586,-2.1484,-2.206,-2.1924,-2.2197,-2.2334,-2.2187,-2.2305,-2.2412,-2.2402,-2.2412,-2.248,-2.2652,-2.2549,-2.2617,-2.2916,-2.273,-2.2246,-2.1738,-2.1865,-2.1963,-2.1602,-2.1609,-2.124,-2.0343,-1.9832,-1.964,-1.9513,-1.9238,-1.8899,-1.8668,-1.8795,-1.8456,-1.7793,-1.776,-1.7784,-1.671,-1.6894,-1.666,-1.573,-1.5524,-1.5429,-1.5103,-1.4816,-1.4611,-1.4526,-1.4504,-1.4618,-1.4032,-1.4364,-1.3987,-1.3489,-1.2965,-1.2702,-1.2933,-1.3442,-1.3441,-1.3791,-1.4256,-1.3982,-1.3799,-1.3747,-1.3567,-1.3589,-1.3801,-1.3985,-1.4119,-1.4315,-1.4836,-1.5127,-1.521,-1.58,-1.6266,-1.648,-1.6771,-1.6908,-1.6908,-1.6908,-1.6853,-1.678,-1.6853,-1.6844,-1.6762,-1.6844,-1.6908,-1.6908,-1.6908,-1.6908,-1.6943,-1.7107,-1.7201,-1.7279,-1.7901,-1.8365,-1.861,-1.9222,-1.9835,-2.0366,-2.0399,-2.0635,-2.1169,-2.1305,-2.1368,-2.142,-2.1663,-2.1843,-2.1843,-2.1474,-2.1178,-2.0946,-2.0374,-2.0018,-1.9858,-1.9986,-2.0087,-2.0185,-2.0967,-2.1554,-2.1564,-2.1738,-2.1836,-2.1738,-2.1797,-2.1885,-2.1914,-2.1936,-2.2031,-2.2256,-2.2119,-2.2031,-2.2399,-2.2253,-2.1795,-2.125,-2.1426,-2.1553,-2.1201,-2.1112,-2.0939,-2.0133,-2.0034,-1.9757,-1.9177,-1.8931,-1.859,-1.8525,-1.8603,-1.8434,-1.7773,-1.8009,-1.7821,-1.7127,-1.7372,-1.7175,-1.6268,-1.5899,-1.5288,-1.4696,-1.4372,-1.4328,-1.4128,-1.4187,-1.4269,-1.393,-1.3992,-1.3418,-1.3004,-1.2622,-1.2622,-1.279,-1.3219,-1.3147,-1.3338,-1.3664,-1.3386,-1.3513,-1.4013,-1.3458,-1.3131,-1.3202,-1.3842,-1.3968,-1.3759,-1.4734,-1.5193,-1.5231,-1.5562,-1.6147,-1.6773,-1.6872,-1.6908,-1.6908,-1.6908,-1.6716,-1.637,-1.6734,-1.6725,-1.6471,-1.6718,-1.6908,-1.6908,-1.6908,-1.6908,-1.7003,-1.7569,-1.7901,-1.8003,-1.861,-1.9243,-1.9901,-2.0667,-2.1094,-2.1138,-2.1094,-2.1169,-2.1201,-2.1233,-2.1273,-2.14,-2.158,-2.1698,-2.1698,-2.1655,-2.1391,-2.0854,-2.0882,-2.0737,-2.0237,-2.0334,-2.0439,-2.0527,-2.0576,-2.0683,-2.0752,-2.1307,-2.1561,-2.1298,-2.1621,-2.1797,-2.1846,-2.1738,-2.1875,-2.1914,-2.1894,-2.1758,-2.1395,-2.1268,-2.1162,-2.0869,-2.0996,-2.1094,-2.0752,-2.0928,-2.0849,-2.0576,-2.0362,-2.0197,-1.9283,-1.9075,-1.902,-1.8735,-1.8491,-1.8594,-1.8564,-1.8415,-1.7913,-1.7605,-1.7803,-1.7569,-1.6809,-1.5997,-1.5185,-1.4524,-1.4132,-1.3968,-1.3814,-1.3616,-1.3689,-1.4081,-1.3767,-1.3505,-1.3243,-1.2949,-1.2901,-1.3219,-1.3711,-1.3497,-1.3735,-1.4145,-1.4098,-1.4093,-1.4101,-1.3854,-1.3705,-1.3751,-1.4034,-1.4041,-1.3964,-1.5043,-1.5546,-1.558,-1.6156,-1.6571,-1.6846,-1.6908,-1.6908,-1.6908,-1.6908,-1.6835,-1.6709,-1.6826,-1.6826,-1.6743,-1.6826,-1.6908,-1.6908,-1.6908,-1.6908,-1.6978,-1.7604,-1.8162,-1.8633,-1.9342,-1.9835,-2.0096,-2.0796,-2.1201,-2.1201,-2.1201,-2.1201,-2.1201,-2.1201,-2.1233,-2.1285,-2.1411,-2.1506,-2.1549,-2.1718,-2.1737,-2.1478,-2.1361,-2.1163,-2.0786,-2.0565,-2.0369,-2.0207,-2.0128,-2.0177,-2.0215,-2.0592,-2.0827,-2.0691,-2.0798,-2.0934,-2.0886,-2.1005,-2.1192,-2.1435,-2.167,-2.1611,-2.1015,-2.1055,-2.1045,-2.0723,-2.0703,-2.0576,-2.0293,-2.0303,-2.0225,-1.9893,-1.9756,-1.9458,-1.8536,-1.9111,-1.9322,-1.8694,-1.836,-1.8608,-1.8689,-1.8785,-1.8441,-1.8033,-1.8167,-1.7785,-1.698,-1.5846,-1.5027,-1.4591,-1.4176,-1.3733,-1.3521,-1.3499,-1.3543,-1.3755,-1.36,-1.3498,-1.3331,-1.3148,-1.3203,-1.3505,-1.3918,-1.3807,-1.4085,-1.4518,-1.4486,-1.4351,-1.4268,-1.413,-1.4117,-1.4117,-1.4109,-1.4027,-1.3964,-1.4923,-1.5463,-1.5661,-1.6237,-1.6682,-1.6874,-1.6908,-1.6908,-1.6908,-1.6908,-1.6908,-1.6908,-1.6908,-1.6908,-1.6908,-1.6908,-1.6908,-1.6908,-1.6908,-1.6908,-1.7003,-1.7638,-1.8307,-1.8967,-1.9737,-2.0226,-2.0442,-2.0935,-2.1201,-2.1201,-2.1201,-2.1201,-2.1201,-2.1201,-2.1201,-2.1233,-2.1273,-2.1336,-2.1336,-2.1549,-2.158,-2.1328,-2.1138,-2.0868,-2.0428,-2.0075,-1.9808,-1.9735,-1.9713,-1.9732,-1.9874,-1.999,-2.0108,-2.0186,-2.0264,-2.0264,-2.0186,-2.0391,-2.0566,-2.0738,-2.0989,-2.0865,-2.0381,-2.042,-2.0304,-2.0052,-1.9994,-1.9811,-1.9588,-1.9511,-1.9443,-1.9172,-1.9116,-1.8682,-1.8119,-1.8397,-1.8676,-1.8155,-1.7875,-1.8237,-1.8656,-1.8848,-1.8838,-1.852,-1.8205,-1.7792,-1.7009,-1.5798,-1.5136,-1.4673,-1.4088,-1.3565,-1.3499,-1.3492,-1.3536,-1.2841,-1.3496,-1.3275,-1.3147,-1.3204,-1.3418,-1.361,-1.3703,-1.3934,-1.4201,-1.4534,-1.428,-1.4336,-1.4462,-1.4264,-1.414,-1.413,-1.4172,-1.3976,-1.3799,-1.4396,-1.4971,-1.5359,-1.5783,-1.6298,-1.6864,-1.6908,-1.6908,-1.6908,-1.6908,-1.6908,-1.6908,-1.6908,-1.6908,-1.6908,-1.6908,-1.6908,-1.6908,-1.6908,-1.6908,-1.7012,-1.7638,-1.8307,-1.9011,-1.9704,-2.0431,-2.1094,-2.1158,-2.1201,-2.1201,-2.1201,-2.1201,-2.1201,-2.1201,-2.1201,-2.1201,-2.119,-2.1221,-2.1221,-2.1253,-2.1019,-2.0604,-2.02,-2.0028,-1.9469,-1.9105,-1.9047,-1.9156,-1.9307,-1.942,-1.9711,-1.9696,-1.9715,-1.9872,-2.0069,-2.0108,-2.0029,-2.0147,-2.0216,-2.0039,-2.0038,-1.9742,-1.9459,-1.9412,-1.9326,-1.9078,-1.8954,-1.8916,-1.8821,-1.8792,-1.8719,-1.8653,-1.8583,-1.8186,-1.7848,-1.7585,-1.7612,-1.7574,-1.7404,-1.7533,-1.805,-1.835,-1.8389,-1.8193,-1.8203,-1.7812,-1.7389,-1.6263,-1.5455,-1.4931,-1.4194,-1.3557,-1.3492,-1.3492,-1.3492,-1.2818,-1.3561,-1.3473,-1.3466,-1.3441,-1.3545,-1.3711,-1.391,-1.3831,-1.4085,-1.451,-1.4486,-1.4502,-1.4557,-1.4478,-1.4439,-1.4439,-1.4415,-1.426,-1.4111,-1.4673,-1.5058,-1.5326,-1.5852,-1.6412,-1.6839,-1.6908,-1.6908,-1.6908,-1.6908,-1.6908,-1.6908,-1.6908,-1.6908,-1.6908,-1.6908,-1.6908,-1.6908,-1.6908,-1.6908,-1.6968,-1.7604,-1.8307,-1.8977,-1.9704,-2.0431,-2.1126,-2.1201,-2.1201,-2.1201,-2.1201,-2.1201,-2.1201,-2.1201,-2.1201,-2.1201,-2.1201,-2.1201,-2.1233,-2.1273,-2.1242,-2.1031,-2.0931,-2.05,-1.9723,-1.9344,-1.9004,-1.8639,-1.873,-1.8942,-1.9062,-1.9273,-1.9462,-1.9666,-1.9754,-1.9833,-1.9745,-1.9902,-1.9848,-1.9572,-1.9477,-1.9288,-1.9004,-1.8881,-1.8787,-1.8636,-1.8625,-1.8569,-1.8332,-1.823,-1.8159,-1.796,-1.7877,-1.7863,-1.7593,-1.7422,-1.7448,-1.7493,-1.7376,-1.7304,-1.7691,-1.794,-1.794,-1.7974,-1.8008,-1.7862,-1.7432,-1.6689,-1.5772,-1.5073,-1.4374,-1.3912,-1.3593,-1.3492,-1.3492,-1.2109,-1.3135,-1.3276,-1.341,-1.3624,-1.3839,-1.4021,-1.4101,-1.4021,-1.4201,-1.455,-1.4597,-1.4497,-1.4382,-1.4489,-1.4497,-1.4346,-1.4497,-1.4508,-1.4352,-1.4703,-1.5029,-1.5247,-1.5826,-1.6307,-1.663,-1.6665,-1.6769,-1.6908,-1.6908,-1.6908,-1.6908,-1.6908,-1.6908,-1.6908,-1.6908,-1.6908,-1.6908,-1.6908,-1.6908,-1.6968,-1.7339,-1.7901,-1.861,-1.9299,-2.0031,-2.072,-2.1031,-2.1201,-2.1201,-2.1201,-2.1201,-2.1201,-2.1201,-2.1201,-2.1201,-2.1201,-2.1201,-2.1201,-2.1273,-2.1336,-2.1273,-2.0837,-2.026,-1.9554,-1.9083,-1.8283,-1.8026,-1.8091,-1.833,-1.8495,-1.8687,-1.89,-1.9034,-1.939,-1.9569,-1.9578,-1.9487,-1.9358,-1.9115,-1.8947,-1.8686,-1.8368,-1.8237,-1.8162,-1.8068,-1.8012,-1.7975,-1.7739,-1.7638,-1.7495,-1.7338,-1.7332,-1.7306,-1.7301,-1.7282,-1.7307,-1.7395,-1.7455,-1.7486,-1.7666,-1.7745,-1.7745,-1.7872,-1.7896,-1.8008,-1.7647,-1.6515,-1.5561,-1.5037,-1.4653,-1.3949,-1.3492,-1.3492,-1.3492,-1.0954,-1.2369,-1.2639,-1.3057,-1.3577,-1.4163,-1.4277,-1.4188,-1.4367,-1.451,-1.4589,-1.4605,-1.431,-1.4013,-1.431,-1.4186,-1.3875,-1.4204,-1.4395,-1.4411,-1.4561,-1.4787,-1.5217,-1.5569,-1.5947,-1.6237,-1.6272,-1.6438,-1.67,-1.6804,-1.6874,-1.6804,-1.6874,-1.6908,-1.6908,-1.6908,-1.6908,-1.6908,-1.6908,-1.6908,-1.6908,-1.6943,-1.7314,-1.8037,-1.8633,-1.9309,-1.9998,-2.0667,-2.1094,-2.1201,-2.1201,-2.1201,-2.1201,-2.1201,-2.1201,-2.1201,-2.1201,-2.1201,-2.1201,-2.1233,-2.1221,-2.1126,-2.0128,-1.9011,-1.9006,-1.8135,-1.7441,-1.7457,-1.7559,-1.7715,-1.8018,-1.8155,-1.821,-1.8247,-1.8867,-1.9325,-1.9427,-1.8996,-1.8718,-1.8569,-1.8293,-1.7935,-1.7604,-1.7539,-1.7303,-1.7005,-1.6888,-1.6853,-1.672,-1.6676,-1.6831,-1.683,-1.683,-1.7047,-1.7081,-1.7081,-1.7116,-1.7185,-1.7323,-1.7426,-1.7564,-1.7608,-1.7642,-1.7759,-1.7896,-1.7974,-1.7691,-1.6689,-1.6053,-1.5807,-1.5073,-1.3985,-1.363,-1.3731,-1.363,-1.0777,-1.2116,-1.2026,-1.2514,-1.3251,-1.3532,-1.3785,-1.409,-1.4169,-1.4359,-1.455,-1.4605,-1.4294,-1.3825,-1.3934,-1.3569,-1.3171,-1.3388,-1.362,-1.3761,-1.4112,-1.4622,-1.5084,-1.5303,-1.5551,-1.5877,-1.5903,-1.5974,-1.6123,-1.6377,-1.6447,-1.6482,-1.6735,-1.6874,-1.6908,-1.6874,-1.6908,-1.6908,-1.6908,-1.6908,-1.6908,-1.6908,-1.727,-1.7935,-1.8196,-1.8667,-1.9276,-1.9998,-2.0667,-2.1169,-2.1201,-2.1201,-2.1201,-2.1201,-2.1201,-2.1201,-2.1201,-2.1201,-2.1201,-2.1201,-2.1201,-2.1138,-2.0302,-1.9562,-1.9011,-1.8206,-1.7558,-1.7276,-1.7293,-1.7523,-1.7688,-1.788,-1.8027,-1.8137,-1.834,-1.8534,-1.8505,-1.8348,-1.8136,-1.7871,-1.7743,-1.7477,-1.7229,-1.7057,-1.6871,-1.6403,-1.6193,-1.6088,-1.6044,-1.6114,-1.6473,-1.6403,-1.6438,-1.676,-1.6943,-1.6943,-1.6943,-1.6987,-1.7081,-1.7185,-1.7392,-1.7588,-1.7657,-1.7716,-1.7896,-1.8008,-1.7759,-1.7157,-1.6862,-1.6402,-1.5702,-1.4788,-1.443,-1.4358,-1.3977,-1.0122,-1.1307,-1.1386,-1.1909,-1.2734,-1.3072,-1.3414,-1.3696,-1.3847,-1.4085,-1.4328,-1.4391,-1.417,-1.3818,-1.369,-1.3301,-1.2799,-1.3095,-1.3282,-1.3394,-1.3882,-1.442,-1.4846,-1.4955,-1.5169,-1.5515,-1.5551,-1.5657,-1.5833,-1.6017,-1.6088,-1.6158,-1.6447,-1.663,-1.6665,-1.6839,-1.6908,-1.6908,-1.6908,-1.6908,-1.6908,-1.6908,-1.7304,-1.7935,-1.8263,-1.8834,-1.9802,-2.0074,-2.0334,-2.07,-2.0999,-2.1201,-2.1201,-2.1201,-2.1201,-2.1201,-2.1201,-2.1201,-2.1201,-2.1201,-2.1201,-2.1063,-2.0495,-1.9966,-1.9375,-1.86,-1.7731,-1.7514,-1.7339,-1.7255,-1.7284,-1.7441,-1.7587,-1.7578,-1.7614,-1.7752,-1.8017,-1.7972,-1.777,-1.7541,-1.7348,-1.7183,-1.6927,-1.6908,-1.6691,-1.6447,-1.6412,-1.6158,-1.5939,-1.6044,-1.6184,-1.6263,-1.6403,-1.676,-1.6908,-1.6908,-1.6908,-1.6908,-1.6943,-1.7047,-1.7185,-1.7451,-1.7554,-1.7657,-1.7862,-1.794,-1.7725,-1.7476,-1.701,-1.655,-1.6088,-1.5702,-1.5278,-1.478,-1.4394,-0.928,-1.0176,-1.0629,-1.1266,-1.2031,-1.2733,-1.3053,-1.3224,-1.3499,-1.3741,-1.3868,-1.3958,-1.3622,-1.3525,-1.3003,-1.2926,-1.2597,-1.2787,-1.3142,-1.3408,-1.3863,-1.4371,-1.4609,-1.4677,-1.4856,-1.5098,-1.5133,-1.5303,-1.5515,-1.5657,-1.5727,-1.5798,-1.6061,-1.6237,-1.6307,-1.6551,-1.676,-1.6795,-1.676,-1.6839,-1.6874,-1.6908,-1.7201,-1.7696,-1.8375,-1.9166,-2.0031,-2.0302,-2.0161,-2.0128,-2.0732,-2.1031,-2.1138,-2.1201,-2.1201,-2.1201,-2.1201,-2.1201,-2.1201,-2.1201,-2.1201,-2.1106,-2.0528,-2.0031,-1.9639,-1.8667,-1.7901,-1.7638,-1.7245,-1.7024,-1.6972,-1.6954,-1.7009,-1.7055,-1.6991,-1.7258,-1.7597,-1.7624,-1.744,-1.7422,-1.711,-1.6954,-1.6908,-1.6908,-1.683,-1.6263,-1.6228,-1.6009,-1.586,-1.5974,-1.6184,-1.6403,-1.6621,-1.6839,-1.6908,-1.6908,-1.6908,-1.6908,-1.6908,-1.6978,-1.7012,-1.721,-1.7358,-1.7529,-1.7666,-1.7803,-1.7862,-1.751,-1.7148,-1.7044,-1.6837,-1.6341,-1.5807,-1.5278,-1.4859,-0.8992,-0.966,-0.9622,-1.0226,-1.1207,-1.1792,-1.2341,-1.2897,-1.3367,-1.3377,-1.3175,-1.3108,-1.2658,-1.1915,-1.1937,-1.1477,-1.1478,-1.1896,-1.2384,-1.359,-1.4175,-1.4486,-1.4605,-1.4605,-1.4641,-1.474,-1.474,-1.4812,-1.4919,-1.5204,-1.5346,-1.5382,-1.57,-1.5903,-1.5939,-1.6088,-1.6193,-1.6377,-1.6456,-1.6656,-1.6874,-1.6908,-1.7003,-1.7304,-1.7935,-1.8331,-1.8824,-1.9606,-2.0074,-2.0161,-2.0258,-2.056,-2.1063,-2.1201,-2.1201,-2.1201,-2.1201,-2.1201,-2.1201,-2.1201,-2.1201,-2.1138,-2.0603,-1.9868,-1.9243,-1.8633,-1.7842,-1.7339,-1.6978,-1.6978,-1.6908,-1.6908,-1.6874,-1.6839,-1.6804,-1.6684,-1.6475,-1.6749,-1.6968,-1.6932,-1.6877,-1.6874,-1.6839,-1.6726,-1.6542,-1.6149,-1.5939,-1.5754,-1.586,-1.6009,-1.6219,-1.6508,-1.6691,-1.6908,-1.6908,-1.6908,-1.6908,-1.6908,-1.6908,-1.6908,-1.6978,-1.7038,-1.721,-1.7358,-1.7461,-1.7598,-1.7759,-1.775,-1.7398,-1.7476,-1.7476,-1.7054,-1.6524,-1.5886,-1.518,-0.876,-0.9205,-0.922,-0.9604,-1.0313,-1.0876,-1.1458,-1.2075,-1.2533,-1.2831,-1.2929,-1.2953,-1.2665,-1.228,-1.193,-1.1684,-1.1712,-1.1897,-1.2673,-1.3685,-1.4217,-1.4431,-1.4597,-1.4605,-1.4605,-1.4605,-1.4605,-1.4605,-1.4669,-1.4812,-1.4919,-1.4955,-1.5346,-1.548,-1.5621,-1.5833,-1.6123,-1.6342,-1.6491,-1.6691,-1.6874,-1.6908,-1.7141,-1.7476,-1.807,-1.8465,-1.8633,-1.88,-1.9464,-1.9835,-1.9802,-2.0107,-2.0999,-2.1201,-2.1201,-2.1201,-2.1201,-2.1201,-2.1201,-2.1201,-2.1201,-2.1201,-2.0807,-2.0495,-1.9966,-1.9398,-1.8667,-1.8037,-1.7638,-1.7304,-1.6978,-1.6908,-1.6804,-1.6438,-1.6403,-1.6079,-1.5542,-1.5903,-1.6184,-1.5965,-1.5762,-1.5754,-1.5789,-1.6079,-1.6184,-1.5824,-1.5982,-1.5868,-1.6403,-1.6508,-1.6438,-1.6656,-1.676,-1.6864,-1.6908,-1.6908,-1.6908,-1.6908,-1.6908,-1.6908,-1.6943,-1.7003,-1.7063,-1.721,-1.7323,-1.7461,-1.7588,-1.7623,-1.7623,-1.7554,-1.7486,-1.7451,-1.7132,-1.6385,-1.5648,-0.8597,-0.8846,-0.9042,-0.9203,-0.9479,-1.0031,-1.0555,-1.1005,-1.1456,-1.2019,-1.2646,-1.2749,-1.2607,-1.2858,-1.2268,-1.2244,-1.2498,-1.2807,-1.3325,-1.3842,-1.4153,-1.4383,-1.4565,-1.4605,-1.4605,-1.4605,-1.4605,-1.4605,-1.4605,-1.4605,-1.4669,-1.4669,-1.4919,-1.5169,-1.5346,-1.5771,-1.6123,-1.6307,-1.6551,-1.6769,-1.6874,-1.6908,-1.7176,-1.7638,-1.8273,-1.8744,-1.8744,-1.8734,-1.8834,-1.9922,-1.9398,-1.9737,-2.0495,-2.1158,-2.1201,-2.1201,-2.1201,-2.1106,-2.0924,-2.0955,-2.0955,-2.1019,-2.0999,-2.0967,-2.072,-2.0237,-1.9464,-1.8633,-1.7935,-1.7157,-1.6795,-1.6621,-1.6298,-1.586,-1.5683,-1.5357,-1.4788,-1.5073,-1.5037,-1.4931,-1.4994,-1.5073,-1.5037,-1.518,-1.5392,-1.5613,-1.5798,-1.6088,-1.6621,-1.6874,-1.676,-1.6726,-1.683,-1.6908,-1.6908,-1.6908,-1.6908,-1.6908,-1.6908,-1.6908,-1.6908,-1.6943,-1.7003,-1.7107,-1.7245,-1.7348,-1.7417,-1.7451,-1.7451,-1.7461,-1.7495,-1.7461,-1.7176,-1.6777,-1.6105,-0.8382,-0.8571,-0.8609,-0.8728,-0.8985,-0.9453,-0.9828,-1.0098,-1.0733,-1.1048,-1.1231,-1.1326,-1.147,-1.146,-1.1368,-1.1495,-1.2114,-1.2873,-1.349,-1.3831,-1.4161,-1.455,-1.4573,-1.4605,-1.4605,-1.4605,-1.4605,-1.4605,-1.4605,-1.4605,-1.4605,-1.4605,-1.4677,-1.4848,-1.5098,-1.5374,-1.5771,-1.6202,-1.6412,-1.6595,-1.6839,-1.6908,-1.6934,-1.727,-1.7842,-1.8341,-1.8811,-1.8867,-1.9233,-1.9933,-1.9375,-1.921,-1.9639,-2.0528,-2.0999,-2.1138,-2.1169,-2.1031,-2.0635,-2.0366,-2.0334,-2.0302,-2.0366,-2.0334,-2.0302,-2.0139,-1.9497,-1.8287,-1.7139,-1.6175,-1.6009,-1.6009,-1.5578,-1.518,-1.5144,-1.5073,-1.4106,-1.3854,-1.4142,-1.4207,-1.435,-1.4422,-1.4322,-1.443,-1.4859,-1.5286,-1.5683,-1.6158,-1.6735,-1.6908,-1.6874,-1.6874,-1.6874,-1.6908,-1.6908,-1.6908,-1.6908,-1.6908,-1.6908,-1.6908,-1.6908,-1.6908,-1.6978,-1.7038,-1.7072,-1.7107,-1.7176,-1.7245,-1.7279,-1.7323,-1.7392,-1.7461,-1.7176,-1.6821,-1.6385,-0.8404,-0.8511,-0.8517,-0.8549,-0.8705,-0.899,-0.9332,-0.9678,-1.0098,-1.0485,-1.0737,-1.0863,-1.0919,-1.0982,-1.0989,-1.1303,-1.1974,-1.3039,-1.3561,-1.3743,-1.4248,-1.4605,-1.4569,-1.4569,-1.4605,-1.4605,-1.4605,-1.4605,-1.4605,-1.4605,-1.4605,-1.4605,-1.4605,-1.4713,-1.4927,-1.5133,-1.548,-1.5982,-1.6237,-1.6482,-1.6839,-1.6874,-1.6874,-1.7003,-1.7166,-1.7569,-1.7808,-1.791,-1.824,-1.8767,-1.8657,-1.871,-1.9077,-1.9573,-2.0237,-2.0571,-2.0935,-2.1031,-2.0603,-2.0366,-2.0128,-2.0128,-2.0063,-2.0096,-2.0096,-1.9998,-1.9398,-1.8094,-1.6724,-1.5798,-1.5833,-1.5436,-1.4824,-1.4279,-1.443,-1.407,-1.3273,-1.2989,-1.3208,-1.3528,-1.3346,-1.331,-1.331,-1.3637,-1.4286,-1.4895,-1.5507,-1.6184,-1.6839,-1.6908,-1.6908,-1.6908,-1.6908,-1.6908,-1.6908,-1.6908,-1.6908,-1.6908,-1.6908,-1.6908,-1.6908,-1.6908,-1.6908,-1.6943,-1.6934,-1.6968,-1.6968,-1.7072,-1.7116,-1.7185,-1.7185,-1.7151,-1.7081,-1.683,-1.6464,-0.8339,-0.8517,-0.8517,-0.8517,-0.8544,-0.8673,-0.8958,-0.9294,-0.9524,-0.9939,-1.0516,-1.0611,-1.073,-1.0926,-1.1021,-1.1279,-1.1768,-1.2875,-1.3286,-1.3356,-1.4018,-1.4382,-1.4274,-1.4389,-1.4382,-1.4346,-1.4569,-1.4569,-1.4605,-1.4605,-1.4605,-1.4605,-1.4605,-1.4669,-1.4812,-1.5062,-1.5444,-1.5762,-1.6053,-1.6368,-1.6586,-1.6656,-1.6726,-1.676,-1.676,-1.6899,-1.7339,-1.7176,-1.7467,-1.7867,-1.7969,-1.8003,-1.8476,-1.871,-1.9077,-1.9661,-2.0355,-2.0624,-2.0323,-1.9955,-1.9464,-1.9431,-1.9595,-1.9694,-1.977,-1.9497,-1.91,-1.7993,-1.6481,-1.5507,-1.533,-1.4824,-1.407,-1.3528,-1.3353,-1.3251,-1.2703,-1.2452,-1.2489,-1.2519,-1.2305,-1.2415,-1.2666,-1.3564,-1.4394,-1.4931,-1.5542,-1.6254,-1.6839,-1.6908,-1.6908,-1.6908,-1.6908,-1.6908,-1.6908,-1.6908,-1.6908,-1.6908,-1.6908,-1.6908,-1.6908,-1.6908,-1.6908,-1.6908,-1.6908,-1.6943,-1.6908,-1.6908,-1.6978,-1.7012,-1.6943,-1.6908,-1.6943,-1.6934,-1.6682,-0.7746,-0.8517,-0.8517,-0.8517,-0.8517,-0.8549,-0.8582,-0.8673,-0.8899,-0.921,-0.9748,-0.999,-1.0351,-1.0701,-1.0922,-1.1035,-1.1471,-1.2339,-1.2807,-1.2708,-1.3545,-1.384,-1.3404,-1.3695,-1.4057,-1.4165,-1.4453,-1.4569,-1.4605,-1.4605,-1.4605,-1.4605,-1.4605,-1.4748,-1.4955,-1.5026,-1.5382,-1.5727,-1.5833,-1.5903,-1.5982,-1.6009,-1.6158,-1.6307,-1.6447,-1.676,-1.7339,-1.7132,-1.7235,-1.7731,-1.7339,-1.7141,-1.7235,-1.7799,-1.807,-1.8408,-1.8777,-1.9034,-1.8734,-1.86,-1.8499,-1.8533,-1.8432,-1.86,-1.8867,-1.87,-1.8341,-1.8037,-1.6158,-1.4966,-1.4788,-1.4106,-1.331,-1.3062,-1.2996,-1.2886,-1.2489,-1.2305,-1.2305,-1.2305,-1.2305,-1.2305,-1.2415,-1.3528,-1.4537,-1.5037,-1.5613,-1.6254,-1.6795,-1.6874,-1.6908,-1.6908,-1.6908,-1.6908,-1.6908,-1.6908,-1.6908,-1.6908,-1.6908,-1.6908,-1.6908,-1.6908,-1.6908,-1.6908,-1.6908,-1.6908,-1.6908,-1.6908,-1.6908,-1.6908,-1.6908,-1.6908,-1.6908,-1.6874,-1.683,-0.7408,-0.8511,-0.8517,-0.8517,-0.8517,-0.8517,-0.8517,-0.8549,-0.8582,-0.8861,-0.9172,-0.9364,-0.9763,-1.0302,-1.0633,-1.0834,-1.1117,-1.2152,-1.2658,-1.267,-1.3479,-1.4013,-1.4021,-1.4129,-1.4238,-1.4238,-1.4453,-1.4569,-1.4605,-1.4605,-1.4605,-1.4605,-1.4605,-1.4641,-1.4883,-1.4892,-1.5098,-1.5409,-1.5657,-1.5798,-1.5798,-1.5798,-1.5868,-1.6009,-1.6167,-1.6577,-1.6855,-1.7072,-1.7003,-1.7339,-1.7012,-1.6908,-1.6934,-1.7201,-1.7373,-1.7407,-1.7638,-1.8037,-1.8465,-1.8172,-1.8003,-1.8003,-1.8003,-1.8206,-1.8341,-1.8172,-1.774,-1.7373,-1.6132,-1.518,-1.4537,-1.3926,-1.3171,-1.2739,-1.2703,-1.2592,-1.2452,-1.2378,-1.2305,-1.2305,-1.2305,-1.2342,-1.2415,-1.3098,-1.407,-1.4788,-1.5321,-1.593,-1.6508,-1.6874,-1.6908,-1.6908,-1.6908,-1.6908,-1.6908,-1.6908,-1.6908,-1.6908,-1.6908,-1.6908,-1.6908,-1.6908,-1.6908,-1.6908,-1.6908,-1.6908,-1.6908,-1.6908,-1.6908,-1.6908,-1.6908,-1.6908,-1.6908,-1.6908,-1.6874,-0.6961,-0.8257,-0.8473,-0.8571,-0.8522,-0.8543,-0.8571,-0.8517,-0.8517,-0.8673,-0.8948,-0.9123,-0.9503,-0.9865,-1.0282,-1.0468,-1.0605,-1.1856,-1.2198,-1.2647,-1.3266,-1.3723,-1.3688,-1.3876,-1.4173,-1.4425,-1.4533,-1.4569,-1.4605,-1.4605,-1.4605,-1.4605,-1.4605,-1.4605,-1.4605,-1.4641,-1.4812,-1.5026,-1.5275,-1.5409,-1.5444,-1.5453,-1.5524,-1.5665,-1.5877,-1.6088,-1.6193,-1.6403,-1.6621,-1.6621,-1.6586,-1.6517,-1.6542,-1.6577,-1.6621,-1.6647,-1.6821,-1.7166,-1.7628,-1.7687,-1.7731,-1.7731,-1.7731,-1.7638,-1.7696,-1.7696,-1.7423,-1.6682,-1.586,-1.5037,-1.4386,-1.36,-1.2959,-1.2489,-1.2378,-1.2305,-1.2305,-1.2305,-1.2342,-1.2415,-1.2452,-1.2489,-1.2629,-1.2842,-1.3528,-1.443,-1.5073,-1.5675,-1.6254,-1.6874,-1.6908,-1.6908,-1.6908,-1.6908,-1.6908,-1.6908,-1.6908,-1.6908,-1.6908,-1.6908,-1.6908,-1.6908,-1.6908,-1.6908,-1.6862,-1.6908,-1.6908,-1.6908,-1.6908,-1.6908,-1.6908,-1.6908,-1.6908,-1.6908,-1.6908,-0.6231,-0.7638,-0.8505,-0.8711,-0.8544,-0.8782,-0.8711,-0.8549,-0.8533,-0.8636,-0.8929,-0.9373,-0.974,-0.9943,-1.0028,-1.0077,-1.0038,-1.0895,-1.1123,-1.1226,-1.1582,-1.2471,-1.2739,-1.3112,-1.3404,-1.3869,-1.4129,-1.4353,-1.4525,-1.4418,-1.4489,-1.4605,-1.4569,-1.4569,-1.4605,-1.4605,-1.4605,-1.4748,-1.4812,-1.4812,-1.4812,-1.4812,-1.4955,-1.5204,-1.5311,-1.5444,-1.5798,-1.5939,-1.6009,-1.6009,-1.6044,-1.6044,-1.6079,-1.6079,-1.6088,-1.6123,-1.6263,-1.6446,-1.6487,-1.6957,-1.7038,-1.7003,-1.7038,-1.7141,-1.7166,-1.7038,-1.6621,-1.6088,-1.5507,-1.4609,-1.3781,-1.2952,-1.2703,-1.2415,-1.2305,-1.2305,-1.2305,-1.2305,-1.2342,-1.2452,-1.2556,-1.2592,-1.3062,-1.3346,-1.3673,-1.453,-1.5719,-1.6368,-1.6473,-1.6908,-1.6908,-1.6908,-1.6908,-1.6908,-1.6908,-1.6908,-1.6908,-1.6908,-1.6908,-1.6908,-1.6908,-1.6899,-1.6771,-1.6743,-1.6688,-1.6798,-1.6872,-1.678,-1.6752,-1.6862,-1.6908,-1.6908,-1.6908,-1.6908,-1.6908,-0.5639,-0.628,-0.7635,-0.8433,-0.8771,-0.8857,-0.8846,-0.8737,-0.876,-0.8826,-0.9019,-0.9655,-1.0037,-1.0159,-1.0161,-1.0148,-1.0262,-1.0885,-1.0949,-1.1309,-1.1892,-1.2478,-1.268,-1.2716,-1.3039,-1.3295,-1.3513,-1.355,-1.355,-1.3912,-1.4093,-1.4165,-1.4346,-1.4569,-1.4605,-1.4605,-1.4605,-1.4605,-1.4605,-1.4605,-1.4605,-1.4605,-1.4677,-1.4812,-1.5133,-1.5232,-1.5444,-1.5692,-1.5762,-1.5798,-1.5762,-1.5727,-1.5727,-1.5727,-1.5727,-1.5745,-1.5895,-1.5747,-1.5713,-1.6304,-1.6874,-1.6908,-1.6908,-1.6874,-1.6839,-1.6874,-1.6508,-1.5974,-1.5436,-1.4609,-1.3608,-1.3208,-1.2989,-1.2519,-1.2268,-1.2268,-1.2268,-1.2231,-1.2268,-1.2335,-1.2519,-1.2666,-1.3273,-1.3962,-1.4243,-1.4673,-1.5939,-1.6908,-1.6908,-1.6908,-1.6908,-1.6908,-1.6908,-1.6908,-1.6908,-1.6908,-1.6908,-1.6899,-1.6899,-1.6835,-1.678,-1.6587,-1.6486,-1.6477,-1.6431,-1.6422,-1.645,-1.6514,-1.6633,-1.6826,-1.6899,-1.6908,-1.6908,-1.6908,-1.6908,-0.5075,-0.5418,-0.6563,-0.7602,-0.8459,-0.8767,-0.8852,-0.8798,-0.8776,-0.8859,-0.9047,-0.9725,-1.0026,-1.0114,-1.0195,-1.0217,-1.0309,-1.0685,-1.0915,-1.1272,-1.1748,-1.2418,-1.2606,-1.268,-1.2673,-1.2826,-1.29,-1.2973,-1.3046,-1.3361,-1.347,-1.3659,-1.3912,-1.4129,-1.4605,-1.4605,-1.4605,-1.4605,-1.4605,-1.4605,-1.4605,-1.4605,-1.4605,-1.4633,-1.4883,-1.4955,-1.5062,-1.5204,-1.5346,-1.5346,-1.5382,-1.5409,-1.5409,-1.5444,-1.5444,-1.5446,-1.5424,-1.529,-1.5308,-1.5773,-1.6435,-1.6446,-1.6482,-1.6517,-1.6586,-1.6551,-1.6123,-1.5488,-1.5188,-1.4681,-1.3397,-1.2952,-1.2659,-1.215,-1.204,-1.204,-1.2083,-1.2083,-1.2114,-1.2187,-1.2439,-1.2835,-1.3528,-1.4279,-1.5108,-1.5428,-1.6184,-1.6908,-1.6908,-1.6908,-1.6908,-1.6908,-1.6908,-1.6908,-1.6908,-1.6908,-1.6899,-1.6835,-1.6798,-1.6679,-1.6535,-1.6325,-1.6175,-1.612,-1.6065,-1.5991,-1.6092,-1.6257,-1.6541,-1.6844,-1.6881,-1.6908,-1.6908,-1.6908,-1.6908,-0.4605,-0.5269,-0.5382,-0.6247,-0.7541,-0.8503,-0.8715,-0.851,-0.8554,-0.8696,-0.8953,-0.9536,-0.9737,-0.9656,-0.995,-1.0096,-1.0177,-1.0328,-1.0536,-1.0886,-1.1272,-1.1607,-1.1861,-1.204,-1.2187,-1.2746,-1.2673,-1.2562,-1.2753,-1.2849,-1.2893,-1.3076,-1.3331,-1.3695,-1.4489,-1.4605,-1.4605,-1.4605,-1.4605,-1.4605,-1.4605,-1.4605,-1.4605,-1.4605,-1.4669,-1.4713,-1.4784,-1.4776,-1.4883,-1.4848,-1.4848,-1.4848,-1.4812,-1.4812,-1.476,-1.4704,-1.4753,-1.4529,-1.4239,-1.4916,-1.5343,-1.5817,-1.5957,-1.5939,-1.5877,-1.5833,-1.563,-1.5026,-1.4366,-1.3716,-1.2915,-1.2335,-1.2114,-1.1966,-1.1892,-1.1855,-1.1929,-1.1935,-1.1966,-1.2077,-1.2542,-1.3047,-1.3774,-1.4565,-1.5719,-1.6333,-1.6726,-1.6908,-1.6874,-1.6908,-1.6908,-1.6908,-1.6908,-1.6908,-1.6908,-1.6908,-1.6881,-1.6807,-1.67,-1.6608,-1.6386,-1.6092,-1.5927,-1.5799,-1.5762,-1.5753,-1.589,-1.6056,-1.6468,-1.6862,-1.689,-1.6908,-1.6908,-1.6908,-1.6908,-0.4201,-0.4534,-0.5071,-0.5573,-0.6226,-0.7568,-0.8125,-0.8138,-0.8515,-0.8863,-0.9149,-0.9649,-0.9862,-0.9847,-0.9889,-1.0078,-1.0108,-1.0308,-1.0509,-1.0707,-1.096,-1.1149,-1.1372,-1.1484,-1.1595,-1.1669,-1.1706,-1.1781,-1.1669,-1.2077,-1.2562,-1.2826,-1.3039,-1.3651,-1.3985,-1.4129,-1.4201,-1.4525,-1.4605,-1.4605,-1.4569,-1.4533,-1.4533,-1.4533,-1.4489,-1.4489,-1.4453,-1.4418,-1.4461,-1.4489,-1.4525,-1.4561,-1.4569,-1.4605,-1.4502,-1.4351,-1.4289,-1.3955,-1.3429,-1.3498,-1.4055,-1.4806,-1.5333,-1.5392,-1.5703,-1.5789,-1.5374,-1.4661,-1.3897,-1.328,-1.2776,-1.215,-1.1855,-1.1818,-1.1744,-1.1744,-1.1781,-1.1744,-1.1781,-1.1966,-1.2328,-1.3244,-1.4042,-1.4752,-1.5789,-1.6263,-1.6517,-1.6726,-1.676,-1.683,-1.6864,-1.6908,-1.6908,-1.6908,-1.6908,-1.6874,-1.6908,-1.6862,-1.6789,-1.6663,-1.6367,-1.589,-1.5625,-1.5469,-1.5487,-1.5533,-1.5835,-1.6166,-1.6569,-1.6862,-1.6872,-1.689,-1.6908,-1.6908,-1.6908,-0.3828,-0.4032,-0.4628,-0.4879,-0.5163,-0.6631,-0.7449,-0.775,-0.8312,-0.8793,-0.9141,-0.9589,-0.9719,-0.9733,-0.9874,-1.0024,-1.0037,-1.0199,-1.05,-1.0706,-1.0904,-1.1056,-1.1111,-1.1117,-1.1229,-1.1117,-1.1117,-1.1149,-1.1223,-1.1521,-1.1855,-1.2187,-1.2696,-1.2806,-1.3069,-1.3324,-1.3622,-1.384,-1.384,-1.3876,-1.3912,-1.3912,-1.3956,-1.3949,-1.3949,-1.3949,-1.3985,-1.4065,-1.4137,-1.4238,-1.4346,-1.4418,-1.4489,-1.453,-1.4478,-1.4312,-1.3971,-1.3466,-1.2712,-1.2352,-1.2967,-1.3614,-1.4156,-1.4439,-1.4646,-1.453,-1.4386,-1.3905,-1.3499,-1.3062,-1.2519,-1.1892,-1.1632,-1.1558,-1.1632,-1.1632,-1.1744,-1.1744,-1.1669,-1.1855,-1.2298,-1.3288,-1.4346,-1.5046,-1.5868,-1.6044,-1.6193,-1.6403,-1.6586,-1.6621,-1.6656,-1.6656,-1.67,-1.6665,-1.6735,-1.6804,-1.6839,-1.6908,-1.6727,-1.6485,-1.6138,-1.5634,-1.5386,-1.5276,-1.5597,-1.583,-1.601,-1.6294,-1.6535,-1.6718,-1.6817,-1.6844,-1.6899,-1.6839,-1.6804,-0.3535,-0.3727,-0.3969,-0.4129,-0.4373,-0.5738,-0.6759,-0.7536,-0.7914,-0.8404,-0.8992,-0.9484,-0.9554,-0.9376,-0.963,-0.9857,-0.9961,-1.0092,-1.0381,-1.0656,-1.0763,-1.0925,-1.0999,-1.1074,-1.1074,-1.108,-1.1117,-1.1117,-1.1117,-1.1409,-1.1446,-1.1372,-1.1706,-1.1996,-1.2328,-1.2519,-1.2893,-1.3112,-1.3404,-1.3368,-1.3331,-1.3222,-1.3295,-1.3295,-1.3222,-1.3222,-1.3193,-1.3193,-1.3404,-1.3579,-1.3796,-1.4049,-1.431,-1.4533,-1.4533,-1.4285,-1.3755,-1.2914,-1.2084,-1.1823,-1.1743,-1.2204,-1.2257,-1.2389,-1.2834,-1.3265,-1.3331,-1.312,-1.2739,-1.2519,-1.215,-1.1737,-1.1298,-1.1372,-1.1446,-1.1558,-1.1744,-1.1744,-1.1632,-1.1855,-1.2261,-1.3178,-1.4482,-1.5303,-1.5727,-1.5868,-1.5974,-1.6009,-1.6149,-1.6079,-1.6149,-1.6263,-1.6263,-1.6342,-1.6456,-1.663,-1.6665,-1.67,-1.6233,-1.5956,-1.5636,-1.5565,-1.5442,-1.5501,-1.5889,-1.6169,-1.6325,-1.6361,-1.6364,-1.6519,-1.666,-1.674,-1.6795,-1.6621,-1.6586,-0.2934,-0.3487,-0.369,-0.3843,-0.4135,-0.4873,-0.6192,-0.776,-0.8112,-0.8641,-0.9425,-0.9685,-0.9479,-0.9543,-0.9786,-0.9806,-0.9948,-1.0092,-1.031,-1.0458,-1.0357,-1.0663,-1.0775,-1.0807,-1.0925,-1.1037,-1.1074,-1.1117,-1.1229,-1.1409,-1.1669,-1.1787,-1.1558,-1.1774,-1.1781,-1.1781,-1.2224,-1.2673,-1.3039,-1.2966,-1.2966,-1.3039,-1.3003,-1.2856,-1.2746,-1.2709,-1.2753,-1.2753,-1.2966,-1.3076,-1.3149,-1.3295,-1.3331,-1.3397,-1.3353,-1.3004,-1.2664,-1.2253,-1.1618,-1.133,-1.1199,-1.1026,-1.0949,-1.1491,-1.2032,-1.2458,-1.2582,-1.2414,-1.2187,-1.2003,-1.1855,-1.1521,-1.126,-1.1298,-1.1335,-1.1409,-1.1595,-1.1595,-1.1521,-1.1929,-1.2372,-1.339,-1.4661,-1.524,-1.5586,-1.5727,-1.5762,-1.5727,-1.5762,-1.5762,-1.5833,-1.5939,-1.6123,-1.6272,-1.6307,-1.6447,-1.6447,-1.6393,-1.607,-1.5853,-1.587,-1.5805,-1.5586,-1.562,-1.586,-1.6274,-1.6681,-1.6551,-1.623,-1.6354,-1.649,-1.6603,-1.6612,-1.6298,-1.6193,-0.2425,-0.2932,-0.3405,-0.379,-0.4112,-0.4463,-0.564,-0.7094,-0.7409,-0.791,-0.8604,-0.8788,-0.8892,-0.873,-0.8812,-0.9042,-0.9368,-0.9065,-0.921,-0.9712,-0.9636,-0.975,-0.9976,-1.0282,-1.0507,-1.0738,-1.0999,-1.0999,-1.1186,-1.1372,-1.1595,-1.1564,-1.1669,-1.1669,-1.1558,-1.1409,-1.1558,-1.2033,-1.2365,-1.2475,-1.2549,-1.2629,-1.2409,-1.2342,-1.2261,-1.2231,-1.2231,-1.2268,-1.2305,-1.2489,-1.2526,-1.2709,-1.282,-1.2922,-1.2789,-1.2565,-1.2408,-1.1979,-1.143,-1.1194,-1.0894,-1.0568,-1.0207,-1.0602,-1.1092,-1.1556,-1.1785,-1.1857,-1.1749,-1.1595,-1.1484,-1.1378,-1.1298,-1.1223,-1.126,-1.126,-1.1298,-1.1372,-1.1669,-1.2077,-1.2842,-1.3789,-1.4589,-1.5089,-1.5311,-1.524,-1.5169,-1.5169,-1.5374,-1.5586,-1.5727,-1.5903,-1.6123,-1.6307,-1.6272,-1.6272,-1.6412,-1.6445,-1.6296,-1.6132,-1.6138,-1.5974,-1.5721,-1.5701,-1.5761,-1.6145,-1.6487,-1.6298,-1.6062,-1.6123,-1.6017,-1.5833,-1.5719,-1.5498,-1.5471,-0.1982,-0.2199,-0.316,-0.3796,-0.4117,-0.4341,-0.5031,-0.5935,-0.6114,-0.6543,-0.721,-0.7471,-0.7685,-0.7846,-0.7876,-0.8156,-0.8339,-0.8181,-0.8304,-0.8884,-0.8414,-0.8528,-0.9026,-0.9221,-0.9636,-1.0282,-1.07,-1.0775,-1.1043,-1.1223,-1.126,-1.1117,-1.1192,-1.1223,-1.1223,-1.1186,-1.126,-1.1409,-1.1521,-1.1484,-1.1366,-1.1223,-1.1155,-1.1229,-1.1229,-1.1229,-1.1192,-1.126,-1.1372,-1.1744,-1.2009,-1.2187,-1.2415,-1.2592,-1.2421,-1.2349,-1.2135,-1.1866,-1.1401,-1.1166,-1.0832,-1.0461,-0.9983,-1.0359,-1.0867,-1.0832,-1.0995,-1.1377,-1.1317,-1.1292,-1.1224,-1.1211,-1.1186,-1.1186,-1.1223,-1.126,-1.1298,-1.1446,-1.1848,-1.2291,-1.2989,-1.3934,-1.484,-1.5346,-1.5125,-1.4812,-1.4776,-1.4812,-1.4991,-1.5338,-1.548,-1.5657,-1.5806,-1.5956,-1.6026,-1.6096,-1.6438,-1.6478,-1.6264,-1.6347,-1.6294,-1.6088,-1.5839,-1.59,-1.5961,-1.5921,-1.6061,-1.5992,-1.5886,-1.5657,-1.5444,-1.501,-1.4752,-1.453,-1.453,-0.1054,-0.2109,-0.3126,-0.3594,-0.3755,-0.4207,-0.4548,-0.4818,-0.5152,-0.6056,-0.7221,-0.7397,-0.7413,-0.7287,-0.7268,-0.7506,-0.7583,-0.7387,-0.7655,-0.777,-0.7498,-0.7536,-0.8109,-0.8266,-0.8647,-0.9107,-0.9679,-1.04,-1.0856,-1.1005,-1.108,-1.1117,-1.1117,-1.1117,-1.1117,-1.1117,-1.1117,-1.1117,-1.1117,-1.1117,-1.1111,-1.1446,-1.1639,-1.1304,-1.1117,-1.1117,-1.1117,-1.1117,-1.1186,-1.1292,-1.1292,-1.1403,-1.1484,-1.1558,-1.1527,-1.1475,-1.166,-1.1511,-1.1378,-1.1146,-1.096,-1.0934,-1.0757,-1.0817,-1.0785,-1.0351,-1.0351,-1.0779,-1.1021,-1.1033,-1.1051,-1.1081,-1.1105,-1.1149,-1.1192,-1.1229,-1.1267,-1.1595,-1.1959,-1.2586,-1.3178,-1.397,-1.4875,-1.5133,-1.4911,-1.484,-1.4875,-1.4875,-1.4875,-1.5081,-1.4982,-1.5125,-1.5311,-1.5453,-1.5524,-1.57,-1.5947,-1.6009,-1.5826,-1.6044,-1.6372,-1.6103,-1.5783,-1.6082,-1.6203,-1.5913,-1.5817,-1.6105,-1.5922,-1.5286,-1.4724,-1.4178,-1.3709,-1.3382,-1.3455,-0.043,-0.1298,-0.2442,-0.3,-0.3197,-0.3807,-0.4179,-0.4357,-0.4625,-0.5298,-0.6187,-0.6353,-0.6398,-0.6367,-0.636,-0.6738,-0.6777,-0.6472,-0.6626,-0.6777,-0.67,-0.67,-0.693,-0.7276,-0.777,-0.819,-0.8841,-0.9604,-1.0513,-1.0594,-1.0594,-1.0999,-1.1074,-1.108,-1.108,-1.1117,-1.1074,-1.1117,-1.108,-1.108,-1.108,-1.1372,-1.1484,-1.1149,-1.1117,-1.1117,-1.1117,-1.1117,-1.1111,-1.1111,-1.1149,-1.1149,-1.1186,-1.1223,-1.1155,-1.1144,-1.1192,-1.12,-1.1175,-1.1083,-1.0953,-1.0899,-1.0811,-1.0627,-1.0592,-1.029,-1.0496,-1.0876,-1.1033,-1.1063,-1.1081,-1.1111,-1.1111,-1.1149,-1.1155,-1.1155,-1.1192,-1.1298,-1.1959,-1.2739,-1.3251,-1.3651,-1.4446,-1.4892,-1.4633,-1.4266,-1.4366,-1.4186,-1.433,-1.4617,-1.4545,-1.4517,-1.4661,-1.4724,-1.4708,-1.4931,-1.5267,-1.5303,-1.5303,-1.5623,-1.5861,-1.5799,-1.5755,-1.5757,-1.5679,-1.5432,-1.5448,-1.5677,-1.5111,-1.4266,-1.3753,-1.331,-1.2842,-1.2439,-1.2512,0.0,-0.0279,-0.1521,-0.218,-0.2431,-0.3197,-0.3698,-0.3977,-0.4247,-0.4478,-0.4809,-0.4971,-0.4871,-0.4868,-0.4934,-0.5476,-0.5738,-0.5628,-0.5705,-0.5744,-0.5437,-0.5744,-0.5973,-0.6205,-0.6965,-0.7693,-0.8347,-0.9226,-1.018,-1.0255,-1.0519,-1.0925,-1.1037,-1.1005,-1.1037,-1.1037,-1.0962,-1.0925,-1.0925,-1.0999,-1.1037,-1.1074,-1.1111,-1.1111,-1.1186,-1.1186,-1.1149,-1.1186,-1.1186,-1.1117,-1.1117,-1.1117,-1.1117,-1.1117,-1.1117,-1.1094,-1.0991,-1.1046,-1.1004,-1.0742,-1.0572,-1.0399,-1.0322,-1.0345,-1.0363,-1.0502,-1.0707,-1.087,-1.1027,-1.1075,-1.1087,-1.1117,-1.1117,-1.1117,-1.1117,-1.1117,-1.1117,-1.1155,-1.1892,-1.2746,-1.3149,-1.3513,-1.4021,-1.4497,-1.4238,-1.3869,-1.3542,-1.3295,-1.3258,-1.3724,-1.3905,-1.3869,-1.3905,-1.3926,-1.3875,-1.4099,-1.4402,-1.4689,-1.476,-1.5125,-1.5444,-1.5586,-1.5517,-1.5072,-1.4958,-1.5114,-1.4901,-1.492,-1.4183,-1.3521,-1.3251,-1.2945,-1.2328,-1.1996,-1.1811,0.0477,-0.0096,-0.1002,-0.1384,-0.1516,-0.2368,-0.2877,-0.305,-0.3806,-0.4256,-0.4421,-0.459,-0.4693,-0.4795,-0.4812,-0.5097,-0.5285,-0.5054,-0.5015,-0.5093,-0.5093,-0.5171,-0.5285,-0.5631,-0.6584,-0.7272,-0.7961,-0.8955,-0.9609,-1.0024,-1.0406,-1.0663,-1.0663,-1.0625,-1.0625,-1.0625,-1.0663,-1.07,-1.0663,-1.07,-1.0775,-1.085,-1.108,-1.126,-1.1552,-1.1409,-1.1372,-1.1589,-1.1446,-1.1267,-1.1117,-1.1117,-1.1117,-1.1117,-1.1117,-1.1063,-1.096,-1.0954,-1.087,-1.0575,-1.0382,-1.0478,-1.0442,-1.04,-1.0502,-1.0611,-1.0785,-1.0954,-1.1051,-1.1015,-1.1027,-1.1093,-1.1117,-1.1117,-1.1117,-1.1117,-1.1117,-1.1223,-1.1632,-1.2335,-1.2856,-1.3441,-1.4093,-1.4129,-1.3659,-1.3288,-1.2915,-1.2703,-1.2696,-1.2996,-1.3237,-1.3164,-1.3127,-1.3149,-1.3105,-1.3171,-1.3433,-1.3825,-1.4222,-1.4581,-1.501,-1.5621,-1.5465,-1.479,-1.495,-1.5257,-1.4975,-1.4145,-1.396,-1.339,-1.3135,-1.2725,-1.2033,-1.1595,-1.1521]}]]